ftp/pub/palmer/observations_modified/2017/September/AR170901_BASE.txt
Download
Sample DateTime Unit Id WS Avg 2min WD Avg 2min WGS 10min WGD 10min Air Temp Rel Humidity Dew Point Pyranometer Quantum Air Pressure Snow Level Rainfall PW Current Visibility CBase 1 CBase 2 CBase 3 Vert Vis
2017/09/01 00:00:04 BASE 7.63 245 11.57 245 -7.5 86 -9.4 0 0 977.5 NA 0.0000 9999 1640 0 0 0
2017/09/01 00:01:04 BASE 7.80 242 11.57 245 -7.5 86 -9.4 0 0 977.6 NA 0.0000 9999 1670 0 0 0
2017/09/01 00:02:04 BASE 8.42 234 11.57 245 -7.5 86 -9.5 0 0 977.6 NA 0.0000 9999 1670 0 0 0
2017/09/01 00:03:04 BASE 7.34 232 11.57 245 -7.6 86 -9.5 0 0 977.7 NA 0.0000 9999 1440 0 0 0
2017/09/01 00:04:04 BASE 6.94 237 11.57 245 -7.6 86 -9.6 0 0 977.7 NA 0.0000 9999 1610 0 0 0
2017/09/01 00:05:04 BASE 6.86 245 11.57 245 -7.7 86 -9.6 0 0 977.7 NA 0.0000 9999 1570 0 0 0
2017/09/01 00:06:04 BASE 6.42 246 11.57 245 -7.7 85 -9.7 0 0 977.7 NA 0.0000 9999 1540 0 0 0
2017/09/01 00:07:05 BASE 7.22 244 11.57 245 -7.7 85 -9.7 0 0 977.8 NA 0.0000 9999 1610 0 0 0
2017/09/01 00:08:04 BASE 8.13 242 10.08 240 -7.6 85 -9.7 0 0 977.8 NA 0.0000 9999 1570 0 0 0
2017/09/01 00:09:05 BASE 8.28 239 10.08 240 -7.6 86 -9.6 0 0 977.8 NA 0.0000 9999 1510 0 0 0
2017/09/01 00:10:04 BASE 7.58 240 10.08 240 -7.6 86 -9.6 0 0 977.8 NA 0.0000 9999 1510 0 0 0
2017/09/01 00:11:04 BASE 7.20 241 9.52 238 -7.6 86 -9.5 0 0 977.8 NA 0.0000 9999 1510 0 0 0
2017/09/01 00:12:04 BASE 7.32 241 9.52 238 -7.6 86 -9.5 0 0 977.9 NA 0.0000 9999 1570 0 0 0
2017/09/01 00:13:06 BASE 6.48 247 9.52 238 -7.6 86 -9.5 0 0 977.9 NA 0.0000 9999 1770 0 0 0
2017/09/01 00:14:01 BASE 6.74 245 9.52 238 -7.6 86 -9.5 0 0 978.0 NA 0.0000 9999 1710 0 0 0
2017/09/01 00:15:04 BASE 7.55 238 9.52 238 -7.6 86 -9.5 0 0 978.0 NA 0.0000 9999 1900 0 0 0
2017/09/01 00:16:04 BASE 7.72 236 9.52 238 -7.6 86 -9.5 0 0 978.0 NA 0.0000 9999 1870 0 0 0
2017/09/01 00:17:04 BASE 7.85 237 9.52 238 -7.6 86 -9.5 0 0 978.1 NA 0.0000 9999 1740 0 0 0
2017/09/01 00:18:04 BASE 8.11 239 9.52 238 -7.6 86 -9.6 0 0 978.1 NA 0.0000 9999 1800 0 0 0
2017/09/01 00:19:04 BASE 7.70 241 9.52 238 -7.6 86 -9.6 0 0 978.1 NA 0.0000 9999 1870 0 0 0
2017/09/01 00:20:04 BASE 7.45 242 9.93 236 -7.6 85 -9.7 0 0 978.2 NA 0.0000 9999 1770 0 0 0
2017/09/01 00:21:04 BASE 7.16 243 9.93 236 -7.6 85 -9.7 0 0 978.2 NA 0.0000 9999 1710 0 0 0
2017/09/01 00:22:04 BASE 6.93 244 9.93 236 -7.6 84 -9.8 0 0 978.2 NA 0.0000 9999 1670 0 0 0
2017/09/01 00:23:04 BASE 7.02 245 9.93 236 -7.6 84 -9.8 0 0 978.2 NA 0.0000 9999 1670 0 0 0
2017/09/01 00:24:04 BASE 7.46 245 9.93 236 -7.6 84 -9.8 0 0 978.2 NA 0.0000 9999 1670 0 0 0
2017/09/01 00:25:04 BASE 7.18 243 9.93 236 -7.6 84 -9.8 0 0 978.2 NA 0.0000 9999 1640 0 0 0
2017/09/01 00:26:04 BASE 6.43 244 9.93 236 -7.6 84 -9.8 0 0 978.3 NA 0.0000 9999 1610 0 0 0
2017/09/01 00:27:05 BASE 6.48 243 9.93 236 -7.5 84 -9.8 0 0 978.2 NA 0.0000 9999 1800 0 0 0
2017/09/01 00:28:04 BASE 6.70 239 9.93 236 -7.5 84 -9.7 0 0 978.3 NA 0.0000 9999 1710 0 0 0
2017/09/01 00:29:04 BASE 7.42 234 9.93 236 -7.5 85 -9.7 0 0 978.3 NA 0.0000 9999 1800 0 0 0
2017/09/01 00:30:03 BASE 8.08 233 9.67 242 -7.5 85 -9.7 0 0 978.3 NA 0.0000 9999 1740 0 0 0
2017/09/01 00:31:04 BASE 7.97 228 9.67 242 -7.6 85 -9.6 0 0 978.4 NA 0.0000 9999 1770 0 0 0
2017/09/01 00:32:04 BASE 7.06 226 9.67 242 -7.6 85 -9.7 0 0 978.4 NA 0.0000 9999 1800 0 0 0
2017/09/01 00:33:04 BASE 7.31 233 9.67 242 -7.6 85 -9.8 0 0 978.4 NA 0.0000 9999 1710 0 0 0
2017/09/01 00:34:04 BASE 7.77 236 9.52 233 -7.6 84 -9.8 0 0 978.4 NA 0.0000 9999 1770 0 0 0
2017/09/01 00:35:04 BASE 7.39 241 9.52 233 -7.6 84 -9.8 0 0 978.4 NA 0.0000 9999 1770 0 0 0
2017/09/01 00:36:04 BASE 7.07 242 9.52 233 -7.6 84 -9.9 0 0 978.5 NA 0.0000 9999 1670 0 0 0
2017/09/01 00:37:04 BASE 6.86 242 9.52 233 -7.6 84 -9.9 0 0 978.5 NA 0.0000 9999 1610 0 0 0
2017/09/01 00:38:04 BASE 6.97 239 9.52 233 -7.6 84 -9.9 0 0 978.5 NA 0.0000 9999 1610 0 0 0
2017/09/01 00:39:05 BASE 6.90 230 9.52 233 -7.6 84 -9.9 0 0 978.5 NA 0.0000 9999 1610 0 0 0
2017/09/01 00:40:03 BASE 6.62 229 9.00 234 -7.6 84 -9.8 0 0 978.5 NA 0.0000 9999 1670 0 0 0
2017/09/01 00:41:04 BASE 7.11 231 9.05 220 -7.6 84 -9.8 0 0 978.5 NA 0.0000 9999 1610 0 0 0
2017/09/01 00:42:04 BASE 7.88 232 9.52 236 -7.6 85 -9.8 0 0 978.5 NA 0.0000 9999 1770 0 0 0
2017/09/01 00:43:04 BASE 8.36 234 9.52 236 -7.7 85 -9.8 0 0 978.6 NA 0.0000 9999 1940 0 0 0
2017/09/01 00:44:04 BASE 8.24 233 9.52 236 -7.7 85 -9.8 0 0 978.6 NA 0.0000 9999 1840 0 0 0
2017/09/01 00:45:04 BASE 8.05 236 9.52 236 -7.7 85 -9.8 0 0 978.7 NA 0.0000 9999 1740 0 0 0
2017/09/01 00:46:04 BASE 8.27 235 9.52 224 -7.8 85 -9.9 0 0 978.7 NA 0.0000 9999 1900 0 0 0
2017/09/01 00:47:04 BASE 8.01 233 9.52 224 -7.8 85 -9.9 0 0 978.7 NA 0.0000 9999 1800 2660 0 0
2017/09/01 00:48:04 BASE 7.86 233 9.52 224 -7.8 84 -10.0 0 0 978.7 NA 0.0000 9999 1800 0 0 0
2017/09/01 00:49:04 BASE 8.33 232 9.67 234 -7.9 84 -10.1 0 0 978.8 NA 0.0000 9999 1800 0 0 0
2017/09/01 00:50:04 BASE 8.10 233 9.67 234 -7.9 84 -10.1 0 0 978.9 NA 0.0000 9999 1870 0 0 0
2017/09/01 00:51:04 BASE 7.69 235 9.67 234 -7.9 84 -10.2 0 0 978.9 NA 0.0000 9999 1640 0 0 0
2017/09/01 00:52:04 BASE 8.12 236 9.67 234 -8.0 84 -10.2 0 0 978.9 NA 0.0000 9999 1610 0 0 0
2017/09/01 00:53:05 BASE 7.68 236 9.67 234 -8.0 84 -10.2 0 0 979.0 NA 0.0000 9999 1570 0 0 0
2017/09/01 00:54:04 BASE 6.81 236 9.67 234 -8.0 84 -10.3 0 0 979.0 NA 0.0000 9999 1510 0 0 0
2017/09/01 00:55:04 BASE 6.57 238 9.67 234 -8.0 84 -10.3 0 0 979.0 NA 0.0000 9999 1510 0 0 0
2017/09/01 00:56:04 BASE 6.82 238 9.67 234 -8.0 84 -10.3 0 0 979.1 NA 0.0000 9999 1440 0 0 0
2017/09/01 00:57:04 BASE 6.52 240 9.67 234 -8.0 84 -10.3 0 0 979.1 NA 0.0000 9999 1570 0 0 0
2017/09/01 00:58:04 BASE 6.39 241 9.67 234 -8.0 84 -10.3 0 0 979.1 NA 0.0000 9999 1480 0 0 0
2017/09/01 00:59:04 BASE 7.03 241 9.57 237 -8.1 84 -10.2 0 0 979.1 NA 0.0000 9999 1540 0 0 0
2017/09/01 01:00:04 BASE 7.03 244 9.57 237 -8.1 85 -10.2 0 0 979.1 NA 0.0000 9999 1570 0 0 0
2017/09/01 01:01:04 BASE 7.39 239 9.57 237 -8.1 85 -10.2 0 0 979.2 NA 0.0000 9999 1540 0 0 0
2017/09/01 01:02:04 BASE 7.64 235 9.05 232 -8.1 85 -10.2 0 0 979.1 NA 0.0000 9999 1610 0 0 0
2017/09/01 01:03:04 BASE 7.70 235 9.52 233 -8.1 85 -10.2 0 0 979.1 NA 0.0000 9999 1670 0 0 0
2017/09/01 01:04:04 BASE 8.19 237 9.52 233 -8.1 85 -10.2 0 0 979.2 NA 0.0000 9999 1610 0 0 0
2017/09/01 01:05:04 BASE 8.22 241 9.52 233 -8.2 85 -10.3 0 0 979.2 NA 0.0000 9999 1640 0 0 0
2017/09/01 01:06:04 BASE 8.35 239 9.52 233 -8.2 85 -10.3 0 0 979.1 NA 0.0000 9999 1740 0 0 0
2017/09/01 01:07:04 BASE 7.70 241 9.52 233 -8.2 85 -10.4 0 0 979.2 NA 0.0000 9999 1940 0 0 0
2017/09/01 01:08:04 BASE 6.79 246 9.52 233 -8.2 84 -10.4 0 0 979.2 NA 0.0000 9999 1710 0 0 0
2017/09/01 01:09:03 BASE 6.05 248 9.52 233 -8.3 84 -10.4 0 0 979.2 NA 0.0000 9999 1540 0 0 0
2017/09/01 01:10:03 BASE 5.86 247 9.52 240 -8.2 84 -10.5 0 0 979.2 NA 0.0000 9999 1540 0 0 0
2017/09/01 01:11:03 BASE 7.15 244 10.03 250 -8.2 84 -10.4 0 0 979.2 NA 0.0000 9999 1610 0 0 0
2017/09/01 01:12:03 BASE 7.71 237 10.03 250 -8.2 84 -10.4 0 0 979.2 NA 0.0000 9999 1670 0 0 0
2017/09/01 01:13:05 BASE 8.03 239 10.03 250 -8.2 84 -10.4 0 0 979.2 NA 0.0000 9999 1710 0 0 0
2017/09/01 01:14:03 BASE 8.38 244 10.03 250 -8.2 85 -10.3 0 0 979.2 NA 0.0000 9999 1740 0 0 0
2017/09/01 01:15:03 BASE 8.29 241 10.03 250 -8.2 85 -10.4 0 0 979.2 NA 0.0000 9999 1740 0 0 0
2017/09/01 01:16:03 BASE 8.44 234 10.24 231 -8.2 85 -10.4 0 0 979.2 NA 0.0000 9999 1840 0 0 0
2017/09/01 01:17:03 BASE 9.31 225 11.27 216 -8.3 84 -10.4 0 0 979.2 NA 0.0000 9999 1800 0 0 0
2017/09/01 01:18:03 BASE 9.38 221 11.27 216 -8.3 84 -10.5 0 0 979.2 NA 0.0000 9999 1770 2460 0 0
2017/09/01 01:19:03 BASE 8.87 226 11.27 216 -8.3 84 -10.6 0 0 979.2 NA 0.0000 9999 2260 0 0 0
2017/09/01 01:20:03 BASE 8.68 227 11.27 216 -8.4 84 -10.6 0 0 979.3 NA 0.0000 9999 2490 0 0 0
2017/09/01 01:21:04 BASE 7.94 225 11.27 216 -8.4 84 -10.6 0 0 979.3 NA 0.0000 9999 1870 0 0 0
2017/09/01 01:22:04 BASE 7.73 222 11.27 216 -8.4 84 -10.6 0 0 979.4 NA 0.0000 9999 2300 0 0 0
2017/09/01 01:23:04 BASE 8.02 220 11.27 216 -8.4 84 -10.6 0 0 979.4 NA 0.0000 9999 1740 0 0 0
2017/09/01 01:24:04 BASE 7.33 222 11.27 216 -8.4 84 -10.6 0 0 979.5 NA 0.0000 9999 1870 0 0 0
2017/09/01 01:25:04 BASE 7.09 225 11.27 216 -8.4 84 -10.6 0 0 979.5 NA 0.0000 9999 1800 2560 0 0
2017/09/01 01:26:04 BASE 7.17 227 11.27 216 -8.4 84 -10.6 0 0 979.5 NA 0.0000 9999 1710 0 0 0
2017/09/01 01:27:05 BASE 7.29 227 10.70 226 -8.3 84 -10.6 0 0 979.5 NA 0.0000 9999 1870 0 0 0
2017/09/01 01:28:04 BASE 8.02 225 10.55 230 -8.3 84 -10.6 0 0 979.5 NA 0.0000 9999 1840 0 0 0
2017/09/01 01:29:03 BASE 8.14 225 9.72 218 -8.3 84 -10.6 0 0 979.6 NA 0.0000 9999 1800 0 0 0
2017/09/01 01:30:03 BASE 7.65 226 9.72 218 -8.4 84 -10.6 0 0 979.6 NA 0.0000 9999 1800 0 0 0
2017/09/01 01:31:03 BASE 7.27 225 9.72 218 -8.3 84 -10.6 0 0 979.7 NA 0.0000 9999 1800 0 0 0
2017/09/01 01:32:03 BASE 7.33 221 9.72 218 -8.3 84 -10.6 0 0 979.7 NA 0.0000 9999 1770 0 0 0
2017/09/01 01:33:03 BASE 7.35 217 9.67 213 -8.3 84 -10.6 0 0 979.7 NA 0.0000 9999 1710 0 0 0
2017/09/01 01:34:04 BASE 7.65 218 9.67 213 -8.3 84 -10.6 0 0 979.7 NA 0.0000 9999 1900 0 0 0
2017/09/01 01:35:03 BASE 8.31 219 9.67 220 -8.4 83 -10.7 0 0 979.7 NA 0.0000 9999 1940 0 0 0
2017/09/01 01:36:03 BASE 7.82 220 9.67 220 -8.4 83 -10.7 0 0 979.8 NA 0.0000 9999 2170 0 0 0
2017/09/01 01:37:03 BASE 6.89 223 9.67 220 -8.4 83 -10.8 0 0 979.8 NA 0.0000 9999 1900 0 0 0
2017/09/01 01:38:03 BASE 7.15 225 9.67 220 -8.4 83 -10.8 0 0 979.8 NA 0.0000 9999 2030 0 0 0
2017/09/01 01:39:03 BASE 7.55 227 9.67 220 -8.4 83 -10.8 0 0 979.8 NA 0.0000 9999 1940 0 0 0
2017/09/01 01:40:03 BASE 8.17 226 9.77 224 -8.4 83 -10.8 0 0 979.8 NA 0.0000 9999 2000 0 0 0
2017/09/01 01:41:04 BASE 8.82 224 10.29 220 -8.5 83 -10.9 0 0 979.8 NA 0.0000 9999 2230 0 0 0
2017/09/01 01:42:03 BASE 8.55 219 10.29 220 -8.5 83 -10.9 0 0 979.8 NA 0.0000 9999 2070 0 0 0
2017/09/01 01:43:03 BASE 7.80 215 10.29 220 -8.5 82 -11.0 0 0 979.8 NA 0.0000 9999 1870 0 0 0
2017/09/01 01:44:03 BASE 6.99 217 10.29 220 -8.6 82 -11.1 0 0 979.8 NA 0.0000 9999 1900 0 0 0
2017/09/01 01:45:03 BASE 6.10 224 10.29 220 -8.6 81 -11.2 0 0 979.8 NA 0.0000 9999 1800 0 0 0
2017/09/01 01:46:03 BASE 5.54 229 10.29 220 -8.6 81 -11.2 0 0 979.9 NA 0.0000 9999 1800 0 0 0
2017/09/01 01:47:03 BASE 5.87 232 10.29 220 -8.5 81 -11.2 0 0 979.9 NA 0.0000 9999 2000 0 0 0
2017/09/01 01:48:03 BASE 5.99 229 10.29 220 -8.5 81 -11.2 0 0 979.9 NA 0.0000 9999 1970 0 0 0
2017/09/01 01:49:04 BASE 6.40 221 10.29 220 -8.5 81 -11.1 0 0 980.0 NA 0.0000 9999 2130 0 0 0
2017/09/01 01:50:03 BASE 7.75 214 10.29 220 -8.5 81 -11.1 0 0 979.9 NA 0.0000 9999 2170 0 0 0
2017/09/01 01:51:03 BASE 8.04 214 9.31 211 -8.5 81 -11.1 0 0 980.0 NA 0.0000 9999 2200 0 0 0
2017/09/01 01:52:03 BASE 7.09 220 9.31 211 -8.5 81 -11.1 0 0 980.1 NA 0.0000 9999 2130 0 0 0
2017/09/01 01:53:03 BASE 6.79 229 9.31 211 -8.5 81 -11.1 0 0 980.0 NA 0.0000 9999 2100 0 0 0
2017/09/01 01:54:03 BASE 7.39 228 9.31 211 -8.5 80 -11.2 0 0 980.0 NA 0.0000 9999 2130 0 0 0
2017/09/01 01:55:03 BASE 8.41 221 10.34 218 -8.5 80 -11.3 0 0 980.0 NA 0.0000 9999 2260 0 0 0
2017/09/01 01:56:03 BASE 8.67 219 10.34 218 -8.4 79 -11.4 0 0 980.1 NA 0.0000 9999 2260 0 0 0
2017/09/01 01:57:03 BASE 8.46 221 10.34 218 -8.4 79 -11.4 0 0 980.0 NA 0.0000 9999 2230 0 0 0
2017/09/01 01:58:03 BASE 8.48 219 10.34 218 -8.4 79 -11.5 0 0 980.1 NA 0.0000 9999 2360 0 0 0
2017/09/01 01:59:03 BASE 8.28 215 10.34 218 -8.4 78 -11.5 0 0 980.1 NA 0.0000 9999 2260 0 0 0
2017/09/01 02:00:03 BASE 8.57 214 10.34 218 -8.4 78 -11.5 0 0 980.2 NA 0.0000 9999 2230 0 0 0
2017/09/01 02:01:03 BASE 9.05 213 10.75 207 -8.4 78 -11.6 0 0 980.2 NA 0.0000 9999 2430 0 0 0
2017/09/01 02:02:03 BASE 8.82 210 10.75 207 -8.5 78 -11.7 0 0 980.2 NA 0.0000 9999 2300 2890 0 0
2017/09/01 02:03:03 BASE 7.88 211 10.75 207 -8.5 77 -11.7 0 0 980.3 NA 0.0000 9999 2300 0 0 0
2017/09/01 02:04:03 BASE 6.82 217 10.75 207 -8.5 77 -11.7 0 0 980.3 NA 0.0000 9999 2300 0 0 0
2017/09/01 02:05:03 BASE 7.67 220 10.75 207 -8.5 77 -11.8 0 0 980.2 NA 0.0000 9999 2400 0 0 0
2017/09/01 02:06:03 BASE 9.16 216 10.75 207 -8.5 77 -11.8 0 0 980.3 NA 0.0000 9999 2460 0 0 0
2017/09/01 02:07:03 BASE 9.25 213 10.75 207 -8.5 77 -11.8 0 0 980.3 NA 0.0000 9999 2560 3770 0 0
2017/09/01 02:08:03 BASE 9.22 210 10.75 207 -8.5 76 -11.9 0 0 980.3 NA 0.0000 9999 3050 3770 0 0
2017/09/01 02:09:03 BASE 9.27 206 10.75 207 -8.5 76 -12.0 0 0 980.4 NA 0.0000 9999 2690 0 0 0
2017/09/01 02:10:03 BASE 8.67 207 10.75 207 -8.5 75 -12.2 0 0 980.4 NA 0.0000 9999 2660 0 0 0
2017/09/01 02:11:03 BASE 7.39 213 10.65 209 -8.5 74 -12.3 0 0 980.4 NA 0.0000 9999 2590 0 0 0
2017/09/01 02:12:03 BASE 6.66 215 10.65 209 -8.6 74 -12.4 0 0 980.4 NA 0.0000 9999 2620 0 0 0
2017/09/01 02:13:05 BASE 6.64 215 10.65 209 -8.6 73 -12.5 0 0 980.5 NA 0.0000 9999 2660 0 0 0
2017/09/01 02:14:03 BASE 6.84 215 10.65 209 -8.6 73 -12.5 0 0 980.4 NA 0.0000 9999 2850 3510 4200 0
2017/09/01 02:15:03 BASE 7.54 211 10.65 209 -8.6 74 -12.5 0 0 980.4 NA 0.0000 9999 2720 4200 0 0
2017/09/01 02:16:03 BASE 8.89 209 11.68 211 -8.6 74 -12.5 0 0 980.4 NA 0.0000 9999 2820 4300 0 0
2017/09/01 02:17:03 BASE 9.80 208 11.68 211 -8.7 73 -12.6 0 0 980.4 NA 0.0000 9999 3120 4400 0 0
2017/09/01 02:18:03 BASE 9.28 206 11.68 211 -8.7 73 -12.7 0 0 980.5 NA 0.0000 9999 4400 0 0 0
2017/09/01 02:19:03 BASE 8.43 209 11.68 211 -8.7 72 -12.8 0 0 980.5 NA 0.0000 9999 3180 4460 0 0
2017/09/01 02:20:03 BASE 7.68 205 11.68 211 -8.6 71 -12.9 0 0 980.6 NA 0.0000 9999 3350 4560 0 0
2017/09/01 02:21:03 BASE 7.55 200 11.68 211 -8.6 71 -12.9 0 0 980.6 NA 0.0000 9999 3310 3710 4560 0
2017/09/01 02:22:03 BASE 8.08 200 11.68 211 -8.6 71 -12.9 0 0 980.6 NA 0.0000 9999 3020 4590 0 0
2017/09/01 02:23:03 BASE 8.64 202 11.68 211 -8.6 71 -12.9 0 0 980.6 NA 0.0000 9999 2950 0 0 0
2017/09/01 02:24:03 BASE 9.03 201 11.68 211 -8.6 71 -12.8 0 0 980.6 NA 0.0000 9999 2950 3740 0 0
2017/09/01 02:25:03 BASE 8.96 196 11.68 211 -8.6 71 -12.8 0 0 980.6 NA 0.0000 9999 2890 0 0 0
2017/09/01 02:26:03 BASE 8.00 199 11.37 203 -8.5 71 -12.9 0 0 980.7 NA 0.0000 9999 2890 3540 4660 0
2017/09/01 02:27:03 BASE 8.60 203 11.68 199 -8.5 71 -12.9 0 0 980.6 NA 0.0000 9999 2920 0 0 0
2017/09/01 02:28:03 BASE 9.55 205 11.68 199 -8.5 70 -12.9 0 0 980.6 NA 0.0000 9999 2990 0 0 0
2017/09/01 02:29:03 BASE 9.58 207 11.88 197 -8.5 70 -13.0 0 0 980.6 NA 0.0000 9999 2920 4690 0 0
2017/09/01 02:30:03 BASE 9.83 207 11.88 197 -8.6 70 -13.0 0 0 980.6 NA 0.0000 9999 2850 0 0 0
2017/09/01 02:31:04 BASE 8.87 212 11.88 197 -8.6 70 -13.1 0 0 980.7 NA 0.0000 9999 2790 0 0 0
2017/09/01 02:32:03 BASE 8.64 220 11.88 197 -8.6 70 -13.1 0 0 980.6 NA 0.0000 9999 2820 0 0 0
2017/09/01 02:33:03 BASE 9.13 221 11.88 197 -8.6 70 -13.2 0 0 980.6 NA 0.0000 9999 2660 0 0 0
2017/09/01 02:34:03 BASE 9.34 216 11.88 197 -8.6 70 -13.2 0 0 980.7 NA 0.0000 9999 2720 0 0 0
2017/09/01 02:35:03 BASE 9.37 210 11.88 197 -8.6 70 -13.2 0 0 980.7 NA 0.0000 9999 2760 0 0 0
2017/09/01 02:36:03 BASE 8.58 209 11.88 197 -8.6 70 -13.1 0 0 980.8 NA 0.0000 9999 2760 0 0 0
2017/09/01 02:37:03 BASE 7.00 210 11.88 197 -8.6 70 -13.1 0 0 980.8 NA 0.0000 9999 2790 0 0 0
2017/09/01 02:38:03 BASE 6.21 207 11.88 197 -8.6 70 -13.0 0 0 980.8 NA 0.0000 9999 0 0 0 0
2017/09/01 02:39:00 BASE 6.74 207 11.06 214 -8.6 71 -13.0 0 0 980.8 NA 0.0000 9999 3020 0 0 0
2017/09/01 02:40:03 BASE 7.79 208 11.06 214 -8.6 71 -12.9 0 0 980.8 NA 0.0000 9999 2790 0 0 0
2017/09/01 02:41:04 BASE 8.49 206 11.06 214 -8.6 71 -12.9 0 0 980.8 NA 0.0000 9999 2760 0 0 0
2017/09/01 02:42:03 BASE 7.90 206 11.06 214 -8.6 71 -12.9 0 0 980.8 NA 0.0000 9999 2660 0 0 0
2017/09/01 02:43:03 BASE 6.07 211 10.75 217 -8.7 71 -12.9 0 0 980.9 NA 0.0000 9999 2850 0 0 0
2017/09/01 02:44:03 BASE 6.33 213 10.49 206 -8.7 71 -12.9 0 0 980.9 NA 0.0000 9999 2760 0 0 0
2017/09/01 02:45:03 BASE 8.65 212 10.29 211 -8.7 71 -12.9 0 0 980.8 NA 0.0000 9999 0 0 0 0
2017/09/01 02:46:03 BASE 9.51 212 11.68 214 -8.7 71 -13.0 0 0 980.8 NA 0.0000 9999 0 0 0 0
2017/09/01 02:47:03 BASE 9.03 214 11.68 214 -8.7 71 -13.0 0 0 980.9 NA 0.0000 9999 0 0 0 0
2017/09/01 02:48:03 BASE 8.06 215 11.68 214 -8.7 71 -13.1 0 0 980.9 NA 0.0000 9999 0 0 0 0
2017/09/01 02:49:04 BASE 7.85 212 11.68 214 -8.7 71 -13.1 0 0 980.9 NA 0.0000 9999 0 0 0 0
2017/09/01 02:50:03 BASE 7.56 211 11.68 214 -8.7 70 -13.2 0 0 980.9 NA 0.0000 9999 0 0 0 0
2017/09/01 02:51:03 BASE 7.12 214 11.68 214 -8.7 70 -13.2 0 0 980.9 NA 0.0000 9999 0 0 0 0
2017/09/01 02:52:03 BASE 7.56 216 11.68 214 -8.7 70 -13.2 0 0 980.9 NA 0.0000 9999 0 0 0 0
2017/09/01 02:53:03 BASE 8.70 216 11.68 214 -8.7 70 -13.2 0 0 980.8 NA 0.0000 9999 0 0 0 0
2017/09/01 02:54:03 BASE 9.22 213 11.68 214 -8.7 70 -13.2 0 0 980.8 NA 0.0000 9999 0 0 0 0
2017/09/01 02:55:03 BASE 8.45 212 11.68 214 -8.7 70 -13.2 0 0 980.8 NA 0.0000 9999 0 0 0 0
2017/09/01 02:56:03 BASE 8.24 214 10.49 214 -8.7 70 -13.2 0 0 980.9 NA 0.0000 9999 0 0 0 0
2017/09/01 02:57:03 BASE 8.56 214 10.49 214 -8.7 70 -13.2 0 0 980.9 NA 0.0000 9999 0 0 0 0
2017/09/01 02:58:03 BASE 7.80 214 10.49 214 -8.7 70 -13.2 0 0 980.9 NA 0.0000 9999 0 0 0 0
2017/09/01 02:59:03 BASE 7.35 217 10.49 214 -8.7 70 -13.2 0 0 980.9 NA 0.0000 9999 0 0 0 0
2017/09/01 03:00:03 BASE 7.32 216 10.49 214 -8.8 70 -13.3 0 0 980.9 NA 0.0000 9999 0 0 0 0
2017/09/01 03:01:03 BASE 6.53 214 10.49 214 -8.8 70 -13.3 0 0 981.0 NA 0.0000 9999 0 0 0 0
2017/09/01 03:02:03 BASE 7.17 212 10.49 214 -8.8 70 -13.2 0 0 981.0 NA 0.0000 9999 0 0 0 0
2017/09/01 03:03:03 BASE 7.56 212 10.08 204 -8.8 70 -13.2 0 0 981.0 NA 0.0000 9999 0 0 0 0
2017/09/01 03:04:03 BASE 7.03 213 9.77 220 -8.8 71 -13.2 0 0 981.0 NA 0.0000 9999 0 0 0 0
2017/09/01 03:05:03 BASE 6.97 216 9.77 220 -8.8 71 -13.1 0 0 981.0 NA 0.0000 9999 0 0 0 0
2017/09/01 03:06:03 BASE 7.32 214 9.77 215 -8.8 71 -13.1 0 0 981.0 NA 0.0000 9999 0 0 0 0
2017/09/01 03:07:03 BASE 8.49 213 10.08 212 -8.7 71 -13.1 0 0 981.0 NA 0.0000 9999 0 0 0 0
2017/09/01 03:08:03 BASE 8.78 212 10.08 212 -8.7 70 -13.1 0 0 981.0 NA 0.0000 9999 0 0 0 0
2017/09/01 03:09:03 BASE 7.93 214 10.08 212 -8.7 70 -13.2 0 0 981.1 NA 0.0000 9999 0 0 0 0
2017/09/01 03:10:03 BASE 8.00 215 10.08 212 -8.7 69 -13.3 0 0 981.1 NA 0.0000 9999 0 0 0 0
2017/09/01 03:11:03 BASE 8.34 217 10.34 222 -8.7 69 -13.4 0 0 981.2 NA 0.0000 9999 0 0 0 0
2017/09/01 03:12:03 BASE 7.96 218 10.34 222 -8.7 68 -13.5 0 0 981.2 NA 0.0000 9999 0 0 0 0
2017/09/01 03:13:05 BASE 9.19 213 11.47 212 -8.7 68 -13.6 0 0 981.2 NA 0.0000 9999 0 0 0 0
2017/09/01 03:14:03 BASE 10.03 214 11.47 212 -8.7 67 -13.7 0 0 981.2 NA 0.0000 9999 0 0 0 0
2017/09/01 03:15:03 BASE 8.87 217 11.47 212 -8.7 67 -13.8 0 0 981.3 NA 0.0000 9999 0 0 0 0
2017/09/01 03:16:03 BASE 7.34 217 11.47 212 -8.7 66 -13.9 0 0 981.4 NA 0.0000 9999 0 0 0 0
2017/09/01 03:17:03 BASE 6.25 218 11.47 212 -8.7 66 -13.9 0 0 981.5 NA 0.0000 9999 0 0 0 0
2017/09/01 03:18:03 BASE 6.59 220 11.47 212 -8.7 66 -14.0 0 0 981.4 NA 0.0000 9999 0 0 0 0
2017/09/01 03:19:04 BASE 7.87 217 11.47 212 -8.7 66 -14.0 0 0 981.4 NA 0.0000 9999 0 0 0 0
2017/09/01 03:20:03 BASE 8.90 213 11.47 212 -8.7 66 -13.9 0 0 981.5 NA 0.0000 9999 0 0 0 0
2017/09/01 03:21:03 BASE 8.67 214 11.47 212 -8.7 66 -13.9 0 0 981.5 NA 0.0000 9999 0 0 0 0
2017/09/01 03:22:03 BASE 8.44 215 11.47 212 -8.7 66 -13.9 0 0 981.5 NA 0.0000 9999 5610 0 0 0
2017/09/01 03:23:03 BASE 8.32 217 11.01 214 -8.7 65 -14.0 0 0 981.5 NA 0.0000 9999 5610 0 0 0
2017/09/01 03:24:03 BASE 7.64 217 10.65 208 -8.6 65 -14.1 0 0 981.5 NA 0.0000 9999 5510 0 0 0
2017/09/01 03:25:03 BASE 7.80 214 10.65 208 -8.6 64 -14.2 0 0 981.5 NA 0.0000 9999 5510 0 0 0
2017/09/01 03:26:03 BASE 7.99 216 10.65 208 -8.7 64 -14.2 0 0 981.5 NA 0.0000 9999 5480 0 0 0
2017/09/01 03:27:04 BASE 8.02 218 10.65 208 -8.7 64 -14.2 0 0 981.5 NA 0.0000 9999 0 0 0 0
2017/09/01 03:28:03 BASE 8.66 217 10.65 208 -8.7 65 -14.1 0 0 981.5 NA 0.0000 9999 0 0 0 0
2017/09/01 03:29:04 BASE 8.56 217 10.34 213 -8.7 65 -14.1 0 0 981.5 NA 0.0000 9999 0 0 0 0
2017/09/01 03:30:03 BASE 7.98 215 9.93 213 -8.7 66 -14.0 0 0 981.5 NA 0.0000 9999 0 0 0 0
2017/09/01 03:31:03 BASE 7.73 213 9.93 213 -8.7 66 -14.0 0 0 981.5 NA 0.0000 9999 0 0 0 0
2017/09/01 03:32:03 BASE 7.56 211 9.93 213 -8.8 66 -14.0 0 0 981.5 NA 0.0000 9999 0 0 0 0
2017/09/01 03:33:03 BASE 8.20 212 9.93 213 -8.8 66 -14.0 0 0 981.5 NA 0.0000 9999 0 0 0 0
2017/09/01 03:34:03 BASE 8.69 213 9.93 213 -8.8 66 -14.0 0 0 981.4 NA 0.0000 9999 0 0 0 0
2017/09/01 03:35:03 BASE 7.80 216 9.93 213 -8.8 66 -14.0 0 0 981.4 NA 0.0000 9999 0 0 0 0
2017/09/01 03:36:03 BASE 6.37 218 9.93 213 -8.7 66 -14.0 0 0 981.5 NA 0.0000 9999 0 0 0 0
2017/09/01 03:37:03 BASE 5.86 218 9.93 213 -8.7 66 -14.0 0 0 981.5 NA 0.0000 9999 0 0 0 0
2017/09/01 03:38:03 BASE 6.98 216 9.93 213 -8.7 66 -13.9 0 0 981.5 NA 0.0000 9999 0 0 0 0
2017/09/01 03:39:03 BASE 7.31 217 9.31 213 -8.8 66 -13.9 0 0 981.6 NA 0.0000 9999 0 0 0 0
2017/09/01 03:40:03 BASE 6.57 214 9.31 213 -8.8 67 -13.9 0 0 981.6 NA 0.0000 9999 0 0 0 0
2017/09/01 03:41:03 BASE 6.21 213 9.31 213 -8.9 67 -13.9 0 0 981.6 NA 0.0000 9999 0 0 0 0
2017/09/01 03:42:03 BASE 6.12 216 9.31 213 -8.8 67 -13.9 0 0 981.6 NA 0.0000 9999 0 0 0 0
2017/09/01 03:43:03 BASE 6.04 216 9.31 213 -8.8 67 -13.9 0 0 981.6 NA 0.0000 9999 0 0 0 0
2017/09/01 03:44:03 BASE 6.46 212 9.00 219 -8.8 67 -13.9 0 0 981.7 NA 0.0000 9999 4360 0 0 0
2017/09/01 03:45:03 BASE 6.82 209 8.33 216 -8.8 67 -13.8 0 0 981.7 NA 0.0000 9999 4360 0 0 0
2017/09/01 03:46:03 BASE 6.35 211 8.33 216 -8.8 67 -13.7 0 0 981.8 NA 0.0000 9999 4400 0 0 0
2017/09/01 03:47:03 BASE 5.67 209 8.33 216 -8.8 68 -13.7 0 0 981.8 NA 0.0000 9999 4360 0 0 0
2017/09/01 03:48:03 BASE 5.69 203 7.72 216 -8.8 68 -13.6 0 0 981.8 NA 0.0000 9999 4460 0 0 0
2017/09/01 03:49:03 BASE 6.00 198 7.51 209 -8.7 68 -13.5 0 0 981.8 NA 0.0000 9999 4430 0 0 0
2017/09/01 03:50:03 BASE 6.43 196 8.08 193 -8.7 69 -13.4 0 0 981.8 NA 0.0000 9999 4430 0 0 0
2017/09/01 03:51:03 BASE 6.62 198 8.08 193 -8.7 69 -13.4 0 0 981.8 NA 0.0000 9999 4460 0 0 0
2017/09/01 03:52:03 BASE 6.35 202 8.08 193 -8.6 69 -13.4 0 0 981.8 NA 0.0000 9999 4430 0 0 0
2017/09/01 03:53:03 BASE 6.43 207 8.08 193 -8.6 68 -13.4 0 0 981.9 NA 0.0000 9999 4430 0 0 0
2017/09/01 03:54:04 BASE 6.03 208 8.08 193 -8.6 68 -13.4 0 0 982.0 NA 0.0000 9999 4460 0 0 0
2017/09/01 03:55:03 BASE 6.07 203 8.08 193 -8.5 68 -13.4 0 0 982.0 NA 0.0000 9999 4460 0 0 0
2017/09/01 03:56:03 BASE 6.56 202 8.18 207 -8.5 68 -13.4 0 0 982.0 NA 0.0000 9999 4460 0 0 0
2017/09/01 03:57:03 BASE 7.08 205 8.18 207 -8.5 68 -13.4 0 0 982.0 NA 0.0000 9999 4430 0 0 0
2017/09/01 03:58:03 BASE 7.24 206 8.18 207 -8.5 67 -13.5 0 0 982.0 NA 0.0000 9999 0 0 0 0
2017/09/01 03:59:03 BASE 6.70 201 8.18 207 -8.5 67 -13.6 0 0 982.0 NA 0.0000 9999 4660 0 0 0
2017/09/01 04:00:03 BASE 6.62 200 8.18 207 -8.5 66 -13.6 0 0 982.0 NA 0.0000 9999 4760 0 0 0
2017/09/01 04:01:03 BASE 6.27 203 8.18 207 -8.5 66 -13.6 0 0 982.0 NA 0.0000 9999 4760 0 0 0
2017/09/01 04:02:03 BASE 5.63 205 8.18 207 -8.5 66 -13.7 0 0 982.0 NA 0.0000 9999 4690 0 0 0
2017/09/01 04:03:03 BASE 5.61 204 8.18 207 -8.5 66 -13.7 0 0 982.0 NA 0.0000 9999 4760 0 0 0
2017/09/01 04:04:03 BASE 5.45 203 8.18 207 -8.5 66 -13.6 0 0 982.1 NA 0.0000 9999 4760 0 0 0
2017/09/01 04:05:04 BASE 5.86 205 8.18 195 -8.5 67 -13.6 0 0 982.0 NA 0.0000 9999 4760 0 0 0
2017/09/01 04:06:02 BASE 6.48 205 8.18 195 -8.5 67 -13.5 0 0 982.1 NA 0.0000 9999 4790 0 0 0
2017/09/01 04:07:02 BASE 6.64 201 8.18 195 -8.5 67 -13.5 0 0 982.1 NA 0.0000 9999 4790 0 0 0
2017/09/01 04:08:02 BASE 7.08 203 8.18 195 -8.5 67 -13.5 0 0 982.1 NA 0.0000 9999 4820 0 0 0
2017/09/01 04:09:02 BASE 7.15 203 8.18 195 -8.4 66 -13.6 0 0 982.1 NA 0.0000 9999 4760 0 0 0
2017/09/01 04:10:02 BASE 7.26 200 8.18 195 -8.4 66 -13.7 0 0 982.1 NA 0.0000 9999 3940 4720 0 0
2017/09/01 04:11:02 BASE 7.57 199 8.54 198 -8.4 65 -13.8 0 0 982.1 NA 0.0000 9999 4720 0 0 0
2017/09/01 04:12:02 BASE 7.61 199 8.54 198 -8.4 65 -13.8 0 0 982.1 NA 0.0000 9999 3710 4920 0 0
2017/09/01 04:13:03 BASE 6.91 201 8.54 198 -8.3 64 -13.9 0 0 982.1 NA 0.0000 9999 4720 0 0 0
2017/09/01 04:14:03 BASE 5.46 205 8.54 198 -8.3 64 -13.9 0 0 982.2 NA 0.0000 9999 4860 0 0 0
2017/09/01 04:15:03 BASE 5.04 205 8.54 198 -8.4 65 -13.8 0 0 982.2 NA 0.0000 9999 4660 5020 0 0
2017/09/01 04:16:03 BASE 5.80 204 8.54 198 -8.4 66 -13.7 0 0 982.2 NA 0.0000 9999 4630 0 0 0
2017/09/01 04:17:03 BASE 5.85 204 8.54 198 -8.4 66 -13.6 0 0 982.2 NA 0.0000 9999 4590 0 0 0
2017/09/01 04:18:03 BASE 5.87 201 8.54 198 -8.4 67 -13.5 0 0 982.3 NA 0.0000 9999 4170 0 0 0
2017/09/01 04:19:03 BASE 6.35 200 8.54 198 -8.4 67 -13.4 0 0 982.3 NA 0.0000 9999 3740 4590 0 0
2017/09/01 04:20:03 BASE 5.93 205 8.54 198 -8.3 66 -13.5 0 0 982.3 NA 0.0000 9999 4590 0 0 0
2017/09/01 04:21:02 BASE 5.66 208 8.33 200 -8.3 66 -13.6 0 0 982.3 NA 0.0000 9999 4590 0 0 0
2017/09/01 04:22:02 BASE 5.45 206 7.67 199 -8.3 65 -13.6 0 0 982.3 NA 0.0000 9999 3870 4560 0 0
2017/09/01 04:23:02 BASE 5.24 203 7.67 199 -8.3 65 -13.6 0 0 982.3 NA 0.0000 9999 3540 4560 0 0
2017/09/01 04:24:03 BASE 4.97 198 7.67 199 -8.3 65 -13.6 0 0 982.4 NA 0.0000 9999 3610 4560 0 0
2017/09/01 04:25:03 BASE 4.34 199 7.67 199 -8.3 66 -13.6 0 0 982.4 NA 0.0000 9999 3180 3840 0 0
2017/09/01 04:26:03 BASE 4.22 200 7.67 199 -8.3 66 -13.5 0 0 982.4 NA 0.0000 9999 3150 0 0 0
2017/09/01 04:27:03 BASE 5.35 202 7.67 199 -8.3 67 -13.4 0 0 982.3 NA 0.0000 9999 3310 4590 0 0
2017/09/01 04:28:02 BASE 5.70 205 7.61 203 -8.3 67 -13.3 0 0 982.3 NA 0.0000 9999 4490 0 0 0
2017/09/01 04:29:02 BASE 4.90 202 7.61 203 -8.3 67 -13.3 0 0 982.3 NA 0.0000 9999 4530 0 0 0
2017/09/01 04:30:02 BASE 5.13 197 7.61 203 -8.3 67 -13.3 0 0 982.3 NA 0.0000 9999 3380 4460 0 0
2017/09/01 04:31:02 BASE 5.63 195 7.72 196 -8.3 67 -13.3 0 0 982.3 NA 0.0000 9999 3480 4530 0 0
2017/09/01 04:32:02 BASE 6.20 195 7.72 196 -8.3 67 -13.4 0 0 982.3 NA 0.0000 9999 4460 0 0 0
2017/09/01 04:33:02 BASE 6.21 195 7.72 196 -8.3 66 -13.4 0 0 982.3 NA 0.0000 9999 3220 4490 0 0
2017/09/01 04:34:02 BASE 5.71 197 7.72 196 -8.3 66 -13.5 0 0 982.3 NA 0.0000 9999 4490 0 0 0
2017/09/01 04:35:03 BASE 5.36 198 7.72 196 -8.2 66 -13.5 0 0 982.3 NA 0.0000 9999 3770 4490 0 0
2017/09/01 04:36:03 BASE 5.07 199 7.72 196 -8.2 65 -13.6 0 0 982.3 NA 0.0000 9999 3410 4460 0 0
2017/09/01 04:37:03 BASE 5.15 207 7.72 196 -8.3 66 -13.6 0 0 982.3 NA 0.0000 9999 4460 0 0 0
2017/09/01 04:38:03 BASE 5.90 206 7.72 196 -8.3 66 -13.5 0 0 982.3 NA 0.0000 9999 3050 4560 0 0
2017/09/01 04:39:04 BASE 6.70 200 7.72 196 -8.3 67 -13.4 0 0 982.3 NA 0.0000 9999 4560 0 0 0
2017/09/01 04:40:04 BASE 6.66 207 7.72 196 -8.3 67 -13.3 0 0 982.4 NA 0.0000 9999 3150 4530 0 0
2017/09/01 04:41:03 BASE 5.74 206 7.61 205 -8.3 67 -13.3 0 0 982.5 NA 0.0000 9999 4530 0 0 0
2017/09/01 04:42:03 BASE 5.15 195 7.61 205 -8.3 67 -13.2 0 0 982.6 NA 0.0000 9999 3050 4590 0 0
2017/09/01 04:43:03 BASE 5.00 186 7.61 205 -8.3 67 -13.2 0 0 982.6 NA 0.0000 9999 2950 4560 0 0
2017/09/01 04:44:03 BASE 4.78 183 7.61 205 -8.3 67 -13.2 0 0 982.6 NA 0.0000 9999 4460 0 0 0
2017/09/01 04:45:03 BASE 4.48 184 7.61 205 -8.3 67 -13.3 0 0 982.7 NA 0.0000 9999 4460 0 0 0
2017/09/01 04:46:03 BASE 4.48 183 7.61 205 -8.3 67 -13.3 0 0 982.7 NA 0.0000 9999 4460 0 0 0
2017/09/01 04:47:03 BASE 4.64 183 7.61 205 -8.3 67 -13.4 0 0 982.7 NA 0.0000 9999 4430 0 0 0
2017/09/01 04:48:02 BASE 4.17 185 7.61 205 -8.2 66 -13.4 0 0 982.7 NA 0.0000 9999 4360 0 0 0
2017/09/01 04:49:02 BASE 3.73 191 7.46 208 -8.2 66 -13.4 0 0 982.7 NA 0.0000 9999 4330 0 0 0
2017/09/01 04:50:03 BASE 3.53 198 5.66 189 -8.2 66 -13.4 0 0 982.7 NA 0.0000 9999 0 0 0 0
2017/09/01 04:51:02 BASE 3.07 192 5.66 189 -8.3 67 -13.4 0 0 982.7 NA 0.0000 9999 4490 0 0 0
2017/09/01 04:52:03 BASE 2.91 184 5.61 188 -8.3 67 -13.3 0 0 982.7 NA 0.0000 9999 4630 0 0 0
2017/09/01 04:53:03 BASE 3.23 183 5.30 188 -8.3 68 -13.2 0 0 982.7 NA 0.0000 9999 4690 0 0 0
2017/09/01 04:54:03 BASE 3.13 181 5.14 187 -8.4 68 -13.2 0 0 982.7 NA 0.0000 9999 0 0 0 0
2017/09/01 04:55:03 BASE 3.22 175 5.14 187 -8.5 69 -13.1 0 0 982.7 NA 0.0000 9999 0 0 0 0
2017/09/01 04:56:03 BASE 3.46 174 5.14 187 -8.5 70 -13.0 0 0 982.7 NA 0.0000 9999 4460 0 0 0
2017/09/01 04:57:03 BASE 3.20 180 4.48 182 -8.6 70 -13.0 0 0 982.7 NA 0.0000 9999 4430 0 0 0
2017/09/01 04:58:02 BASE 3.28 194 4.37 196 -8.6 71 -12.9 0 0 982.7 NA 0.0000 9999 4400 0 0 0
2017/09/01 04:59:03 BASE 3.51 197 4.32 226 -8.5 71 -12.9 0 0 982.7 NA 0.0000 9999 4400 0 0 0
2017/09/01 05:00:03 BASE 3.38 192 4.32 226 -8.5 70 -12.9 0 0 982.7 NA 0.0000 9999 4490 0 0 0
2017/09/01 05:01:03 BASE 3.62 195 4.32 202 -8.5 70 -12.9 0 0 982.7 NA 0.0000 9999 4430 0 0 0
2017/09/01 05:02:03 BASE 3.73 200 4.32 202 -8.4 70 -12.9 0 0 982.8 NA 0.0000 9999 4430 0 0 0
2017/09/01 05:03:03 BASE 3.77 205 4.32 209 -8.4 70 -13.0 0 0 982.7 NA 0.0000 9999 4400 0 0 0
2017/09/01 05:04:02 BASE 4.11 202 4.68 204 -8.4 69 -13.0 0 0 982.8 NA 0.0000 9999 4360 0 0 0
2017/09/01 05:05:03 BASE 3.78 193 4.68 204 -8.3 69 -12.9 0 0 982.8 NA 0.0000 9999 4400 0 0 0
2017/09/01 05:06:03 BASE 3.33 182 4.68 204 -8.3 69 -12.9 0 0 982.8 NA 0.0000 9999 4360 0 0 0
2017/09/01 05:07:03 BASE 3.22 177 4.68 204 -8.3 69 -12.9 0 0 982.8 NA 0.0000 9999 4200 0 0 0
2017/09/01 05:08:02 BASE 3.34 178 4.68 204 -8.3 69 -12.9 0 0 982.8 NA 0.0000 9999 4300 0 0 0
2017/09/01 05:09:03 BASE 3.63 177 4.68 204 -8.3 70 -12.9 0 0 982.8 NA 0.0000 9999 4230 0 0 0
2017/09/01 05:10:03 BASE 3.32 174 4.68 204 -8.3 70 -12.8 0 0 982.8 NA 0.0000 9999 4330 0 0 0
2017/09/01 05:11:03 BASE 3.31 170 4.68 204 -8.3 70 -12.8 0 0 982.8 NA 0.0000 9999 4230 0 0 0
2017/09/01 05:12:03 BASE 4.02 172 4.89 179 -8.4 71 -12.7 0 0 982.8 NA 0.0000 9999 4000 0 0 0
2017/09/01 05:13:04 BASE 4.40 172 4.89 179 -8.4 71 -12.7 0 0 982.8 NA 0.0000 9999 4170 0 0 0
2017/09/01 05:14:03 BASE 3.89 168 4.89 179 -8.4 71 -12.6 0 0 982.8 NA 0.0000 9999 4200 0 0 0
2017/09/01 05:15:03 BASE 3.28 167 4.89 179 -8.4 71 -12.6 0 0 982.8 NA 0.0000 9999 3810 4360 0 0
2017/09/01 05:16:03 BASE 3.31 166 4.89 179 -8.4 71 -12.6 0 0 982.8 NA 0.0000 9999 3840 0 0 0
2017/09/01 05:17:03 BASE 3.86 164 4.89 179 -8.3 71 -12.6 0 0 982.8 NA 0.0000 9999 4170 0 0 0
2017/09/01 05:18:03 BASE 4.29 167 4.89 179 -8.3 71 -12.6 0 0 982.8 NA 0.0000 9999 3900 0 0 0
2017/09/01 05:19:03 BASE 4.17 166 4.89 179 -8.3 72 -12.5 0 0 982.9 NA 0.0000 9999 4200 0 0 0
2017/09/01 05:20:03 BASE 3.79 164 4.89 179 -8.3 72 -12.5 0 0 982.9 NA 0.0000 9999 4040 0 0 0
2017/09/01 05:21:04 BASE 3.84 167 4.89 179 -8.3 72 -12.5 0 0 982.9 NA 0.0000 9999 4130 0 0 0
2017/09/01 05:22:03 BASE 4.08 174 4.78 186 -8.3 72 -12.5 0 0 982.9 NA 0.0000 9999 4130 0 0 0
2017/09/01 05:23:03 BASE 4.13 173 4.78 186 -8.3 72 -12.5 0 0 982.9 NA 0.0000 9999 4200 0 0 0
2017/09/01 05:24:04 BASE 3.66 172 4.78 186 -8.3 72 -12.5 0 0 982.9 NA 0.0000 9999 4270 0 0 0
2017/09/01 05:25:04 BASE 3.55 175 4.78 186 -8.3 71 -12.6 0 0 982.9 NA 0.0000 9999 4170 0 0 0
2017/09/01 05:26:04 BASE 4.10 178 4.78 186 -8.3 71 -12.6 0 0 982.9 NA 0.0000 9999 4170 0 0 0
2017/09/01 05:27:04 BASE 4.16 179 4.78 186 -8.3 71 -12.6 0 0 982.9 NA 0.0000 9999 4170 0 0 0
2017/09/01 05:28:03 BASE 3.87 176 4.78 186 -8.3 71 -12.5 0 0 982.9 NA 0.0000 9999 4070 0 0 0
2017/09/01 05:29:04 BASE 3.53 170 4.78 186 -8.3 72 -12.5 0 0 982.9 NA 0.0000 9999 4200 0 0 0
2017/09/01 05:30:03 BASE 3.39 165 4.78 186 -8.3 72 -12.5 0 0 982.9 NA 0.0000 9999 4170 0 0 0
2017/09/01 05:31:04 BASE 3.30 165 4.78 186 -8.3 72 -12.4 0 0 982.9 NA 0.0000 9999 4130 0 0 0
2017/09/01 05:32:03 BASE 3.32 169 4.68 184 -8.3 72 -12.4 0 0 982.9 NA 0.0000 9999 3970 0 0 0
2017/09/01 05:33:03 BASE 3.61 170 4.68 184 -8.4 73 -12.4 0 0 983.0 NA 0.0000 9999 4000 0 0 0
2017/09/01 05:34:04 BASE 3.67 170 4.68 184 -8.4 73 -12.4 0 0 983.0 NA 0.0000 9999 4100 0 0 0
2017/09/01 05:35:03 BASE 3.56 172 4.68 184 -8.4 73 -12.4 0 0 983.1 NA 0.0000 9999 4130 0 0 0
2017/09/01 05:36:03 BASE 3.57 173 4.58 179 -8.4 73 -12.4 0 0 983.0 NA 0.0000 9999 4230 0 0 0
2017/09/01 05:37:03 BASE 3.48 172 4.27 172 -8.4 73 -12.4 0 0 983.1 NA 0.0000 9999 4130 0 0 0
2017/09/01 05:38:03 BASE 3.46 174 4.27 172 -8.4 73 -12.5 0 0 983.1 NA 0.0000 9999 4070 0 0 0
2017/09/01 05:39:04 BASE 3.53 178 4.27 172 -8.4 72 -12.5 0 0 983.1 NA 0.0000 9999 4070 0 0 0
2017/09/01 05:40:03 BASE 3.50 179 4.27 172 -8.4 72 -12.6 0 0 983.2 NA 0.0000 9999 4040 0 0 0
2017/09/01 05:41:04 BASE 3.62 176 4.27 172 -8.4 71 -12.7 0 0 983.2 NA 0.0000 9999 4000 0 0 0
2017/09/01 05:42:03 BASE 3.89 173 4.37 171 -8.4 70 -12.8 0 0 983.2 NA 0.0000 9999 4070 0 0 0
2017/09/01 05:43:03 BASE 3.90 174 4.37 171 -8.3 70 -12.9 0 0 983.2 NA 0.0000 9999 4070 0 0 0
2017/09/01 05:44:03 BASE 3.53 173 4.37 171 -8.3 70 -12.9 0 0 983.2 NA 0.0000 9999 4070 0 0 0
2017/09/01 05:45:03 BASE 3.22 166 4.37 171 -8.3 70 -12.9 0 0 983.2 NA 0.0000 9999 4000 0 0 0
2017/09/01 05:46:03 BASE 3.22 164 4.37 171 -8.4 70 -12.9 0 0 983.2 NA 0.0000 9999 3940 0 0 0
2017/09/01 05:47:03 BASE 3.20 167 4.37 171 -8.4 70 -12.8 0 0 983.2 NA 0.0000 9999 4100 0 0 0
2017/09/01 05:48:03 BASE 2.74 166 4.37 171 -8.4 71 -12.7 0 0 983.2 NA 0.0000 9999 4070 0 0 0
2017/09/01 05:49:03 BASE 2.39 156 4.37 171 -8.4 71 -12.7 0 0 983.2 NA 0.0000 9999 3900 0 0 0
2017/09/01 05:50:03 BASE 2.48 151 4.37 171 -8.5 72 -12.6 0 0 983.2 NA 0.0000 9999 3840 0 0 0
2017/09/01 05:51:04 BASE 2.73 153 4.37 171 -8.5 73 -12.5 0 0 983.2 NA 0.0000 9999 3640 0 0 0
2017/09/01 05:52:03 BASE 3.05 154 4.01 172 -8.5 73 -12.5 0 0 983.2 NA 0.0000 9999 3940 0 0 0
2017/09/01 05:53:04 BASE 2.99 158 3.76 163 -8.5 73 -12.4 0 0 983.2 NA 0.0000 9999 3870 0 0 0
2017/09/01 05:54:03 BASE 2.73 162 3.76 163 -8.5 74 -12.4 0 0 983.3 NA 0.0000 9999 3770 0 0 0
2017/09/01 05:55:03 BASE 2.49 160 3.76 163 -8.5 74 -12.3 0 0 983.3 NA 0.0000 9999 3840 0 0 0
2017/09/01 05:56:03 BASE 2.30 165 3.76 163 -8.5 73 -12.4 0 0 983.3 NA 0.0000 9999 3970 0 0 0
2017/09/01 05:57:04 BASE 2.29 169 3.76 163 -8.4 73 -12.4 0 0 983.3 NA 0.0000 9999 3940 0 0 0
2017/09/01 05:58:03 BASE 2.23 166 3.76 163 -8.4 72 -12.5 0 0 983.3 NA 0.0000 9999 3900 0 0 0
2017/09/01 05:59:04 BASE 2.41 172 3.76 163 -8.4 72 -12.5 0 0 983.3 NA 0.0000 9999 3710 0 0 0
2017/09/01 06:00:03 BASE 2.85 179 3.76 191 -8.4 72 -12.6 0 0 983.3 NA 0.0000 9999 3740 0 0 0
2017/09/01 06:01:04 BASE 3.11 182 3.76 191 -8.4 72 -12.6 0 0 983.3 NA 0.0000 9999 3940 0 0 0
2017/09/01 06:02:03 BASE 2.99 181 3.76 191 -8.3 71 -12.6 0 0 983.3 NA 0.0000 9999 3770 0 0 0
2017/09/01 06:03:03 BASE 2.64 184 3.76 191 -8.3 71 -12.7 0 0 983.3 NA 0.0000 9999 3970 0 0 0
2017/09/01 06:04:04 BASE 2.57 186 3.76 191 -8.3 70 -12.7 0 0 983.3 NA 0.0000 9999 3940 0 0 0
2017/09/01 06:05:03 BASE 2.79 181 3.76 191 -8.2 70 -12.8 0 0 983.3 NA 0.0000 9999 3640 0 0 0
2017/09/01 06:06:03 BASE 2.97 173 3.76 191 -8.2 69 -12.9 0 0 983.3 NA 0.0000 9999 3870 0 0 0
2017/09/01 06:07:04 BASE 2.99 171 3.76 191 -8.2 69 -12.9 0 0 983.4 NA 0.0000 9999 3840 0 0 0
2017/09/01 06:08:03 BASE 2.73 172 3.76 191 -8.2 69 -12.9 0 0 983.4 NA 0.0000 9999 3870 0 0 0
2017/09/01 06:09:04 BASE 2.63 172 3.76 191 -8.3 69 -12.9 0 0 983.4 NA 0.0000 9999 3970 0 0 0
2017/09/01 06:10:03 BASE 2.56 166 3.65 190 -8.3 69 -12.9 0 0 983.3 NA 0.0000 9999 3900 0 0 0
2017/09/01 06:11:03 BASE 2.21 155 3.60 198 -8.3 70 -12.9 0 0 983.3 NA 0.0000 9999 4040 4660 0 0
2017/09/01 06:12:03 BASE 2.22 146 3.60 198 -8.4 70 -12.8 0 0 983.2 NA 0.0000 9999 4560 0 0 0
2017/09/01 06:13:04 BASE 2.31 140 3.60 198 -8.4 71 -12.8 0 0 983.2 NA 0.0000 9999 4560 0 0 0
2017/09/01 06:14:04 BASE 2.21 133 3.60 198 -8.4 71 -12.7 0 0 983.2 NA 0.0000 9999 4430 0 0 0
2017/09/01 06:15:03 BASE 2.29 130 3.55 175 -8.4 71 -12.7 0 0 983.2 NA 0.0000 9999 4400 0 0 0
2017/09/01 06:16:03 BASE 2.38 128 3.24 162 -8.4 71 -12.7 0 0 983.3 NA 0.0000 9999 4530 0 0 0
2017/09/01 06:17:04 BASE 2.28 122 3.04 175 -8.5 71 -12.7 0 0 983.3 NA 0.0000 9999 4490 0 0 0
2017/09/01 06:18:03 BASE 2.54 127 3.24 137 -8.5 72 -12.7 0 0 983.3 NA 0.0000 9999 4490 0 0 0
2017/09/01 06:19:03 BASE 2.97 135 3.34 138 -8.5 72 -12.6 0 0 983.3 NA 0.0000 9999 4460 0 0 0
2017/09/01 06:20:03 BASE 3.02 141 3.34 138 -8.4 72 -12.6 0 0 983.3 NA 0.0000 9999 4430 0 0 0
2017/09/01 06:21:04 BASE 2.72 144 3.34 138 -8.4 72 -12.6 0 0 983.3 NA 0.0000 9999 4400 0 0 0
2017/09/01 06:22:03 BASE 2.53 145 3.34 138 -8.4 71 -12.7 0 0 983.4 NA 0.0000 9999 4430 0 0 0
2017/09/01 06:23:03 BASE 2.69 151 3.34 138 -8.4 71 -12.7 0 0 983.4 NA 0.0000 9999 4460 0 0 0
2017/09/01 06:24:03 BASE 2.48 157 3.34 138 -8.3 71 -12.7 0 0 983.4 NA 0.0000 9999 4430 0 0 0
2017/09/01 06:25:03 BASE 2.42 156 3.34 138 -8.3 70 -12.7 0 0 983.4 NA 0.0000 9999 4430 0 0 0
2017/09/01 06:26:03 BASE 2.28 142 3.34 138 -8.3 70 -12.9 0 0 983.4 NA 0.0000 9999 4430 0 0 0
2017/09/01 06:27:03 BASE 1.74 135 3.34 138 -8.4 70 -12.9 0 0 983.4 NA 0.0000 9999 4530 0 0 0
2017/09/01 06:28:03 BASE 1.58 139 3.34 138 -8.4 70 -12.9 0 0 983.4 NA 0.0000 9999 4490 0 0 0
2017/09/01 06:29:04 BASE 1.85 143 3.29 145 -8.5 70 -13.0 0 0 983.4 NA 0.0000 9999 4490 0 0 0
2017/09/01 06:30:03 BASE 2.22 153 3.09 153 -8.5 71 -12.9 0 0 983.4 NA 0.0000 9999 4490 0 0 0
2017/09/01 06:31:04 BASE 2.41 157 3.09 153 -8.5 71 -12.8 0 0 983.4 NA 0.0000 9999 4590 0 0 0
2017/09/01 06:32:03 BASE 2.39 153 3.09 153 -8.5 72 -12.7 0 0 983.5 NA 0.0000 9999 4530 0 0 0
2017/09/01 06:33:03 BASE 2.56 150 3.19 147 -8.4 72 -12.6 0 0 983.4 NA 0.0000 9999 4460 0 0 0
2017/09/01 06:34:04 BASE 2.62 146 3.19 147 -8.4 72 -12.6 0 0 983.4 NA 0.0000 9999 4460 0 0 0
2017/09/01 06:35:03 BASE 2.39 140 3.19 147 -8.4 72 -12.5 0 0 983.4 NA 0.0000 9999 4690 0 0 0
2017/09/01 06:36:03 BASE 2.69 129 3.34 116 -8.4 72 -12.5 0 0 983.3 NA 0.0000 9999 4660 0 0 0
2017/09/01 06:37:04 BASE 2.81 128 3.34 116 -8.4 72 -12.6 0 0 983.3 NA 0.0000 9999 4590 0 0 0
2017/09/01 06:38:03 BASE 2.37 127 3.34 116 -8.4 71 -12.6 0 0 983.3 NA 0.0000 9999 4490 0 0 0
2017/09/01 06:39:04 BASE 2.33 119 3.34 116 -8.4 71 -12.7 0 0 983.3 NA 0.0000 9999 4430 0 0 0
2017/09/01 06:40:03 BASE 2.52 118 3.34 116 -8.4 71 -12.8 0 0 983.3 NA 0.0000 9999 4400 0 0 0
2017/09/01 06:41:03 BASE 2.51 118 3.34 116 -8.3 70 -12.8 0 0 983.3 NA 0.0000 9999 4460 0 0 0
2017/09/01 06:42:03 BASE 2.45 117 3.34 116 -8.3 70 -12.9 0 0 983.2 NA 0.0000 9999 4530 0 0 0
2017/09/01 06:43:03 BASE 2.65 114 3.34 116 -8.3 69 -13.0 0 0 983.2 NA 0.0000 9999 4460 0 0 0
2017/09/01 06:44:03 BASE 2.81 114 3.34 116 -8.3 69 -13.0 0 0 983.2 NA 0.0000 9999 4490 0 0 0
2017/09/01 06:45:03 BASE 3.01 114 3.91 120 -8.3 68 -13.1 0 0 983.2 NA 0.0000 9999 4430 0 0 0
2017/09/01 06:46:03 BASE 3.19 118 3.91 120 -8.3 68 -13.1 0 0 983.2 NA 0.0000 9999 4400 0 0 0
2017/09/01 06:47:03 BASE 3.04 120 3.91 120 -8.3 68 -13.2 0 0 983.2 NA 0.0000 9999 4630 0 0 0
2017/09/01 06:48:03 BASE 3.24 121 4.01 126 -8.3 68 -13.2 0 0 983.2 NA 0.0000 9999 4560 0 0 0
2017/09/01 06:49:03 BASE 3.51 123 4.01 126 -8.3 67 -13.3 0 0 983.2 NA 0.0000 9999 4690 0 0 0
2017/09/01 06:50:03 BASE 3.69 127 4.22 124 -8.3 67 -13.4 0 0 983.2 NA 0.0000 9999 4490 0 0 0
2017/09/01 06:51:03 BASE 3.54 130 4.22 124 -8.3 66 -13.5 0 0 983.2 NA 0.0000 9999 4560 0 0 0
2017/09/01 06:52:03 BASE 3.24 130 4.22 124 -8.3 66 -13.6 0 0 983.2 NA 0.0000 9999 4560 0 0 0
2017/09/01 06:53:03 BASE 3.47 135 4.22 124 -8.3 65 -13.6 0 0 983.2 NA 0.0000 9999 4590 0 0 0
2017/09/01 06:54:03 BASE 3.25 133 4.22 124 -8.3 65 -13.7 0 0 983.2 NA 0.0000 9999 4790 0 0 0
2017/09/01 06:55:04 BASE 2.67 124 4.22 124 -8.4 65 -13.8 0 0 983.2 NA 0.0000 9999 4820 0 0 0
2017/09/01 06:56:03 BASE 2.41 115 4.22 124 -8.4 65 -13.8 0 0 983.2 NA 0.0000 9999 4760 0 0 0
2017/09/01 06:57:03 BASE 2.43 107 4.22 124 -8.5 65 -13.8 0 0 983.2 NA 0.0000 9999 4660 0 0 0
2017/09/01 06:58:03 BASE 2.64 101 4.22 124 -8.5 66 -13.7 0 0 983.3 NA 0.0000 9999 4760 0 0 0
2017/09/01 06:59:04 BASE 2.58 95 4.22 124 -8.6 67 -13.6 0 0 983.3 NA 0.0000 9999 4690 0 0 0
2017/09/01 07:00:03 BASE 2.45 96 3.91 147 -8.6 68 -13.5 0 0 983.3 NA 0.0000 9999 4660 0 0 0
2017/09/01 07:01:03 BASE 2.21 100 3.91 147 -8.6 68 -13.4 0 0 983.4 NA 0.0000 9999 4660 0 0 0
2017/09/01 07:02:03 BASE 1.89 97 3.91 147 -8.6 68 -13.3 0 0 983.4 NA 0.0000 9999 4690 0 0 0
2017/09/01 07:03:03 BASE 1.77 95 3.34 133 -8.5 68 -13.3 0 0 983.4 NA 0.0000 9999 4590 0 0 0
2017/09/01 07:04:03 BASE 0.97 98 3.09 108 -8.5 68 -13.4 0 0 983.5 NA 0.0000 9999 4590 0 0 0
2017/09/01 07:05:04 BASE 0.39 102 3.09 108 -8.4 67 -13.4 0 0 983.5 NA 0.0000 9999 4560 0 0 0
2017/09/01 07:06:03 BASE 0.32 103 3.09 108 -8.4 67 -13.5 0 0 983.5 NA 0.0000 9999 4560 0 0 0
2017/09/01 07:07:03 BASE 0.04 95 3.09 108 -8.4 66 -13.6 0 0 983.5 NA 0.0000 9999 4590 0 0 0
2017/09/01 07:08:03 BASE 0.00 81 3.04 102 -8.3 66 -13.6 0 0 983.5 NA 0.0000 9999 4530 0 0 0
2017/09/01 07:09:04 BASE 0.00 75 2.73 105 -8.3 66 -13.5 0 0 983.5 NA 0.0000 9999 4430 0 0 0
2017/09/01 07:10:03 BASE 0.00 84 2.21 109 -8.3 66 -13.5 0 0 983.5 NA 0.0000 9999 4430 0 0 0
2017/09/01 07:11:03 BASE 0.00 104 2.06 104 -8.2 65 -13.5 0 0 983.5 NA 0.0000 9999 4430 0 0 0
2017/09/01 07:12:03 BASE 0.00 93 2.06 104 -8.2 65 -13.6 0 0 983.5 NA 0.0000 9999 4530 0 0 0
2017/09/01 07:13:05 BASE 0.00 68 1.44 86 -8.1 64 -13.7 0 0 983.5 NA 0.0000 9999 4430 0 0 0
2017/09/01 07:14:04 BASE 0.05 90 1.18 103 -8.1 64 -13.7 0 0 983.5 NA 0.0000 9999 4490 0 0 0
2017/09/01 07:15:04 BASE 0.05 92 1.08 102 -8.1 63 -13.8 0 0 983.5 NA 0.0000 9999 4490 0 0 0
2017/09/01 07:16:03 BASE 0.00 60 1.08 102 -8.1 63 -13.9 0 0 983.5 NA 0.0000 9999 4460 0 0 0
2017/09/01 07:17:04 BASE 0.00 53 1.08 102 -8.1 63 -14.0 0 0 983.5 NA 0.0000 9999 4460 0 0 0
2017/09/01 07:18:03 BASE 0.00 59 1.08 102 -8.1 62 -14.0 0 0 983.5 NA 0.0000 9999 4530 0 0 0
2017/09/01 07:19:04 BASE 0.00 58 1.08 102 -8.1 62 -14.0 0 0 983.5 NA 0.0000 9999 4460 0 0 0
2017/09/01 07:20:03 BASE 0.10 51 1.29 56 -8.1 62 -14.1 0 0 983.5 NA 0.0000 9999 4400 0 0 0
2017/09/01 07:21:03 BASE 0.14 56 1.29 56 -8.1 62 -14.2 0 0 983.5 NA 0.0000 9999 4430 0 0 0
2017/09/01 07:22:03 BASE 0.44 55 1.29 56 -8.1 62 -14.2 0 0 983.5 NA 0.0000 9999 4430 0 0 0
2017/09/01 07:23:04 BASE 1.04 50 1.54 50 -8.2 62 -14.2 0 0 983.5 NA 0.0000 9999 4590 0 0 0
2017/09/01 07:24:03 BASE 1.34 52 1.54 51 -8.2 62 -14.2 0 0 983.5 NA 0.0000 9999 4490 0 0 0
2017/09/01 07:25:03 BASE 1.37 49 1.54 51 -8.2 62 -14.2 0 0 983.5 NA 0.0000 9999 4530 0 0 0
2017/09/01 07:26:03 BASE 1.16 55 1.54 51 -8.2 62 -14.2 0 0 983.5 NA 0.0000 9999 4530 0 0 0
2017/09/01 07:27:03 BASE 0.61 61 1.54 51 -8.3 62 -14.2 0 0 983.5 NA 0.0000 9999 4690 0 0 0
2017/09/01 07:28:03 BASE 0.13 69 1.54 51 -8.3 62 -14.3 0 0 983.5 NA 0.0000 9999 4790 0 0 0
2017/09/01 07:29:04 BASE 0.04 87 1.54 51 -8.3 62 -14.3 0 0 983.5 NA 0.0000 9999 4760 0 0 0
2017/09/01 07:30:03 BASE 0.04 86 1.54 51 -8.2 62 -14.2 0 0 983.5 NA 0.0000 9999 4590 0 0 0
2017/09/01 07:31:03 BASE 0.00 70 1.54 51 -8.2 62 -14.2 0 0 983.5 NA 0.0000 9999 4490 0 0 0
2017/09/01 07:32:03 BASE 0.00 47 1.54 51 -8.2 61 -14.3 0 0 983.5 NA 0.0000 9999 4630 0 0 0
2017/09/01 07:33:03 BASE 0.00 32 1.54 51 -8.1 61 -14.3 0 0 983.5 NA 0.0000 9999 0 0 0 0
2017/09/01 07:34:03 BASE 0.00 43 1.44 41 -8.1 61 -14.3 0 0 983.5 NA 0.0000 9999 0 0 0 0
2017/09/01 07:35:03 BASE 0.00 51 1.23 53 -8.1 61 -14.3 0 0 983.5 NA 0.0000 9999 0 0 0 0
2017/09/01 07:36:03 BASE 0.00 44 1.08 62 -8.1 61 -14.3 0 0 983.4 NA 0.0000 9999 0 0 0 0
2017/09/01 07:37:03 BASE 0.00 21 1.03 107 -8.1 61 -14.3 0 0 983.4 NA 0.0000 9999 0 0 0 0
2017/09/01 07:38:03 BASE 0.00 24 1.03 107 -8.1 61 -14.3 0 0 983.4 NA 0.0000 9999 0 0 0 0
2017/09/01 07:39:04 BASE 0.00 31 M M -8.1 61 -14.3 0 0 983.4 NA 0.0000 9999 0 0 0 0
2017/09/01 07:40:03 BASE 0.00 12 M M -8.1 61 -14.3 0 0 983.4 NA 0.0000 9999 0 0 0 0
2017/09/01 07:41:03 BASE 0.00 355 M M -8.1 61 -14.3 0 0 983.4 NA 0.0000 9999 0 0 0 0
2017/09/01 07:42:03 BASE 0.00 327 M M -8.1 61 -14.3 0 0 983.4 NA 0.0000 9999 0 0 0 0
2017/09/01 07:43:03 BASE 0.00 334 M M -8.0 61 -14.3 0 0 983.4 NA 0.0000 9999 0 0 0 0
2017/09/01 07:44:03 BASE 0.00 15 M M -8.1 60 -14.4 0 0 983.4 NA 0.0000 9999 0 0 0 0
2017/09/01 07:45:03 BASE 0.48 33 1.59 40 -8.1 60 -14.4 0 0 983.4 NA 0.0000 9999 4890 0 0 0
2017/09/01 07:46:03 BASE 0.57 39 1.59 40 -8.1 60 -14.4 0 0 983.3 NA 0.0000 9999 4790 0 0 0
2017/09/01 07:47:03 BASE 0.09 53 1.59 40 -8.1 60 -14.4 0 0 983.3 NA 0.0000 9999 4660 0 0 0
2017/09/01 07:48:03 BASE 0.00 63 1.59 40 -8.1 60 -14.4 0 0 983.4 NA 0.0000 9999 4790 0 0 0
2017/09/01 07:49:04 BASE 0.00 63 1.59 40 -8.1 60 -14.4 0 0 983.4 NA 0.0000 9999 4720 0 0 0
2017/09/01 07:50:03 BASE 0.14 73 1.59 40 -8.1 60 -14.5 0 0 983.5 NA 0.0000 9999 4690 0 0 0
2017/09/01 07:51:03 BASE 0.49 79 1.59 40 -8.2 60 -14.6 0 0 983.5 NA 0.0000 9999 4690 0 0 0
2017/09/01 07:52:03 BASE 0.77 69 1.59 40 -8.4 60 -14.7 0 0 983.5 NA 0.0000 9999 4660 0 0 0
2017/09/01 07:53:04 BASE 1.13 51 1.65 43 -8.5 61 -14.7 0 0 983.5 NA 0.0000 9999 4760 0 0 0
2017/09/01 07:54:03 BASE 1.51 41 1.85 34 -8.6 61 -14.8 0 0 983.5 NA 0.0000 9999 4590 0 0 0
2017/09/01 07:55:03 BASE 1.57 41 1.85 34 -8.8 62 -14.8 0 0 983.5 NA 0.0000 9999 4630 0 0 0
2017/09/01 07:56:03 BASE 1.55 42 1.85 45 -8.8 62 -14.7 0 0 983.5 NA 0.0000 9999 4560 0 0 0
2017/09/01 07:57:03 BASE 1.75 46 2.16 44 -8.8 63 -14.7 0 0 983.4 NA 0.0000 9999 4590 0 0 0
2017/09/01 07:58:03 BASE 2.03 56 2.42 56 -8.9 63 -14.7 0 0 983.4 NA 0.0000 9999 4630 0 0 0
2017/09/01 07:59:04 BASE 2.30 65 2.78 69 -8.9 63 -14.7 0 0 983.4 NA 0.0000 9999 4460 0 0 0
2017/09/01 08:00:03 BASE 2.64 74 3.24 76 -8.9 63 -14.8 0 0 983.4 NA 0.0000 9999 4690 0 0 0
2017/09/01 08:01:03 BASE 2.90 81 3.24 87 -8.9 62 -14.8 0 0 983.4 NA 0.0000 9999 0 0 0 0
2017/09/01 08:02:03 BASE 2.55 88 3.24 87 -8.9 62 -14.8 0 0 983.4 NA 0.0000 9999 0 0 0 0
2017/09/01 08:03:03 BASE 2.16 88 3.24 87 -8.8 62 -14.8 0 0 983.3 NA 0.0000 9999 0 0 0 0
2017/09/01 08:04:03 BASE 2.47 85 3.24 87 -8.7 61 -14.8 0 0 983.3 NA 0.0000 9999 0 0 0 0
2017/09/01 08:05:04 BASE 3.06 85 3.76 88 -8.6 61 -14.9 0 0 983.3 NA 0.0000 9999 4590 0 0 0
2017/09/01 08:06:03 BASE 3.43 84 3.91 84 -8.6 60 -15.0 0 0 983.2 NA 0.0000 9999 4300 0 0 0
2017/09/01 08:07:04 BASE 3.39 86 4.12 72 -8.7 60 -15.1 0 0 983.2 NA 0.0000 9999 4330 0 0 0
2017/09/01 08:08:03 BASE 3.41 80 4.12 72 -8.9 60 -15.3 0 0 983.3 NA 0.0000 9999 4330 0 0 0
2017/09/01 08:09:04 BASE 3.39 75 4.12 72 -9.1 61 -15.3 0 0 983.3 NA 0.0000 9999 4330 0 0 0
2017/09/01 08:10:03 BASE 2.90 75 4.12 72 -9.3 62 -15.3 0 0 983.4 NA 0.0000 9999 4460 0 0 0
2017/09/01 08:11:04 BASE 2.25 74 4.12 72 -9.3 63 -15.1 0 0 983.5 NA 0.0000 9999 4400 0 0 0
2017/09/01 08:12:03 BASE 1.69 75 4.12 72 -9.3 63 -14.9 0 0 983.5 NA 0.0000 9999 4400 0 0 0
2017/09/01 08:13:05 BASE 1.41 61 4.12 72 -9.1 64 -14.8 0 0 983.5 NA 0.0000 9999 4430 0 0 0
2017/09/01 08:14:03 BASE 1.47 48 4.12 72 -8.9 63 -14.6 0 0 983.5 NA 0.0000 9999 4430 0 0 0
2017/09/01 08:15:03 BASE 1.59 44 4.12 72 -8.7 62 -14.6 0 0 983.5 NA 0.0000 9999 4400 0 0 0
2017/09/01 08:16:03 BASE 1.90 42 4.12 72 -8.5 61 -14.6 0 0 983.5 NA 0.0000 9999 4270 0 0 0
2017/09/01 08:17:03 BASE 2.21 44 3.76 76 -8.5 61 -14.8 0 0 983.5 NA 0.0000 9999 4200 0 0 0
2017/09/01 08:18:03 BASE 2.56 46 3.65 75 -8.6 60 -14.9 0 0 983.5 NA 0.0000 9999 4200 0 0 0
2017/09/01 08:19:03 BASE 2.76 46 3.19 73 -8.6 61 -14.9 0 0 983.5 NA 0.0000 9999 4130 0 0 0
2017/09/01 08:20:03 BASE 2.84 47 3.09 52 -8.7 61 -14.9 0 0 983.5 NA 0.0000 9999 4230 0 0 0
2017/09/01 08:21:04 BASE 3.08 52 3.50 53 -8.8 61 -14.8 0 0 983.5 NA 0.0000 9999 4300 0 0 0
2017/09/01 08:22:03 BASE 3.27 57 3.60 61 -8.8 62 -14.8 0 0 983.5 NA 0.0000 9999 4330 0 0 0
2017/09/01 08:23:03 BASE 3.33 58 3.60 61 -8.8 62 -14.7 0 0 983.4 NA 0.0000 9999 4530 0 0 0
2017/09/01 08:24:03 BASE 3.11 58 3.60 61 -8.8 63 -14.7 0 0 983.4 NA 0.0000 9999 4530 0 0 0
2017/09/01 08:25:03 BASE 3.31 60 4.12 65 -8.8 63 -14.6 0 0 983.5 NA 0.0000 9999 4360 0 0 0
2017/09/01 08:26:03 BASE 3.46 60 4.12 65 -8.8 63 -14.6 0 0 983.5 NA 0.0000 9999 4330 0 0 0
2017/09/01 08:27:03 BASE 2.80 60 4.12 65 -8.7 63 -14.6 0 0 983.5 NA 0.0000 9999 4460 0 0 0
2017/09/01 08:28:03 BASE 2.58 62 4.12 65 -8.7 62 -14.6 0 0 983.5 NA 0.0000 9999 4330 0 0 0
2017/09/01 08:29:04 BASE 2.89 63 4.12 65 -8.6 62 -14.6 0 0 983.5 NA 0.0000 9999 4270 0 0 0
2017/09/01 08:30:03 BASE 3.27 62 4.12 65 -8.6 62 -14.6 0 0 983.5 NA 0.0000 9999 4300 0 0 0
2017/09/01 08:31:04 BASE 3.34 58 4.12 65 -8.6 62 -14.7 0 0 983.5 NA 0.0000 9999 4300 0 0 0
2017/09/01 08:32:03 BASE 3.21 57 4.12 65 -8.5 61 -14.6 0 0 983.5 NA 0.0000 9999 4200 0 0 0
2017/09/01 08:33:03 BASE 3.37 58 4.12 65 -8.5 61 -14.6 0 0 983.5 NA 0.0000 9999 4430 0 0 0
2017/09/01 08:34:03 BASE 3.53 58 4.12 65 -8.5 61 -14.7 0 0 983.5 NA 0.0000 9999 4360 0 0 0
2017/09/01 08:35:03 BASE 3.36 58 3.96 56 -8.5 61 -14.7 0 0 983.4 NA 0.0000 9999 4400 0 0 0
2017/09/01 08:36:03 BASE 3.01 59 3.96 56 -8.5 61 -14.7 0 0 983.4 NA 0.0000 9999 4330 0 0 0
2017/09/01 08:37:03 BASE 3.11 61 4.12 53 -8.6 61 -14.7 0 0 983.4 NA 0.0000 9999 4230 0 0 0
2017/09/01 08:38:04 BASE 3.60 59 4.12 55 -8.6 62 -14.6 0 0 983.5 NA 0.0000 9999 4200 0 0 0
2017/09/01 08:39:03 BASE 3.47 57 4.12 55 -8.5 62 -14.6 0 0 983.5 NA 0.0000 9999 4270 0 0 0
2017/09/01 08:40:03 BASE 3.05 62 4.12 55 -8.5 62 -14.6 0 0 983.5 NA 0.0000 9999 4200 0 0 0
2017/09/01 08:41:03 BASE 3.07 64 4.12 55 -8.5 62 -14.5 0 0 983.5 NA 0.0000 9999 4040 0 0 0
2017/09/01 08:42:03 BASE 3.23 63 4.12 55 -8.4 61 -14.5 0 0 983.5 NA 0.0000 9999 4000 0 0 0
2017/09/01 08:43:04 BASE 3.48 64 4.12 55 -8.4 61 -14.6 0 0 983.5 NA 0.0000 9999 4100 0 0 0
2017/09/01 08:44:03 BASE 3.59 66 4.12 55 -8.4 61 -14.6 0 0 983.5 NA 0.0000 9999 4270 0 0 0
2017/09/01 08:45:03 BASE 3.48 68 4.12 55 -8.4 61 -14.6 0 0 983.5 NA 0.0000 9999 4400 0 0 0
2017/09/01 08:46:03 BASE 3.50 67 4.12 55 -8.5 61 -14.6 0 0 983.5 NA 0.0000 9999 4360 0 0 0
2017/09/01 08:47:03 BASE 3.64 66 4.12 55 -8.5 61 -14.6 0 0 983.5 NA 0.0000 9999 4330 0 0 0
2017/09/01 08:48:03 BASE 3.57 63 3.91 61 -8.5 62 -14.6 0 0 983.5 NA 0.0000 9999 4330 0 0 0
2017/09/01 08:49:04 BASE 3.48 62 4.01 65 -8.5 62 -14.5 0 0 983.5 NA 0.0000 9999 4330 0 0 0
2017/09/01 08:50:03 BASE 3.47 61 4.01 65 -8.5 62 -14.5 0 0 983.5 NA 0.0000 9999 4270 0 0 0
2017/09/01 08:51:04 BASE 3.65 62 4.27 59 -8.5 62 -14.5 0 0 983.4 NA 0.0000 9999 4170 0 0 0
2017/09/01 08:52:03 BASE 3.87 64 4.32 62 -8.5 62 -14.5 0 0 983.5 NA 0.0000 9999 4100 0 0 0
2017/09/01 08:53:03 BASE 3.91 64 4.32 62 -8.4 61 -14.6 0 0 983.5 NA 0.0000 9999 4200 0 0 0
2017/09/01 08:54:04 BASE 4.01 62 4.58 61 -8.4 61 -14.6 0 0 983.5 NA 0.0000 9999 4300 0 0 0
2017/09/01 08:55:03 BASE 4.34 61 4.84 60 -8.4 61 -14.6 0 0 983.5 NA 0.0000 9999 4300 0 0 0
2017/09/01 08:56:03 BASE 4.66 60 4.99 57 -8.4 61 -14.6 0 0 983.4 NA 0.0000 9999 4200 0 0 0
2017/09/01 08:57:03 BASE 4.61 59 5.04 65 -8.3 60 -14.7 0 0 983.4 NA 0.0000 9999 4270 0 0 0
2017/09/01 08:58:03 BASE 4.42 59 5.04 65 -8.3 60 -14.7 0 0 983.4 NA 0.0000 9999 4170 0 0 0
2017/09/01 08:59:04 BASE 4.42 56 5.04 65 -8.4 60 -14.7 0 0 983.4 NA 0.0000 9999 4170 0 0 0
2017/09/01 09:00:03 BASE 4.63 54 5.25 47 -8.4 61 -14.7 0 0 983.4 NA 0.0000 9999 3970 0 0 0
2017/09/01 09:01:04 BASE 4.69 53 5.25 53 -8.4 61 -14.6 0 0 983.4 NA 0.0000 9999 4170 0 0 0
2017/09/01 09:02:03 BASE 4.60 52 5.25 53 -8.4 61 -14.5 0 0 983.4 NA 0.0000 9999 4270 0 0 0
2017/09/01 09:03:03 BASE 4.68 51 5.25 53 -8.4 62 -14.4 0 0 983.4 NA 0.0000 9999 4130 0 0 0
2017/09/01 09:04:03 BASE 4.81 52 5.40 53 -8.4 62 -14.3 0 0 983.4 NA 0.0000 9999 3970 0 0 0
2017/09/01 09:05:03 BASE 4.90 52 5.40 53 -8.4 63 -14.2 0 0 983.4 NA 0.0000 9999 4000 0 0 0
2017/09/01 09:06:03 BASE 5.06 51 5.50 52 -8.3 63 -14.2 0 0 983.4 NA 0.0000 9999 4040 0 0 0
2017/09/01 09:07:03 BASE 5.12 49 5.56 49 -8.3 63 -14.2 0 0 983.4 NA 0.0000 9999 4000 0 0 0
2017/09/01 09:08:03 BASE 5.20 51 5.97 65 -8.3 62 -14.2 0 0 983.3 NA 0.0000 9999 4040 0 0 0
2017/09/01 09:09:03 BASE 5.59 51 6.28 51 -8.3 62 -14.2 0 0 983.3 NA 0.0000 9999 4200 0 0 0
2017/09/01 09:10:03 BASE 5.91 50 6.58 46 -8.3 62 -14.2 0 0 983.3 NA 0.0000 9999 4070 0 0 0
2017/09/01 09:11:03 BASE 5.94 50 6.58 46 -8.2 62 -14.2 0 0 983.3 NA 0.0000 9999 4070 0 0 0
2017/09/01 09:12:03 BASE 5.85 51 6.58 46 -8.2 62 -14.3 0 0 983.3 NA 0.0000 9999 4100 0 0 0
2017/09/01 09:13:05 BASE 5.90 56 6.58 46 -8.1 61 -14.3 0 0 983.3 NA 0.0000 9999 4170 0 0 0
2017/09/01 09:14:03 BASE 6.21 53 6.94 51 -8.1 61 -14.3 0 0 983.3 NA 0.0000 9999 4100 0 0 0
2017/09/01 09:15:03 BASE 6.31 50 6.94 51 -8.1 60 -14.4 0 0 983.3 NA 0.0000 9999 4230 0 0 0
2017/09/01 09:16:03 BASE 5.91 49 6.94 51 -8.0 60 -14.4 0 0 983.3 NA 0.0000 9999 4000 0 0 0
2017/09/01 09:17:04 BASE 5.67 45 6.94 51 -8.0 60 -14.4 0 0 983.3 NA 0.0000 9999 4040 0 0 0
2017/09/01 09:18:03 BASE 5.71 45 6.94 51 -8.0 60 -14.5 0 0 983.3 NA 0.0000 9999 4100 0 0 0
2017/09/01 09:19:04 BASE 5.71 43 6.94 51 -7.9 59 -14.5 0 0 983.3 NA 0.0000 9999 4170 0 0 0
2017/09/01 09:20:03 BASE 5.47 40 6.94 51 -7.9 59 -14.5 0 0 983.3 NA 0.0000 9999 4400 0 0 0
2017/09/01 09:21:03 BASE 5.34 37 6.94 51 -8.0 59 -14.5 0 0 983.3 NA 0.0000 9999 4430 0 0 0
2017/09/01 09:22:03 BASE 5.64 35 6.94 51 -8.0 59 -14.5 0 0 983.3 NA 0.0000 9999 4490 0 0 0
2017/09/01 09:23:03 BASE 6.17 34 6.94 34 -8.0 59 -14.5 0 0 983.3 NA 0.0000 9999 4460 0 0 0
2017/09/01 09:24:03 BASE 6.05 32 6.94 34 -8.0 59 -14.6 0 0 983.3 NA 0.0000 9999 4460 0 0 0
2017/09/01 09:25:04 BASE 5.16 36 6.94 34 -8.1 59 -14.6 0 0 983.3 NA 0.0000 9999 4400 0 0 0
2017/09/01 09:26:03 BASE 4.80 42 6.94 34 -8.1 60 -14.6 0 0 983.3 NA 0.0000 9999 4330 0 0 0
2017/09/01 09:27:03 BASE 4.92 43 6.94 34 -8.1 59 -14.6 0 0 983.3 NA 0.0000 9999 4300 0 0 0
2017/09/01 09:28:03 BASE 5.05 46 6.94 34 -8.0 59 -14.6 0 0 983.3 NA 0.0000 9999 4430 0 0 0
2017/09/01 09:29:04 BASE 4.74 47 6.94 34 -8.0 59 -14.7 0 0 983.3 NA 0.0000 9999 4430 0 0 0
2017/09/01 09:30:03 BASE 4.24 45 6.94 34 -8.0 58 -14.7 0 0 983.3 NA 0.0000 9999 4530 0 0 0
2017/09/01 09:31:04 BASE 4.42 45 6.94 34 -7.9 58 -14.8 0 0 983.3 NA 0.0000 9999 4460 0 0 0
2017/09/01 09:32:03 BASE 5.18 39 6.94 34 -7.9 57 -14.9 0 0 983.2 NA 0.0000 9999 4460 0 0 0
2017/09/01 09:33:03 BASE 4.91 32 6.53 32 -7.8 56 -15.0 0 0 983.2 NA 0.0000 9999 4460 0 0 0
2017/09/01 09:34:03 BASE 4.19 37 6.53 32 -7.8 56 -15.1 0 0 983.3 NA 0.0000 9999 4460 0 0 0
2017/09/01 09:35:03 BASE 3.89 44 6.53 32 -7.7 55 -15.1 0 0 983.3 NA 0.0000 9999 0 0 0 0
2017/09/01 09:36:03 BASE 3.56 51 6.53 32 -7.7 55 -15.2 0 0 983.2 NA 0.0000 9999 0 0 0 0
2017/09/01 09:37:03 BASE 3.55 55 6.53 32 -7.7 55 -15.2 0 0 983.2 NA 0.0000 9999 0 0 0 0
2017/09/01 09:38:03 BASE 3.91 53 6.53 32 -7.7 55 -15.2 0 0 983.2 NA 0.0000 9999 0 0 0 0
2017/09/01 09:39:04 BASE 4.08 56 6.53 32 -7.8 55 -15.2 0 0 983.1 NA 0.0000 9999 0 0 0 0
2017/09/01 09:40:03 BASE 4.18 63 6.53 32 -7.8 56 -15.2 0 0 983.1 NA 0.0000 9999 0 0 0 0
2017/09/01 09:41:04 BASE 4.44 69 6.53 32 -7.9 56 -15.2 0 0 983.1 NA 0.0000 9999 0 0 0 0
2017/09/01 09:42:03 BASE 4.30 65 5.09 53 -7.9 56 -15.2 0 0 983.1 NA 0.0000 9999 0 0 0 0
2017/09/01 09:43:03 BASE 4.31 61 5.09 53 -8.0 56 -15.2 0 0 983.1 NA 0.0000 9999 0 0 0 0
2017/09/01 09:44:04 BASE 4.47 62 5.09 53 -8.0 56 -15.2 0 0 983.1 NA 0.0000 9999 0 0 0 0
2017/09/01 09:45:03 BASE 4.60 56 5.45 47 -8.0 56 -15.2 0 0 983.1 NA 0.0000 9999 0 0 0 0
2017/09/01 09:46:03 BASE 4.44 54 5.45 47 -7.9 56 -15.2 0 0 983.1 NA 0.0000 9999 0 0 0 0
2017/09/01 09:47:04 BASE 4.11 56 5.45 47 -7.9 55 -15.3 0 0 983.2 NA 0.0000 9999 0 0 0 0
2017/09/01 09:48:03 BASE 3.95 51 5.45 47 -7.8 55 -15.3 0 0 983.2 NA 0.0000 9999 0 0 0 0
2017/09/01 09:49:04 BASE 3.66 50 5.45 47 -7.8 55 -15.3 0 0 983.2 NA 0.0000 9999 0 0 0 0
2017/09/01 09:50:03 BASE 3.29 56 5.45 47 -7.7 55 -15.3 0 0 983.2 NA 0.0000 9999 0 0 0 0
2017/09/01 09:51:04 BASE 3.22 55 5.45 47 -7.7 55 -15.3 0 0 983.2 NA 0.0000 9999 0 0 0 0
2017/09/01 09:52:03 BASE 3.49 51 5.45 47 -7.7 55 -15.3 0 0 983.2 NA 0.0000 9999 0 0 0 0
2017/09/01 09:53:03 BASE 3.76 52 5.45 47 -7.7 55 -15.2 0 0 983.2 NA 0.0000 9999 0 0 0 0
2017/09/01 09:54:04 BASE 3.67 56 5.45 47 -7.7 55 -15.2 0 0 983.2 NA 0.0000 9999 0 0 0 0
2017/09/01 09:55:03 BASE 3.39 61 5.35 44 -7.6 55 -15.2 0 0 983.2 NA 0.0000 9999 0 0 0 0
2017/09/01 09:56:03 BASE 3.24 67 4.37 64 -7.6 54 -15.2 0 0 983.2 NA 0.0000 9999 0 0 0 0
2017/09/01 09:57:04 BASE 3.39 64 4.32 58 -7.6 54 -15.2 0 0 983.2 NA 0.0000 9999 0 0 0 0
2017/09/01 09:58:03 BASE 3.01 64 4.32 58 -7.5 54 -15.3 0 0 983.2 NA 0.0000 9999 0 0 0 0
2017/09/01 09:59:04 BASE 2.49 67 4.32 58 -7.5 54 -15.3 0 0 983.2 NA 0.0000 9999 0 0 0 0
2017/09/01 10:00:03 BASE 2.45 66 4.32 58 -7.4 54 -15.3 0 0 983.2 NA 0.0000 9999 4040 0 0 0
2017/09/01 10:01:04 BASE 2.30 72 4.32 58 -7.4 53 -15.3 0 0 983.2 NA 0.0000 9999 4040 0 0 0
2017/09/01 10:02:04 BASE 2.43 80 4.32 58 -7.4 53 -15.3 0 0 983.2 NA 0.0000 9999 4100 0 0 0
2017/09/01 10:03:03 BASE 2.52 78 4.32 58 -7.4 53 -15.3 0 0 983.2 NA 0.0000 9999 4070 0 0 0
2017/09/01 10:04:03 BASE 2.63 68 4.32 58 -7.4 53 -15.3 0 0 983.2 NA 0.0000 9999 4040 0 0 0
2017/09/01 10:05:03 BASE 2.67 62 4.32 58 -7.4 54 -15.3 0 0 983.2 NA 0.0000 9999 4130 0 0 0
2017/09/01 10:06:03 BASE 2.61 66 4.32 58 -7.5 54 -15.2 0 0 983.2 NA 0.0000 9999 4100 0 0 0
2017/09/01 10:07:04 BASE 2.68 73 3.19 55 -7.5 54 -15.1 0 0 983.2 NA 0.0000 9999 4130 0 0 0
2017/09/01 10:08:03 BASE 2.87 73 3.60 59 -7.5 55 -15.0 0 0 983.2 NA 0.0000 9999 4130 0 0 0
2017/09/01 10:09:04 BASE 3.18 64 3.86 47 -7.5 55 -14.9 0 0 983.1 NA 0.0000 9999 4200 0 0 0
2017/09/01 10:10:03 BASE 3.26 60 3.86 47 -7.4 55 -14.8 0 0 983.2 NA 0.0000 9999 4130 0 0 0
2017/09/01 10:11:04 BASE 3.20 61 3.86 47 -7.3 55 -14.8 0 0 983.2 NA 0.0000 9999 4230 0 0 0
2017/09/01 10:12:03 BASE 3.25 65 3.86 47 -7.2 55 -14.8 0 0 983.2 NA 0.0000 9999 4200 0 0 0
2017/09/01 10:13:05 BASE 3.02 69 3.86 47 -7.0 54 -14.7 0 0 983.2 NA 0.0000 9999 4170 0 0 0
2017/09/01 10:14:03 BASE 3.11 66 4.01 63 -6.9 54 -14.8 0 0 983.1 NA 0.0000 9999 4170 0 0 0
2017/09/01 10:15:03 BASE 3.62 60 4.32 54 -6.9 54 -14.7 0 0 983.1 NA 0.0000 9999 4200 0 0 0
2017/09/01 10:16:03 BASE 3.87 57 4.48 54 -6.9 54 -14.6 0 0 983.1 NA 0.0000 9999 4200 0 0 0
2017/09/01 10:17:03 BASE 3.95 57 4.53 49 -7.0 55 -14.5 0 0 983.1 NA 0.0000 9999 4130 0 0 0
2017/09/01 10:18:03 BASE 3.87 55 4.53 49 -7.0 56 -14.4 0 0 983.0 NA 0.0000 9999 4200 0 0 0
2017/09/01 10:19:04 BASE 4.03 52 4.53 55 -6.9 56 -14.2 0 0 982.9 NA 0.0000 9999 4130 0 0 0
2017/09/01 10:20:03 BASE 4.31 52 4.94 53 -6.8 56 -14.2 0 0 982.9 NA 0.0000 9999 4070 0 0 0
2017/09/01 10:21:03 BASE 4.56 56 5.30 53 -6.8 56 -14.1 0 0 982.9 NA 0.0000 9999 4040 0 0 0
2017/09/01 10:22:03 BASE 4.96 64 5.50 71 -6.7 56 -14.1 0 0 982.9 NA 0.0000 9999 0 0 0 0
2017/09/01 10:23:04 BASE 5.09 68 5.50 71 -6.7 56 -14.1 0 0 982.8 NA 0.0000 9999 6040 0 0 0
2017/09/01 10:24:04 BASE 4.98 66 5.50 71 -6.7 56 -14.1 0 0 982.8 NA 0.0000 9999 0 0 0 0
2017/09/01 10:25:04 BASE 5.28 65 5.92 56 -6.7 56 -14.1 0 0 982.8 NA 0.0000 9999 0 0 0 0
2017/09/01 10:26:03 BASE 5.39 63 5.92 56 -6.7 55 -14.2 0 0 982.8 NA 0.0000 9999 0 0 0 0
2017/09/01 10:27:04 BASE 5.17 62 5.92 56 -6.7 55 -14.3 0 0 982.7 NA 0.0000 9999 0 0 0 0
2017/09/01 10:28:04 BASE 5.20 62 6.02 65 -6.7 55 -14.3 0 0 982.7 NA 0.0000 9999 0 0 0 0
2017/09/01 10:29:04 BASE 5.45 63 6.02 68 -6.7 55 -14.2 0 0 982.7 NA 0.0000 9999 6400 0 0 0
2017/09/01 10:30:04 BASE 5.83 66 6.33 63 -6.7 55 -14.3 0 0 982.7 NA 0.0000 9999 6000 0 0 0
2017/09/01 10:31:04 BASE 5.92 66 6.33 63 -6.7 55 -14.2 0 0 982.7 NA 0.0000 9999 5870 0 0 0
2017/09/01 10:32:03 BASE 5.90 66 6.38 74 -6.7 55 -14.2 0 0 982.7 NA 0.0000 9999 0 0 0 0
2017/09/01 10:33:04 BASE 5.99 66 6.38 74 -6.7 55 -14.2 0 0 982.7 NA 0.0000 9999 0 0 0 0
2017/09/01 10:34:04 BASE 6.00 64 6.38 74 -6.7 55 -14.3 0 0 982.7 NA 0.0000 9999 5710 0 0 0
2017/09/01 10:35:04 BASE 5.77 64 6.38 74 -6.7 55 -14.2 0 0 982.7 NA 0.0000 9999 5680 0 0 0
2017/09/01 10:36:03 BASE 5.55 66 6.38 74 -6.8 56 -14.2 0 0 982.7 NA 0.0000 9999 5740 0 0 0
2017/09/01 10:37:04 BASE 5.67 66 6.43 61 -6.8 56 -14.1 0 0 982.8 NA 0.0000 9999 6500 0 0 0
2017/09/01 10:38:04 BASE 5.63 66 6.43 61 -6.7 56 -14.1 0 0 982.8 NA 0.0000 9999 7020 0 0 0
2017/09/01 10:39:04 BASE 5.36 67 6.43 61 -6.7 56 -14.0 0 0 982.8 NA 0.0000 9999 7090 0 0 0
2017/09/01 10:40:03 BASE 5.03 69 6.43 61 -6.6 56 -14.0 0 0 982.8 NA 0.0000 9999 7020 0 0 0
2017/09/01 10:41:04 BASE 4.95 67 6.43 61 -6.5 55 -14.0 0 0 982.8 NA 0.0000 9999 6890 0 0 0
2017/09/01 10:42:03 BASE 5.32 68 6.43 61 -6.5 55 -13.9 0 0 982.7 NA 0.0000 9999 6590 0 0 0
2017/09/01 10:43:03 BASE 5.57 69 6.43 61 -6.5 56 -13.9 0 0 982.7 NA 0.0000 9999 6460 0 0 0
2017/09/01 10:44:04 BASE 5.59 67 6.43 61 -6.4 56 -13.8 0 0 982.7 NA 0.0000 9999 4660 0 0 0
2017/09/01 10:45:03 BASE 5.59 64 6.43 61 -6.4 56 -13.8 0 0 982.6 NA 0.0000 9999 4630 0 0 0
2017/09/01 10:46:03 BASE 5.59 65 6.43 61 -6.3 56 -13.8 0 0 982.6 NA 0.0000 9999 7050 0 0 0
2017/09/01 10:47:04 BASE 5.50 66 6.17 68 -6.3 55 -13.7 0 0 982.6 NA 0.0000 9999 7150 0 0 0
2017/09/01 10:48:03 BASE 5.36 68 6.17 68 -6.2 55 -13.8 0 0 982.6 NA 0.0000 9999 7090 0 0 0
2017/09/01 10:49:04 BASE 5.42 68 6.17 68 -6.2 55 -13.8 0 0 982.6 NA 0.0000 9999 4490 0 0 0
2017/09/01 10:50:03 BASE 5.28 68 6.17 68 -6.2 55 -13.7 0 0 982.6 NA 0.0000 9999 4430 0 0 0
2017/09/01 10:51:03 BASE 5.19 68 6.17 68 -6.2 56 -13.7 0 0 982.6 NA 0.0000 9999 6920 0 0 0
2017/09/01 10:52:04 BASE 5.29 67 6.17 68 -6.2 56 -13.6 0 0 982.6 NA 0.0000 9999 4200 0 0 0
2017/09/01 10:53:04 BASE 5.13 68 6.17 68 -6.2 56 -13.6 0 1 982.6 NA 0.0000 9999 4100 0 0 0
2017/09/01 10:54:03 BASE 4.85 69 6.17 68 -6.2 56 -13.5 0 1 982.6 NA 0.0000 9999 4460 0 0 0
2017/09/01 10:55:03 BASE 4.61 71 6.12 64 -6.2 56 -13.5 0 1 982.6 NA 0.0000 9999 4400 0 0 0
2017/09/01 10:56:04 BASE 4.67 74 6.02 62 -6.1 56 -13.5 0 1 982.6 NA 0.0000 9999 4230 0 0 0
2017/09/01 10:57:04 BASE 4.59 75 6.02 62 -6.1 56 -13.5 0 1 982.6 NA 0.0000 9999 4200 0 0 0
2017/09/01 10:58:03 BASE 4.33 73 6.02 62 -6.1 56 -13.4 0 1 982.6 NA 0.0000 9999 4130 5380 0 0
2017/09/01 10:59:04 BASE 4.34 75 5.61 64 -6.1 56 -13.4 0 1 982.6 NA 0.0000 9999 4070 0 0 0
2017/09/01 11:00:03 BASE 4.15 75 5.61 64 -6.0 56 -13.4 0 1 982.6 NA 0.0000 9999 4000 0 0 0
2017/09/01 11:01:04 BASE 3.84 76 5.61 64 -6.0 56 -13.3 1 1 982.6 NA 0.0000 9999 3970 0 0 0
2017/09/01 11:02:03 BASE 4.26 76 5.45 70 -6.0 56 -13.3 1 2 982.5 NA 0.0000 9999 3940 0 0 0
2017/09/01 11:03:03 BASE 4.22 73 5.35 77 -6.0 57 -13.2 1 2 982.5 NA 0.0000 9999 3610 0 0 0
2017/09/01 11:04:04 BASE 3.30 72 5.35 77 -6.0 57 -13.2 1 2 982.6 NA 0.0000 9999 3510 0 0 0
2017/09/01 11:05:03 BASE 2.98 71 5.35 77 -6.0 57 -13.2 1 2 982.6 NA 0.0000 9999 3410 0 0 0
2017/09/01 11:06:03 BASE 2.82 63 5.30 76 -6.1 58 -13.1 1 2 982.6 NA 0.0000 9999 3280 0 0 0
2017/09/01 11:07:03 BASE 2.41 53 5.30 76 -6.1 58 -13.0 1 3 982.6 NA 0.0000 9999 3220 0 0 0
2017/09/01 11:08:03 BASE 2.14 44 5.30 76 -6.1 59 -12.9 1 3 982.7 NA 0.0000 9999 3150 0 0 0
2017/09/01 11:09:04 BASE 1.89 32 5.30 76 -6.2 60 -12.7 1 3 982.7 NA 0.0000 9999 3080 0 0 0
2017/09/01 11:10:03 BASE 0.89 19 5.30 76 -6.2 61 -12.5 1 3 982.7 NA 0.0000 9999 2990 0 0 0
2017/09/01 11:11:03 BASE 0.00 12 5.30 76 -6.3 62 -12.3 1 4 982.7 NA 0.0000 9999 2990 0 0 0
2017/09/01 11:12:03 BASE 0.00 326 4.32 72 -6.3 63 -12.1 1 4 982.7 NA 0.0000 9999 2920 0 0 0
2017/09/01 11:13:05 BASE 0.00 251 3.65 74 -6.3 64 -12.0 1 4 982.7 NA 0.0000 9999 2660 0 0 0
2017/09/01 11:14:04 BASE 0.11 248 3.65 74 -6.4 65 -11.9 1 4 982.7 NA 0.0000 9999 2530 0 0 0
2017/09/01 11:15:03 BASE 0.83 255 2.78 55 -6.4 65 -11.9 1 5 982.8 NA 0.0000 9999 2460 0 0 0
2017/09/01 11:16:03 BASE 2.06 286 2.98 315 -6.5 65 -11.9 2 5 982.7 NA 0.0000 9999 3610 0 0 0
2017/09/01 11:17:03 BASE 2.89 305 3.50 322 -6.6 66 -11.9 2 5 982.8 NA 0.0000 9999 3510 0 0 0
2017/09/01 11:18:03 BASE 3.10 299 4.22 295 -6.7 66 -11.9 2 6 982.8 NA 0.0000 9999 3450 0 0 0
2017/09/01 11:19:04 BASE 2.63 289 4.22 295 -6.8 67 -11.9 2 6 982.8 NA 0.0000 9999 3350 0 0 0
2017/09/01 11:20:03 BASE 1.89 279 4.22 295 -6.8 68 -11.8 2 6 982.8 NA 0.0000 9999 3310 0 0 0
2017/09/01 11:21:03 BASE 1.51 253 4.22 295 -6.8 68 -11.7 2 7 982.8 NA 0.0000 9999 3150 0 0 0
2017/09/01 11:22:03 BASE 1.76 219 4.22 295 -6.8 69 -11.6 2 7 982.8 NA 0.0000 9999 3180 0 0 0
2017/09/01 11:23:03 BASE 2.01 215 4.22 295 -6.8 69 -11.5 2 8 982.8 NA 0.0000 9999 3050 0 0 0
2017/09/01 11:24:03 BASE 2.22 210 4.22 295 -6.7 69 -11.5 3 8 982.8 NA 0.0000 9999 2850 0 0 0
2017/09/01 11:25:03 BASE 2.35 212 4.22 295 -6.6 68 -11.5 3 9 982.8 NA 0.0000 9999 2990 0 0 0
2017/09/01 11:26:03 BASE 1.45 234 4.22 295 -6.5 67 -11.6 3 10 982.8 NA 0.0000 9999 3150 4560 0 0
2017/09/01 11:27:03 BASE 0.94 239 4.22 295 -6.4 66 -11.7 4 10 982.8 NA 0.0000 9999 3150 4530 0 0
2017/09/01 11:28:03 BASE 0.57 295 3.14 188 -6.3 65 -11.9 4 11 982.8 NA 0.0000 9999 2920 0 0 0
2017/09/01 11:29:03 BASE 0.00 344 3.14 188 -6.4 65 -11.9 4 12 982.8 NA 0.0000 9999 2820 0 0 0
2017/09/01 11:30:03 BASE 0.00 357 3.14 188 -6.4 65 -11.8 5 13 982.8 NA 0.0000 9999 3250 0 0 0
2017/09/01 11:31:03 BASE 0.00 35 3.14 188 -6.5 66 -11.7 5 13 982.8 NA 0.0000 9999 2950 0 0 0
2017/09/01 11:32:03 BASE 0.22 50 3.14 188 -6.5 67 -11.7 5 14 982.8 NA 0.0000 9999 2400 0 0 0
2017/09/01 11:33:04 BASE 0.84 62 3.14 188 -6.5 67 -11.6 6 15 982.8 NA 0.0000 9999 2200 0 0 0
2017/09/01 11:34:04 BASE 1.14 82 2.93 213 -6.5 67 -11.6 6 15 982.8 NA 0.0000 9999 2460 0 0 0
2017/09/01 11:35:03 BASE 0.93 104 1.75 86 -6.4 66 -11.7 6 16 982.8 NA 0.0000 9999 2590 0 0 0
2017/09/01 11:36:04 BASE 0.88 108 1.75 86 -6.3 65 -11.8 7 17 982.8 NA 0.0000 9999 1280 0 0 0
2017/09/01 11:37:03 BASE 1.53 104 2.62 113 -6.3 64 -12.0 7 18 982.8 NA 0.0000 9999 2820 0 0 0
2017/09/01 11:38:03 BASE 2.19 108 2.78 115 -6.3 63 -12.1 8 19 982.8 NA 0.0000 9999 2170 0 0 0
2017/09/01 11:39:03 BASE 2.14 102 2.78 115 -6.3 63 -12.1 8 20 982.8 NA 0.0000 9999 2660 0 0 0
2017/09/01 11:40:03 BASE 1.67 93 2.78 115 -6.3 63 -12.1 8 20 982.8 NA 0.0000 9999 2790 0 0 0
2017/09/01 11:41:04 BASE 1.54 93 2.78 115 -6.3 63 -12.1 9 21 982.8 NA 0.0000 9999 2400 0 0 0
2017/09/01 11:42:03 BASE 1.79 99 2.78 115 -6.3 64 -12.1 9 23 982.8 NA 0.0000 9999 2620 0 0 0
2017/09/01 11:43:04 BASE 1.72 102 2.78 115 -6.3 64 -12.0 10 24 982.8 NA 0.0000 9999 3970 0 0 0
2017/09/01 11:44:03 BASE 1.56 106 2.78 115 -6.2 63 -12.1 11 25 982.7 NA 0.0000 9999 3940 0 0 0
2017/09/01 11:45:03 BASE 1.62 116 2.78 115 -6.2 63 -12.1 11 27 982.7 NA 0.0000 9999 2790 0 0 0
2017/09/01 11:46:03 BASE 2.09 126 2.78 115 -6.2 63 -12.1 12 28 982.7 NA 0.0000 9999 2530 0 0 0
2017/09/01 11:47:03 BASE 2.31 128 2.78 115 -6.2 63 -12.1 13 30 982.7 NA 0.0000 9999 2230 0 0 0
2017/09/01 11:48:03 BASE 2.04 112 2.57 124 -6.2 64 -12.0 14 31 982.7 NA 0.0000 9999 2170 0 0 0
2017/09/01 11:49:03 BASE 1.69 86 2.57 124 -6.2 64 -11.9 14 32 982.7 NA 0.0000 9999 1940 2720 0 0
2017/09/01 11:50:03 BASE 1.44 60 2.57 124 -6.3 65 -11.8 14 33 982.7 NA 0.0000 9999 2230 0 0 0
2017/09/01 11:51:03 BASE 1.68 60 2.78 73 -6.3 65 -11.8 15 34 982.7 NA 0.0000 9999 1940 0 0 0
2017/09/01 11:52:04 BASE 2.06 76 2.78 73 -6.2 65 -11.8 15 35 982.6 NA 0.0000 9999 1940 0 0 0
2017/09/01 11:53:04 BASE 2.31 78 3.09 82 -6.2 64 -11.8 15 36 982.6 NA 0.0000 9999 1900 0 0 0
2017/09/01 11:54:04 BASE 2.42 78 3.09 82 -6.1 64 -11.8 16 37 982.6 NA 0.0000 9999 3810 0 0 0
2017/09/01 11:55:03 BASE 2.16 85 3.09 82 -6.1 64 -11.8 16 38 982.6 NA 0.0000 9999 3670 0 0 0
2017/09/01 11:56:03 BASE 1.84 90 3.09 82 -6.0 64 -11.8 17 40 982.6 NA 0.0000 9999 3610 0 0 0
2017/09/01 11:57:04 BASE 1.71 92 3.09 82 -6.1 64 -11.7 18 41 982.6 NA 0.0000 9999 0 0 0 3740
2017/09/01 11:58:03 BASE 1.12 94 3.09 82 -6.1 65 -11.7 18 42 982.6 NA 0.0000 9999 0 0 0 3640
2017/09/01 11:59:04 BASE 0.27 100 3.09 82 -6.0 65 -11.6 19 44 982.6 NA 0.0000 9999 0 0 0 3610
2017/09/01 12:00:03 BASE 0.00 97 3.09 82 -6.0 65 -11.6 19 45 982.6 NA 0.0000 9999 0 0 0 3770
2017/09/01 12:01:03 BASE 0.21 356 3.09 82 -6.0 65 -11.6 20 47 982.6 NA 0.0000 9999 0 0 0 3770
2017/09/01 12:02:03 BASE 1.09 347 3.09 82 -6.0 65 -11.5 20 48 982.6 NA 0.0000 9999 0 0 0 3770
2017/09/01 12:03:03 BASE 2.29 15 3.45 12 -5.9 66 -11.3 21 49 982.5 NA 0.0000 7000 0 0 0 3740
2017/09/01 12:04:04 BASE 3.12 20 4.22 16 -5.9 67 -11.1 21 50 982.4 NA 0.0000 9000 0 0 0 3540
2017/09/01 12:05:03 BASE 3.57 22 4.22 24 -5.9 69 -10.7 21 50 982.4 NA 0.0000 9999 0 0 0 3450
2017/09/01 12:06:03 BASE 4.04 24 4.63 21 -5.9 71 -10.3 21 51 982.3 NA 0.0000 9999 0 0 0 3450
2017/09/01 12:07:04 BASE 4.24 23 4.63 21 -5.9 73 -10.0 21 51 982.3 NA 0.0000 9000 0 0 0 3350
2017/09/01 12:08:03 BASE 4.29 24 4.63 21 -5.9 74 -9.8 21 52 982.3 NA 0.0000 8000 0 0 0 3280
2017/09/01 12:09:04 BASE 4.69 26 5.35 26 -5.9 74 -9.7 22 53 982.3 NA 0.0000 HZ 7000 0 0 0 3180
2017/09/01 12:10:03 BASE 4.79 26 5.35 26 -5.9 75 -9.7 22 53 982.3 NA 0.0000 HZ 7000 0 0 0 3150
2017/09/01 12:11:03 BASE 4.67 25 5.35 26 -5.9 75 -9.6 22 54 982.3 NA 0.0000 -SN 9000 0 0 0 2920
2017/09/01 12:12:03 BASE 4.58 24 5.35 26 -5.9 75 -9.6 23 55 982.3 NA 0.0000 -SN 9000 0 0 0 3020
2017/09/01 12:13:05 BASE 4.53 23 5.35 26 -5.9 76 -9.5 23 56 982.3 NA 0.0000 -SN 9999 0 0 0 3020
2017/09/01 12:14:04 BASE 4.47 22 5.35 26 -5.9 76 -9.4 23 58 982.3 NA 0.0000 -SN 9999 0 0 0 2920
2017/09/01 12:15:03 BASE 4.32 22 5.35 26 -5.9 77 -9.4 24 59 982.3 NA 0.0000 -SN 9000 0 0 0 2890
2017/09/01 12:16:03 BASE 4.25 21 5.35 26 -5.9 77 -9.3 25 61 982.3 NA 0.0000 -SN 9999 0 0 0 2790
2017/09/01 12:17:04 BASE 4.02 17 5.35 26 -5.9 77 -9.2 26 63 982.3 NA 0.0000 -SN 9999 0 0 0 2690
2017/09/01 12:18:03 BASE 3.95 14 5.35 26 -5.9 77 -9.2 26 65 982.3 NA 0.0000 -SN 9999 0 0 0 2690
2017/09/01 12:19:04 BASE 4.26 16 5.20 27 -5.9 78 -9.2 27 66 982.3 NA 0.0000 -SN 9999 0 0 0 2850
2017/09/01 12:20:03 BASE 5.03 20 6.22 24 -5.9 78 -9.2 27 68 982.3 NA 0.0000 -SN 9999 0 0 0 2920
2017/09/01 12:21:04 BASE 5.59 24 6.22 24 -6.0 78 -9.2 28 69 982.3 NA 0.0000 -SN 7000 0 0 0 2660
2017/09/01 12:22:03 BASE 5.47 24 6.22 24 -6.0 78 -9.3 28 70 982.3 NA 0.0000 -SN 6000 0 0 0 2690
2017/09/01 12:23:04 BASE 5.19 24 6.22 24 -6.1 78 -9.3 29 71 982.3 NA 0.0000 -SN 6000 0 0 0 2720
2017/09/01 12:24:04 BASE 4.86 24 6.22 24 -6.1 78 -9.4 29 72 982.3 NA 0.0000 -SN 7000 0 0 0 2490
2017/09/01 12:25:03 BASE 4.15 20 6.22 24 -6.2 78 -9.4 29 73 982.3 NA 0.0000 -SN 8000 0 0 0 2400
2017/09/01 12:26:03 BASE 3.22 18 6.22 24 -6.2 78 -9.3 30 75 982.3 NA 0.0000 -SN 7000 0 0 0 2560
2017/09/01 12:27:04 BASE 2.66 18 6.22 24 -6.2 79 -9.3 31 76 982.3 NA 0.0000 -SN 7000 0 0 0 2720
2017/09/01 12:28:03 BASE 2.58 12 6.22 24 -6.2 79 -9.2 31 78 982.3 NA 0.0000 -SN 7000 0 0 0 2850
2017/09/01 12:29:04 BASE 2.31 15 6.22 24 -6.2 79 -9.2 32 79 982.3 NA 0.0000 -SN 9000 0 0 0 2760
2017/09/01 12:30:03 BASE 1.93 25 6.07 22 -6.2 79 -9.2 32 81 982.3 NA 0.0000 -SN 9000 0 0 0 2560
2017/09/01 12:31:04 BASE 1.95 32 5.61 24 -6.2 80 -9.1 33 83 982.2 NA 0.0000 -SN 6000 0 0 0 2530
2017/09/01 12:32:04 BASE 2.16 28 5.61 24 -6.2 80 -9.0 34 85 982.1 NA 0.0000 -SN 4600 0 0 0 2590
2017/09/01 12:33:04 BASE 2.02 15 5.04 26 -6.1 80 -9.0 36 88 982.1 NA 0.0000 -SN 5000 0 0 0 2760
2017/09/01 12:34:03 BASE 1.65 13 4.06 15 -6.1 80 -8.9 37 91 982.1 NA 0.0000 -SN 6000 0 0 0 3080
2017/09/01 12:35:03 BASE 1.66 29 3.09 17 -6.1 80 -8.9 38 93 982.1 NA 0.0000 -SN 6000 0 0 0 3050
2017/09/01 12:36:03 BASE 1.66 43 2.88 4 -6.0 80 -9.0 39 96 982.1 NA 0.0000 -SN 7000 0 0 0 3080
2017/09/01 12:37:03 BASE 1.45 56 2.88 4 -6.0 79 -9.0 40 98 982.1 NA 0.0000 -SN 8000 0 0 0 3250
2017/09/01 12:38:04 BASE 1.17 68 2.73 19 -6.1 79 -9.1 40 99 982.0 NA 0.0000 -SN 9000 0 0 0 3580
2017/09/01 12:39:04 BASE 0.93 55 2.73 19 -6.1 79 -9.1 40 99 982.0 NA 0.0000 -SN 9000 0 0 0 3580
2017/09/01 12:40:03 BASE 0.90 32 2.73 19 -6.1 79 -9.1 40 99 982.1 NA 0.0000 -SN 9000 0 0 0 3770
2017/09/01 12:41:04 BASE 1.24 20 2.73 19 -6.1 80 -9.1 39 99 982.1 NA 0.0000 -SN 9000 0 0 0 3640
2017/09/01 12:42:03 BASE 1.30 27 2.31 17 -6.1 80 -9.1 39 99 982.1 NA 0.0000 -SN 9000 0 0 0 3640
2017/09/01 12:43:04 BASE 0.51 64 2.26 61 -6.2 80 -9.0 39 99 982.1 NA 0.0000 -SN 9000 0 0 0 3670
2017/09/01 12:44:03 BASE 0.00 96 2.26 61 -6.2 80 -9.1 39 100 982.1 NA 0.0000 -SN 9000 0 0 0 3670
2017/09/01 12:45:03 BASE 0.00 83 1.85 21 -6.2 80 -9.1 40 101 982.1 NA 0.0000 -SN 9000 0 0 0 3770
2017/09/01 12:46:03 BASE 0.00 86 1.85 21 -6.1 80 -9.0 40 102 982.0 NA 0.0000 -SN 9999 0 0 0 3710
2017/09/01 12:47:03 BASE 0.00 130 1.85 21 -6.1 80 -9.0 41 103 982.0 NA 0.0000 -SN 9999 0 0 0 3810
2017/09/01 12:48:03 BASE 0.00 141 1.85 21 -6.1 80 -9.0 41 104 982.0 NA 0.0000 9999 0 0 0 3810
2017/09/01 12:49:04 BASE 0.20 134 1.85 21 -6.1 80 -9.0 41 105 982.0 NA 0.0000 9999 3410 0 0 0
2017/09/01 12:50:03 BASE 1.16 144 2.83 161 -6.1 80 -9.1 41 106 982.0 NA 0.0000 9999 0 0 0 3870
2017/09/01 12:51:04 BASE 1.95 168 2.83 161 -6.1 80 -9.1 42 107 982.0 NA 0.0000 9999 0 0 0 3740
2017/09/01 12:52:03 BASE 1.85 174 2.83 161 -6.2 80 -9.1 42 108 982.0 NA 0.0000 9999 0 0 0 3810
2017/09/01 12:53:04 BASE 1.63 167 2.83 161 -6.2 81 -9.0 42 108 982.0 NA 0.0000 9999 22250 0 0 0
2017/09/01 12:54:03 BASE 1.81 165 2.83 161 -6.2 81 -8.9 43 109 981.9 NA 0.0000 -SN 9000 0 0 0 3840
2017/09/01 12:55:03 BASE 2.43 169 3.24 171 -6.2 82 -8.8 43 110 981.8 NA 0.0000 -SN 9000 0 0 0 3840
2017/09/01 12:56:03 BASE 2.92 177 3.24 180 -6.2 82 -8.7 43 111 981.8 NA 0.0000 -SN 9000 0 0 0 3840
2017/09/01 12:57:04 BASE 3.07 180 3.34 181 -6.2 83 -8.7 44 112 981.7 NA 0.0000 -SN 9000 0 0 0 3900
2017/09/01 12:58:04 BASE 3.22 175 3.65 155 -6.2 83 -8.7 44 114 981.7 NA 0.0000 -SN 9000 0 0 0 4400
2017/09/01 12:59:04 BASE 3.25 165 3.65 155 -6.2 83 -8.7 46 116 981.7 NA 0.0000 -SN 9000 0 0 0 4430
2017/09/01 13:00:03 BASE 2.97 159 3.65 155 -6.3 83 -8.7 46 118 981.7 NA 0.0000 -SN 8000 0 0 0 4270
2017/09/01 13:01:03 BASE 2.58 155 3.65 155 -6.3 83 -8.7 47 120 981.7 NA 0.0000 -SN 8000 0 0 0 4270
2017/09/01 13:02:03 BASE 2.46 152 3.65 155 -6.3 83 -8.7 48 122 981.6 NA 0.0000 -SN 9000 0 0 0 4720
2017/09/01 13:03:04 BASE 3.17 159 4.22 167 -6.3 83 -8.7 49 124 981.5 NA 0.0000 -SN 8000 0 0 0 3900
2017/09/01 13:04:04 BASE 3.59 166 4.22 167 -6.2 83 -8.7 49 125 981.5 NA 0.0000 -SN 9000 0 0 0 4000
2017/09/01 13:05:03 BASE 3.31 164 4.22 167 -6.2 82 -8.7 49 124 981.5 NA 0.0000 -SN 9000 0 0 0 3900
2017/09/01 13:06:04 BASE 2.95 159 4.22 167 -6.1 82 -8.8 48 124 981.6 NA 0.0000 -SN 9000 0 0 0 4360
2017/09/01 13:07:03 BASE 1.62 143 4.22 167 -6.1 81 -8.8 48 123 981.7 NA 0.0000 -SN 9000 0 0 0 4000
2017/09/01 13:08:03 BASE 0.37 136 4.22 167 -6.1 81 -8.8 47 122 981.7 NA 0.0000 -SN 9000 0 0 0 3970
2017/09/01 13:09:03 BASE 1.76 160 4.99 193 -6.1 81 -8.9 47 122 981.5 NA 0.0000 -SN 7000 0 0 0 4130
2017/09/01 13:10:03 BASE 4.61 191 6.33 207 -6.1 80 -8.9 47 123 981.2 NA 0.0000 -SN 6000 0 0 0 4430
2017/09/01 13:11:04 BASE 4.85 210 6.33 207 -6.0 80 -9.0 47 123 981.3 NA 0.0000 -SN 7000 0 0 0 4100
2017/09/01 13:12:03 BASE 3.78 217 6.33 207 -6.0 79 -9.0 47 124 981.3 NA 0.0000 -SN 7000 0 0 0 3740
2017/09/01 13:13:05 BASE 5.01 213 7.41 195 -6.0 79 -9.0 48 125 981.0 NA 0.0000 -SN 7000 0 0 0 3670
2017/09/01 13:14:00 BASE 6.08 198 7.41 195 -6.1 80 -9.0 48 126 980.9 NA 0.0000 -SN 7000 0 0 0 3670
2017/09/01 13:15:03 BASE 5.85 177 7.51 168 -6.1 80 -9.0 48 128 980.9 NA 0.0000 -SN 7000 0 0 0 3710
2017/09/01 13:16:03 BASE 2.96 134 7.51 168 -6.1 80 -8.9 49 129 981.5 NA 0.0000 -SN 6000 0 0 0 3840
2017/09/01 13:17:04 BASE 1.23 129 7.51 168 -6.1 81 -8.9 49 130 981.4 NA 0.0000 -SN 6000 0 0 0 4330
2017/09/01 13:18:03 BASE 2.76 191 7.51 168 -6.0 81 -8.7 50 132 981.2 NA 0.0000 -SN 7000 0 0 0 4330
2017/09/01 13:19:04 BASE 3.86 183 7.51 168 -6.0 81 -8.7 51 134 981.0 NA 0.0000 -SN 7000 0 0 0 4760
2017/09/01 13:20:03 BASE 4.91 161 7.51 168 -5.9 81 -8.6 53 137 981.0 NA 0.0000 -SN 7000 2170 3670 0 0
2017/09/01 13:21:04 BASE 6.35 142 8.95 137 -5.9 81 -8.5 53 138 980.9 NA 0.0000 -SN 6000 3510 0 0 0
2017/09/01 13:22:03 BASE 7.64 129 9.57 144 -5.8 82 -8.5 53 135 980.7 NA 0.0000 -SN 6000 0 0 0 4040
2017/09/01 13:23:04 BASE 7.58 139 9.77 184 -5.9 82 -8.5 52 132 980.6 NA 0.0000 -SN 1500 2230 3670 0 0
2017/09/01 13:24:03 BASE 6.78 151 9.77 184 -6.0 82 -8.5 52 131 981.1 NA 0.0000 -SN 0800 3670 0 0 0
2017/09/01 13:25:03 BASE 6.36 158 9.77 184 -6.0 83 -8.4 52 130 981.0 NA 0.0000 -SN 2400 3540 0 0 0
2017/09/01 13:26:03 BASE 6.00 157 9.77 184 -6.0 83 -8.4 52 130 981.0 NA 0.0000 -SN 2700 3410 0 0 0
2017/09/01 13:27:04 BASE 5.42 149 9.77 184 -6.0 84 -8.3 52 131 981.1 NA 0.0000 -SN 2600 2260 3640 0 0
2017/09/01 13:28:03 BASE 5.59 141 9.77 184 -6.1 84 -8.3 53 133 981.1 NA 0.0000 -SN BR 2500 2200 3740 0 0
2017/09/01 13:29:04 BASE 6.64 149 9.77 184 -6.1 85 -8.3 54 136 980.9 NA 0.0000 -SN BR 2500 3610 0 0 0
2017/09/01 13:30:03 BASE 6.71 159 9.77 184 -6.2 85 -8.2 54 137 980.9 NA 0.0000 -SN BR 2500 3710 0 0 0
2017/09/01 13:31:04 BASE 5.80 160 9.77 184 -6.2 86 -8.2 55 138 981.1 NA 0.0000 -SN BR 2400 3540 0 0 0
2017/09/01 13:32:04 BASE 4.79 162 9.77 184 -6.1 86 -8.1 55 139 981.2 NA 0.0000 -SN BR 2400 3540 0 0 0
2017/09/01 13:33:04 BASE 3.92 168 8.08 174 -6.1 86 -8.1 55 140 981.2 NA 0.0000 -SN BR 2300 2030 3540 0 0
2017/09/01 13:34:03 BASE 4.42 166 7.51 155 -6.1 86 -8.0 55 140 981.0 NA 0.0000 -SN BR 2300 3450 0 0 0
2017/09/01 13:35:03 BASE 5.62 159 7.51 155 -6.1 87 -7.9 56 141 980.9 NA 0.0000 BR 2200 2070 3410 0 0
2017/09/01 13:36:03 BASE 5.63 167 7.51 155 -6.1 87 -7.9 56 142 981.1 NA 0.0000 BR 2200 2790 0 0 0
2017/09/01 13:37:04 BASE 6.46 183 9.00 200 -6.0 88 -7.7 56 143 980.7 NA 0.0000 BR 2200 2660 0 0 0
2017/09/01 13:38:03 BASE 7.67 217 14.92 255 -5.9 88 -7.6 56 143 980.5 NA 0.0000 BR 2100 3450 0 0 0
2017/09/01 13:39:04 BASE 7.42 243 14.92 255 -5.5 88 -7.2 56 144 980.2 NA 0.0000 BR 2100 2230 3250 0 0
2017/09/01 13:40:03 BASE 9.95 244 16.05 261 -5.0 88 -6.7 56 144 979.8 NA 0.0000 BR 2000 2130 0 0 0
2017/09/01 13:41:04 BASE 11.28 240 16.05 261 -4.5 87 -6.4 56 143 980.0 NA 0.0000 BR 2000 0 0 0 3450
2017/09/01 13:42:03 BASE 8.49 231 16.05 261 -4.0 85 -6.2 56 146 980.2 NA 0.0000 BR 2000 1800 0 0 0
2017/09/01 13:43:03 BASE 6.19 225 16.05 261 -3.6 83 -6.0 56 147 980.4 NA 0.0000 HZ 2000 1870 0 0 0
2017/09/01 13:44:03 BASE 4.21 226 16.05 261 -3.4 81 -6.2 56 147 980.5 NA 0.0000 HZ 1900 2360 0 0 0
2017/09/01 13:45:04 BASE 3.40 238 16.05 261 -3.3 79 -6.5 55 145 980.5 NA 0.0000 HZ 1900 2130 3580 0 0
2017/09/01 13:46:04 BASE 3.23 279 16.05 261 -3.3 78 -6.6 55 145 980.7 NA 0.0000 HZ 1900 1970 0 0 0
2017/09/01 13:47:04 BASE 3.48 316 16.05 261 -3.4 77 -6.8 55 145 980.8 NA 0.0000 HZ 1900 1800 0 0 0
2017/09/01 13:48:03 BASE 3.03 325 16.05 261 -3.5 77 -6.9 56 147 980.7 NA 0.0000 HZ 1800 3180 0 0 0
2017/09/01 13:49:04 BASE 1.64 13 16.05 261 -3.6 77 -7.0 57 150 980.7 NA 0.0000 HZ 1800 3220 3770 0 0
2017/09/01 13:50:03 BASE 2.72 110 11.88 230 -3.7 78 -7.0 57 151 980.7 NA 0.0000 HZ 1800 3450 0 0 0
2017/09/01 13:51:04 BASE 3.85 107 9.83 237 -3.8 78 -7.1 57 152 980.7 NA 0.0000 -SN 2500 3250 0 0 0
2017/09/01 13:52:04 BASE 3.24 113 7.15 213 -3.9 78 -7.1 57 154 980.7 NA 0.0000 -SN 7000 2720 0 0 0
2017/09/01 13:53:04 BASE 3.34 140 5.35 1 -4.0 79 -7.1 57 153 980.5 NA 0.0000 -SN 5000 3220 4070 0 0
2017/09/01 13:54:04 BASE 3.58 125 5.35 1 -4.1 79 -7.1 57 154 980.2 NA 0.0000 -SN 5000 2400 3350 0 0
2017/09/01 13:55:03 BASE 7.04 40 15.69 8 -4.1 80 -7.1 58 153 979.9 NA 0.0000 -SN 2700 0 0 0 2850
2017/09/01 13:56:03 BASE 7.24 28 15.69 8 -3.9 81 -6.8 58 154 980.3 NA 0.0000 -SN 2000 2490 3080 0 0
2017/09/01 13:57:03 BASE 3.78 50 15.69 8 -3.8 81 -6.6 59 156 980.3 NA 0.0000 -SN 9999 2760 3580 0 0
2017/09/01 13:58:04 BASE 3.84 51 15.69 8 -3.6 81 -6.3 60 158 980.2 NA 0.0000 -SN 9999 3250 0 0 0
2017/09/01 13:59:04 BASE 6.10 34 15.69 8 -3.4 82 -6.1 60 160 980.1 NA 0.0000 -SN 8000 2590 0 0 0
2017/09/01 14:00:03 BASE 10.19 8 15.69 8 -3.3 81 -6.0 61 162 979.8 NA 0.0000 -SN 5000 3180 0 0 0
2017/09/01 14:01:04 BASE 10.71 352 15.69 8 -3.3 81 -6.0 61 162 979.9 NA 0.0000 -SN 6000 3510 0 0 0
2017/09/01 14:02:03 BASE 11.23 346 16.77 2 -3.3 81 -6.0 60 161 979.8 NA 0.0000 -SN 9999 0 0 0 2000
2017/09/01 14:03:03 BASE 10.55 323 16.77 2 -3.2 82 -5.9 61 162 980.0 NA 0.0000 -SN 9000 3310 3740 0 0
2017/09/01 14:04:04 BASE 9.34 337 16.77 2 -3.1 82 -5.8 62 164 980.0 NA 0.0000 -SN 9999 3410 0 0 0
2017/09/01 14:05:03 BASE 11.71 11 16.77 2 -3.1 82 -5.8 63 166 979.9 NA 0.0000 -SN 9000 330 3310 0 0
2017/09/01 14:06:03 BASE 12.89 18 16.77 2 -3.1 82 -5.8 64 168 979.8 NA 0.0000 -SN 5000 3410 0 0 0
2017/09/01 14:07:04 BASE 12.71 23 16.77 2 -3.2 82 -5.9 65 167 979.7 NA 0.0000 -SN 5000 3150 0 0 0
2017/09/01 14:08:04 BASE 11.66 32 16.77 2 -3.3 82 -5.9 64 166 979.8 NA 0.0000 -SN 5000 3180 0 0 0
2017/09/01 14:09:01 BASE 10.77 21 16.77 2 -3.4 83 -5.9 64 167 980.1 NA 0.0000 -SN 6000 3150 0 0 0
2017/09/01 14:10:00 BASE 11.15 0 16.77 2 -3.4 84 -5.8 64 167 980.2 NA 0.0000 -SN 9999 3350 0 0 0
2017/09/01 14:11:00 BASE 13.08 357 16.77 2 -3.4 85 -5.7 63 166 979.9 NA 0.0000 -SN BR 9999 3810 0 0 0
2017/09/01 14:12:00 BASE 13.52 356 16.20 2 -3.4 85 -5.6 63 164 979.7 NA 0.0000 -SN BR 9999 4040 0 0 0
2017/09/01 14:13:01 BASE 13.38 353 16.31 347 -3.4 85 -5.5 62 162 979.5 NA 0.0000 -SN BR 9999 4560 0 0 0
2017/09/01 14:14:00 BASE 14.05 357 16.31 347 -3.3 85 -5.4 63 164 979.4 NA 0.0000 -SN BR 9999 4490 0 0 0
2017/09/01 14:15:01 BASE 14.63 3 17.65 20 -3.3 85 -5.4 62 162 979.2 NA 0.0000 -SN BR 7000 4330 0 0 0
2017/09/01 14:16:00 BASE 16.13 352 19.29 340 -3.3 86 -5.3 63 158 979.1 NA 0.0000 -SN BR 5000 0 0 0 980
2017/09/01 14:17:00 BASE 16.17 337 19.29 340 -3.3 86 -5.3 63 159 979.0 NA 0.0000 -SN BR 9000 0 0 0 720
2017/09/01 14:18:03 BASE 14.37 338 19.29 340 -3.3 86 -5.2 63 159 979.2 NA 0.0000 -SN BR 9999 0 0 0 1250
2017/09/01 14:19:04 BASE 13.52 348 19.29 340 -3.3 87 -5.2 63 160 979.2 NA 0.0000 -SN BR 9999 0 0 0 790
2017/09/01 14:20:03 BASE 14.72 351 19.29 340 -3.3 87 -5.1 63 160 978.9 NA 0.0000 -SN BR 9000 5480 0 0 0
2017/09/01 14:21:03 BASE 16.23 353 19.29 340 -3.3 87 -5.1 64 161 978.8 NA 0.0000 -SN BR 6000 0 0 0 1050
2017/09/01 14:22:04 BASE 18.35 2 21.20 346 -3.4 88 -5.1 64 162 978.3 NA 0.0000 -SN BR 3600 0 0 0 920
2017/09/01 14:23:04 BASE 21.32 351 24.69 335 -3.4 88 -5.1 64 164 977.8 NA 0.0000 -SN BR 3800 6400 0 0 0
2017/09/01 14:24:04 BASE 21.34 336 24.69 335 -3.5 89 -5.1 66 165 978.1 NA 0.0000 -SN BR 6000 0 0 0 460
2017/09/01 14:25:04 BASE 18.13 342 24.69 335 -3.5 89 -5.0 66 167 978.5 NA 0.0000 -SN BR 9999 6760 0 0 0
2017/09/01 14:26:03 BASE 15.25 347 24.69 335 -3.5 90 -5.0 67 169 978.4 NA 0.0000 -SN BR 9999 6820 0 0 0
2017/09/01 14:27:04 BASE 16.73 356 24.69 335 -3.5 90 -4.9 69 166 978.0 NA 0.0000 -SN BR 5000 6730 0 0 0
2017/09/01 14:28:04 BASE 20.72 9 25.72 6 -3.5 91 -4.9 69 168 977.7 NA 0.0000 -SN BR 2200 6560 0 0 0
2017/09/01 14:29:04 BASE 21.27 5 25.72 6 -3.5 91 -4.8 70 171 978.1 NA 0.0000 -SN BR M 6500 0 0 0
2017/09/01 14:30:03 BASE 18.94 357 25.72 6 -3.6 91 -4.8 71 174 978.3 NA 0.0000 -SN BR M 0 0 0 1350
2017/09/01 14:31:03 BASE 17.70 357 25.72 6 -3.6 92 -4.7 72 176 978.1 NA 0.0000 -SN M 6790 0 0 0
2017/09/01 14:32:03 BASE 18.92 5 25.72 6 -3.5 92 -4.7 73 179 977.8 NA 0.0000 -SN M 0 0 0 720
2017/09/01 14:33:04 BASE 20.55 10 25.72 6 -3.5 92 -4.6 74 181 977.5 NA 0.0000 -SN M 0 0 0 300
2017/09/01 14:34:04 BASE 21.53 12 25.72 6 -3.5 93 -4.6 74 182 977.5 NA 0.0000 -SN M 6960 0 0 0
2017/09/01 14:35:03 BASE 22.13 12 25.72 6 -3.5 93 -4.5 74 181 977.5 NA 0.0000 M 7020 0 0 0
2017/09/01 14:36:03 BASE 20.81 9 25.72 6 -3.5 93 -4.5 74 185 977.9 NA 0.0000 M 7020 0 0 0
2017/09/01 14:37:04 BASE 18.70 2 25.72 6 -3.6 93 -4.5 74 184 977.9 NA 0.0000 M 7090 0 0 0
2017/09/01 14:38:04 BASE 20.08 10 25.26 20 -3.6 93 -4.5 73 182 977.5 NA 0.0000 M 7020 0 0 0
2017/09/01 14:39:04 BASE 21.37 18 25.26 20 -3.6 94 -4.5 72 178 977.7 NA 0.0000 M 6990 0 0 0
2017/09/01 14:40:03 BASE 21.38 16 25.57 14 -3.6 94 -4.4 72 177 977.6 NA 0.0000 M 6920 0 0 0
2017/09/01 14:41:04 BASE 22.22 15 25.57 14 -3.6 94 -4.4 73 181 977.6 NA 0.0000 M 7020 0 0 0
2017/09/01 14:42:04 BASE 21.09 16 25.57 14 -3.6 94 -4.4 72 179 977.6 NA 0.0000 M 7150 0 0 0
2017/09/01 14:43:04 BASE 20.93 15 25.57 12 -3.6 94 -4.4 72 179 977.4 NA 0.0000 9999 7150 0 0 0
2017/09/01 14:44:04 BASE 21.48 14 25.57 12 -3.6 94 -4.5 72 180 977.5 NA 0.0000 -SN 9999 7220 0 0 0
2017/09/01 14:45:03 BASE 20.43 14 25.57 12 -3.7 94 -4.5 73 178 977.7 NA 0.0000 -SN 9999 7050 0 0 0
2017/09/01 14:46:03 BASE 21.03 12 25.57 18 -3.7 94 -4.5 73 179 977.5 NA 0.0000 -SN M 0 0 0 1050
2017/09/01 14:47:04 BASE 20.00 9 25.57 18 -3.7 95 -4.5 73 180 977.8 NA 0.0000 -SN M 7320 0 0 0
2017/09/01 14:48:04 BASE 19.03 12 25.57 18 -3.7 95 -4.4 74 183 977.6 NA 0.0000 -SN M 7150 0 0 0
2017/09/01 14:49:04 BASE 21.35 18 26.34 20 -3.7 95 -4.4 75 185 977.1 NA 0.0000 -SN M 7120 0 0 0
2017/09/01 14:50:03 BASE 22.85 20 26.34 20 -3.7 95 -4.4 76 185 977.0 NA 0.0000 -SN 9999 0 0 0 690
2017/09/01 14:51:04 BASE 22.87 21 26.34 20 -3.7 95 -4.4 76 188 977.1 NA 0.0000 -SN 9000 7870 0 0 0
2017/09/01 14:52:03 BASE 24.26 19 28.81 15 -3.7 95 -4.4 77 188 976.7 NA 0.0000 -SN M 7840 0 0 0
2017/09/01 14:53:03 BASE 25.70 17 28.81 15 -3.7 95 -4.4 78 191 976.9 NA 0.0000 -SN 9999 7870 0 0 0
2017/09/01 14:54:04 BASE 24.35 13 28.81 15 -3.7 95 -4.4 78 191 977.3 NA 0.0000 -SN 9999 7870 0 0 0
2017/09/01 14:55:03 BASE 21.99 9 28.81 15 -3.7 95 -4.4 78 191 977.7 NA 0.0000 -SN 9999 7870 0 0 0
2017/09/01 14:56:04 BASE 21.88 10 28.81 15 -3.7 95 -4.4 79 192 977.1 NA 0.0000 -SN 9999 7870 0 0 0
2017/09/01 14:57:04 BASE 23.93 15 28.81 15 -3.7 95 -4.4 79 192 977.2 NA 0.0000 -SN M 7910 0 0 0
2017/09/01 14:58:04 BASE 23.20 20 28.81 15 -3.6 95 -4.3 78 190 977.6 NA 0.0000 -SN 9999 7910 0 0 0
2017/09/01 14:59:04 BASE 21.09 16 28.81 15 -3.6 95 -4.3 78 189 977.6 NA 0.0000 -SN M 7910 0 0 0
2017/09/01 15:00:03 BASE 21.63 12 28.81 15 -3.6 95 -4.3 78 189 977.4 NA 0.0000 -SN M 7940 0 0 0
2017/09/01 15:01:04 BASE 22.30 10 28.81 15 -3.6 95 -4.3 78 190 977.6 NA 0.0000 -SN M 7780 0 0 0
2017/09/01 15:02:03 BASE 21.58 8 27.68 19 -3.6 95 -4.3 78 191 977.6 NA 0.0000 -SN M 7740 0 0 0
2017/09/01 15:03:03 BASE 20.35 11 27.68 19 -3.6 95 -4.3 77 189 977.4 NA 0.0000 -SN M 7610 0 0 0
2017/09/01 15:04:04 BASE 22.10 16 27.68 19 -3.6 95 -4.3 77 187 976.9 NA 0.0000 -SN M 7480 0 0 0
2017/09/01 15:05:04 BASE 23.03 15 27.68 19 -3.6 95 -4.3 76 186 977.4 NA 0.0000 M 7420 0 0 0
2017/09/01 15:06:03 BASE 21.52 14 27.68 19 -3.6 95 -4.3 76 186 977.3 NA 0.0000 M 0 0 0 980
2017/09/01 15:07:04 BASE 22.34 16 26.70 19 -3.5 95 -4.2 75 184 977.1 NA 0.0000 M 7740 0 0 0
2017/09/01 15:08:03 BASE 23.21 17 26.70 19 -3.5 95 -4.2 76 186 976.9 NA 0.0000 M 7740 0 0 0
2017/09/01 15:09:04 BASE 24.63 18 29.07 17 -3.5 95 -4.2 76 185 976.5 NA 0.0000 M 0 0 0 1050
2017/09/01 15:10:03 BASE 25.36 21 29.07 17 -3.4 94 -4.2 75 182 976.7 NA 0.0000 M 7810 0 0 0
2017/09/01 15:11:04 BASE 24.66 21 29.07 17 -3.4 94 -4.2 74 181 976.8 NA 0.0000 M 7970 0 0 0
2017/09/01 15:12:04 BASE 23.05 19 29.07 17 -3.4 94 -4.3 73 178 977.2 NA 0.0000 M 7970 0 0 0
2017/09/01 15:13:05 BASE 21.00 18 29.07 17 -3.4 94 -4.3 73 177 977.3 NA 0.0000 M 7780 0 0 0
2017/09/01 15:14:04 BASE 20.31 21 29.07 17 -3.5 94 -4.3 72 176 977.3 NA 0.0000 M 0 0 0 1570
2017/09/01 15:15:04 BASE 21.49 22 29.07 17 -3.5 94 -4.2 72 176 977.1 NA 0.0000 M 0 0 0 1380
2017/09/01 15:16:03 BASE 22.42 19 29.07 17 -3.5 94 -4.2 72 177 977.2 NA 0.0000 M 7780 0 0 0
2017/09/01 15:17:04 BASE 22.29 17 29.07 17 -3.4 94 -4.2 73 177 977.1 NA 0.0000 M 7710 0 0 0
2017/09/01 15:18:03 BASE 22.73 17 29.07 17 -3.4 94 -4.2 73 178 977.0 NA 0.0000 M 0 0 0 1150
2017/09/01 15:19:04 BASE 23.26 18 28.91 21 -3.4 94 -4.2 74 180 976.9 NA 0.0000 M 0 0 0 1250
2017/09/01 15:20:03 BASE 22.42 20 27.16 12 -3.4 94 -4.2 75 184 977.1 NA 0.0000 M 7640 0 0 0
2017/09/01 15:21:04 BASE 21.43 17 27.16 12 -3.4 94 -4.2 75 185 976.9 NA 0.0000 M 7640 0 0 0
2017/09/01 15:22:03 BASE 23.00 14 27.78 12 -3.4 94 -4.2 77 187 976.6 NA 0.0000 M 0 0 0 1870
2017/09/01 15:23:03 BASE 23.08 13 27.78 12 -3.4 94 -4.2 77 187 976.9 NA 0.0000 M 0 0 0 2100
2017/09/01 15:24:03 BASE 20.80 13 27.78 12 -3.3 94 -4.1 77 188 977.0 NA 0.0000 M 0 0 0 1940
2017/09/01 15:25:04 BASE 22.00 15 27.78 12 -3.3 94 -4.1 77 187 976.7 NA 0.0000 M 0 0 0 3610
2017/09/01 15:26:03 BASE 23.88 17 27.78 12 -3.2 94 -4.0 75 184 976.6 NA 0.0000 M 0 0 0 2790
2017/09/01 15:27:03 BASE 23.17 21 27.78 12 -3.2 94 -4.0 73 179 976.6 NA 0.0000 M 0 0 0 2560
2017/09/01 15:28:04 BASE 22.57 24 27.78 12 -3.1 94 -4.0 73 179 976.6 NA 0.0000 M 0 0 0 2760
2017/09/01 15:29:03 BASE 22.99 20 27.78 12 -3.1 94 -4.0 72 175 976.6 NA 0.0000 M 0 0 0 2530
2017/09/01 15:30:04 BASE 23.05 17 27.78 12 -3.2 94 -4.0 72 176 976.6 NA 0.0000 M 0 0 0 2400
2017/09/01 15:31:04 BASE 22.71 16 27.78 12 -3.2 94 -4.0 73 178 976.8 NA 0.0000 M 0 0 0 2400
2017/09/01 15:32:03 BASE 22.86 16 27.37 14 -3.2 94 -4.0 73 178 976.6 NA 0.0000 M 0 0 0 2260
2017/09/01 15:33:03 BASE 23.93 16 28.65 21 -3.2 94 -4.0 74 180 976.2 NA 0.0000 M 0 0 0 1840
2017/09/01 15:34:04 BASE 24.78 19 29.12 20 -3.2 94 -4.0 76 186 976.1 NA 0.0000 M 0 0 0 1440
2017/09/01 15:35:03 BASE 23.82 17 29.12 20 -3.2 94 -4.0 77 183 976.7 NA 0.0000 M 0 0 0 2170
2017/09/01 15:36:03 BASE 22.07 14 29.12 20 -3.2 94 -4.0 79 187 976.8 NA 0.0000 M 0 0 0 2430
2017/09/01 15:37:04 BASE 21.60 16 29.12 20 -3.2 94 -4.0 80 189 976.6 NA 0.0000 M 0 0 0 2560
2017/09/01 15:38:04 BASE 22.13 20 29.12 20 -3.2 95 -4.0 82 194 976.4 NA 0.0000 M 0 0 0 3480
2017/09/01 15:39:04 BASE 22.49 22 29.12 20 -3.2 95 -4.0 84 198 976.4 NA 0.0000 M 0 0 0 5580
2017/09/01 15:40:03 BASE 23.32 22 29.12 20 -3.3 95 -3.9 86 202 976.2 NA 0.0000 M 0 0 0 5870
2017/09/01 15:41:04 BASE 24.03 22 29.12 20 -3.3 95 -4.0 88 208 976.4 NA 0.0000 M 0 0 0 6200
2017/09/01 15:42:04 BASE 22.94 21 29.12 20 -3.3 95 -4.0 90 212 976.5 NA 0.0000 M 0 0 0 6500
2017/09/01 15:43:04 BASE 21.77 20 29.12 20 -3.3 95 -4.0 92 216 976.5 NA 0.0000 M 0 0 0 6920
2017/09/01 15:44:03 BASE 22.07 21 26.08 21 -3.3 95 -4.0 92 220 976.4 NA 0.0000 M 0 0 0 6790
2017/09/01 15:45:04 BASE 23.05 20 27.83 22 -3.3 94 -4.1 91 216 976.4 NA 0.0000 M 0 0 0 6790
2017/09/01 15:46:03 BASE 23.26 18 27.83 22 -3.3 94 -4.1 90 213 976.5 NA 0.0000 M 0 0 0 5870
2017/09/01 15:47:04 BASE 22.46 17 27.83 22 -3.3 94 -4.1 90 215 976.5 NA 0.0000 M 0 0 0 3900
2017/09/01 15:48:04 BASE 22.75 16 27.83 22 -3.3 94 -4.1 90 215 976.4 NA 0.0000 M 0 0 0 4200
2017/09/01 15:49:04 BASE 22.94 18 27.83 22 -3.2 94 -4.0 89 217 976.3 NA 0.0000 M 0 0 0 3740
2017/09/01 15:50:03 BASE 23.30 19 27.83 22 -3.2 94 -4.0 89 215 976.1 NA 0.0000 M 0 0 0 3770
2017/09/01 15:51:03 BASE 24.03 17 27.83 22 -3.1 94 -4.0 89 215 976.1 NA 0.0000 M 22410 0 0 0
2017/09/01 15:52:03 BASE 23.13 14 27.83 22 -3.1 94 -3.9 89 214 976.3 NA 0.0000 M 0 0 0 3900
2017/09/01 15:53:04 BASE 23.27 16 27.83 22 -3.0 94 -3.9 89 221 976.0 NA 0.0000 M 0 0 0 3900
2017/09/01 15:54:03 BASE 23.77 19 27.83 22 -3.0 94 -3.9 90 219 976.2 NA 0.0000 M 0 0 0 3840
2017/09/01 15:55:04 BASE 23.37 17 27.01 17 -3.0 94 -3.8 90 220 976.3 NA 0.0000 M 0 0 0 3940
2017/09/01 15:56:03 BASE 24.12 17 28.50 9 -3.0 94 -3.8 92 227 976.1 NA 0.0000 M 0 0 0 4660
2017/09/01 15:57:04 BASE 23.86 17 28.50 9 -3.0 94 -3.8 93 229 976.4 NA 0.0000 M 0 0 0 5150
2017/09/01 15:58:04 BASE 23.01 16 28.50 9 -3.0 94 -3.8 95 232 976.3 NA 0.0000 M 0 0 0 4860
2017/09/01 15:59:04 BASE 22.27 14 28.50 19 -3.0 94 -3.8 97 235 976.4 NA 0.0000 M 0 0 0 4720
2017/09/01 16:00:03 BASE 21.60 13 28.50 19 -3.0 94 -3.8 98 239 976.3 NA 0.0000 M 0 0 0 5770
2017/09/01 16:01:04 BASE 23.74 18 28.96 22 -3.0 94 -3.8 97 236 975.7 NA 0.0000 M 0 0 0 6660
2017/09/01 16:02:04 BASE 25.33 20 28.96 22 -3.0 94 -3.8 96 231 975.9 NA 0.0000 M 0 0 0 7090
2017/09/01 16:03:03 BASE 24.36 17 28.96 22 -2.9 94 -3.8 97 236 976.3 NA 0.0000 M 0 0 0 6230
2017/09/01 16:04:04 BASE 22.84 14 28.96 22 -2.9 94 -3.8 99 241 976.4 NA 0.0000 M 0 0 0 6370
2017/09/01 16:05:04 BASE 20.82 10 28.96 22 -2.9 94 -3.7 101 244 976.3 NA 0.0000 M 0 0 0 6920
2017/09/01 16:06:03 BASE 22.07 13 28.96 22 -2.9 94 -3.7 102 247 975.7 NA 0.0000 M 0 0 0 4460
2017/09/01 16:07:03 BASE 24.59 20 28.96 22 -2.9 94 -3.7 102 244 975.6 NA 0.0000 M 0 0 0 5220
2017/09/01 16:08:04 BASE 24.45 20 28.96 22 -2.9 94 -3.8 100 242 976.0 NA 0.0000 M 0 0 0 6100
2017/09/01 16:09:04 BASE 23.72 15 28.96 22 -3.0 94 -3.8 99 241 976.0 NA 0.0000 M 0 0 0 5410
2017/09/01 16:10:03 BASE 23.52 13 28.96 22 -3.0 94 -3.8 99 241 975.9 NA 0.0000 M 0 0 0 5120
2017/09/01 16:11:04 BASE 22.86 14 27.27 27 -3.0 94 -3.8 99 239 976.1 NA 0.0000 M 0 0 0 4300
2017/09/01 16:12:04 BASE 22.46 15 27.27 27 -3.0 94 -3.9 98 240 976.0 NA 0.0000 M 0 0 0 5120
2017/09/01 16:13:05 BASE 24.05 17 27.27 27 -3.1 94 -3.9 98 239 975.7 NA 0.0000 M 0 0 0 5510
2017/09/01 16:14:04 BASE 23.27 17 27.27 27 -3.1 94 -3.9 96 234 975.9 NA 0.0000 M 0 0 0 5540
2017/09/01 16:15:03 BASE 24.08 18 28.71 15 -3.0 94 -3.9 94 229 975.4 NA 0.0000 M 0 0 0 5510
2017/09/01 16:16:04 BASE 24.86 17 28.71 15 -3.0 94 -3.8 92 225 976.0 NA 0.0000 M 330 0 0 0
2017/09/01 16:17:04 BASE 22.76 12 28.71 15 -3.0 94 -3.8 89 218 976.0 NA 0.0000 M 360 0 0 0
2017/09/01 16:18:03 BASE 24.19 11 30.15 5 -2.9 94 -3.8 86 211 975.3 NA 0.0000 M 0 0 0 6590
2017/09/01 16:19:04 BASE 25.27 12 30.15 5 -2.8 94 -3.7 84 207 975.9 NA 0.0000 M 0 0 0 4660
2017/09/01 16:20:03 BASE 24.52 12 30.15 5 -2.8 93 -3.7 85 209 975.8 NA 0.0000 M 0 0 0 3740
2017/09/01 16:21:04 BASE 24.08 13 30.15 5 -2.8 93 -3.7 86 211 975.8 NA 0.0000 M 0 0 0 4170
2017/09/01 16:22:04 BASE 22.40 14 30.15 5 -2.8 93 -3.7 87 213 976.0 NA 0.0000 M 0 0 0 3940
2017/09/01 16:23:04 BASE 22.51 14 30.15 5 -2.8 93 -3.8 88 214 975.8 NA 0.0000 M 0 0 0 3940
2017/09/01 16:24:04 BASE 23.55 14 30.15 5 -2.8 93 -3.8 89 215 975.7 NA 0.0000 M 0 0 0 4100
2017/09/01 16:25:04 BASE 23.28 17 30.15 5 -2.8 93 -3.8 92 220 975.8 NA 0.0000 M 0 0 0 3350
2017/09/01 16:26:04 BASE 23.02 21 30.15 5 -2.8 93 -3.8 94 225 975.8 NA 0.0000 M 0 0 0 3380
2017/09/01 16:27:03 BASE 23.04 20 30.15 5 -2.8 93 -3.8 96 231 975.7 NA 0.0000 M 0 0 0 3810
2017/09/01 16:28:03 BASE 23.56 21 29.17 16 -2.8 93 -3.7 96 229 975.6 NA 0.0000 M 0 0 0 3480
2017/09/01 16:29:04 BASE 24.90 22 27.68 3 -2.8 93 -3.7 96 229 975.5 NA 0.0000 M 0 0 0 3610
2017/09/01 16:30:03 BASE 24.32 20 27.68 3 -2.8 94 -3.7 96 226 975.9 NA 0.0000 M 0 0 0 3380
2017/09/01 16:31:04 BASE 22.77 18 27.63 24 -2.8 94 -3.6 96 226 975.9 NA 0.0000 M 0 0 0 3310
2017/09/01 16:32:04 BASE 22.42 18 27.63 24 -2.8 94 -3.6 94 223 975.7 NA 0.0000 M 0 0 0 3770
2017/09/01 16:33:03 BASE 23.13 20 27.63 24 -2.8 94 -3.6 94 222 975.6 NA 0.0000 M 0 0 0 3510
2017/09/01 16:34:04 BASE 23.95 21 27.63 24 -2.8 94 -3.6 94 222 975.6 NA 0.0000 M 0 0 0 4950
2017/09/01 16:35:04 BASE 24.17 20 27.63 24 -2.8 94 -3.6 94 223 975.5 NA 0.0000 M 0 0 0 2200
2017/09/01 16:36:04 BASE 24.10 19 27.63 24 -2.8 94 -3.6 93 221 975.5 NA 0.0000 M 0 0 0 2300
2017/09/01 16:37:04 BASE 23.62 16 27.63 24 -2.7 94 -3.6 92 218 975.6 NA 0.0000 M 0 0 0 1770
2017/09/01 16:38:04 BASE 23.93 16 27.63 24 -2.7 94 -3.5 90 214 975.5 NA 0.0000 M 0 0 0 1870
2017/09/01 16:39:04 BASE 23.99 17 27.57 21 -2.7 94 -3.5 88 211 975.4 NA 0.0000 M 0 0 0 1870
2017/09/01 16:40:03 BASE 24.00 19 27.57 21 -2.6 94 -3.5 89 211 975.4 NA 0.0000 M 0 0 0 1800
2017/09/01 16:41:04 BASE 23.48 21 27.57 21 -2.6 94 -3.4 88 211 975.5 NA 0.0000 M 0 0 0 2200
2017/09/01 16:42:03 BASE 22.10 20 27.57 21 -2.5 94 -3.4 88 210 975.5 NA 0.0000 M 24350 0 0 0
2017/09/01 16:43:03 BASE 22.52 19 27.57 21 -2.5 94 -3.4 88 210 975.5 NA 0.0000 M 0 0 0 2690
2017/09/01 16:44:04 BASE 23.28 19 27.57 21 -2.5 94 -3.3 88 207 975.4 NA 0.0000 M 0 0 0 2400
2017/09/01 16:45:03 BASE 23.50 20 27.27 19 -2.5 94 -3.3 89 211 975.3 NA 0.0000 M 0 0 0 2530
2017/09/01 16:46:03 BASE 23.72 19 27.27 19 -2.5 94 -3.3 89 210 975.5 NA 0.0000 M 0 0 0 3150
2017/09/01 16:47:04 BASE 23.21 18 27.27 19 -2.5 94 -3.3 89 211 975.5 NA 0.0000 M 0 0 0 3250
2017/09/01 16:48:04 BASE 23.34 17 27.37 15 -2.5 94 -3.3 88 209 975.3 NA 0.0000 M 0 0 0 3080
2017/09/01 16:49:04 BASE 23.25 18 27.37 15 -2.5 94 -3.3 89 210 975.4 NA 0.0000 M 0 0 0 3020
2017/09/01 16:50:03 BASE 23.11 19 27.37 15 -2.5 94 -3.3 89 211 975.3 NA 0.0000 M 0 0 0 3120
2017/09/01 16:51:03 BASE 23.99 18 27.37 15 -2.5 94 -3.3 89 212 975.2 NA 0.0000 M 0 0 0 3310
2017/09/01 16:52:03 BASE 24.38 18 27.37 15 -2.5 94 -3.3 90 215 975.2 NA 0.0000 M 0 0 0 3250
2017/09/01 16:53:04 BASE 23.59 15 27.37 15 -2.5 94 -3.3 90 215 975.3 NA 0.0000 M 0 0 0 3380
2017/09/01 16:54:03 BASE 23.01 14 27.37 15 -2.5 94 -3.3 91 216 975.3 NA 0.0000 M 0 0 0 2890
2017/09/01 16:55:03 BASE 22.53 16 27.37 15 -2.5 94 -3.3 92 217 975.3 NA 0.0000 M 0 0 0 3810
2017/09/01 16:56:04 BASE 22.85 18 27.37 15 -2.5 94 -3.4 93 217 975.1 NA 0.0000 M 0 0 0 4200
2017/09/01 16:57:04 BASE 23.92 18 27.52 19 -2.5 94 -3.4 92 216 975.0 NA 0.0000 M 0 0 0 4660
2017/09/01 16:58:03 BASE 24.49 19 28.35 18 -2.6 94 -3.4 92 217 974.9 NA 0.0000 M 0 0 0 4130
2017/09/01 16:59:03 BASE 24.19 18 28.35 18 -2.6 94 -3.4 89 212 975.2 NA 0.0000 M 0 0 0 3810
2017/09/01 17:00:03 BASE 23.23 16 28.35 18 -2.6 94 -3.4 88 210 975.1 NA 0.0000 M 0 0 0 3810
2017/09/01 17:01:04 BASE 23.64 16 28.35 18 -2.6 94 -3.4 88 207 975.0 NA 0.0000 M 0 0 0 3640
2017/09/01 17:02:04 BASE 23.87 19 28.35 18 -2.5 94 -3.4 87 204 975.0 NA 0.0000 M 0 0 0 3640
2017/09/01 17:03:03 BASE 23.29 20 28.35 18 -2.5 94 -3.4 88 207 975.1 NA 0.0000 M 0 0 0 3640
2017/09/01 17:04:03 BASE 22.88 19 28.35 18 -2.5 94 -3.3 90 210 975.1 NA 0.0000 M 0 0 0 3740
2017/09/01 17:05:04 BASE 23.47 19 28.55 17 -2.5 94 -3.3 89 211 974.9 NA 0.0000 M 0 0 0 4590
2017/09/01 17:06:03 BASE 24.58 18 28.55 17 -2.4 94 -3.3 85 201 974.9 NA 0.0000 M 0 0 0 4040
2017/09/01 17:07:04 BASE 24.42 18 28.55 17 -2.4 94 -3.3 82 198 975.0 NA 0.0000 M 0 0 0 2000
2017/09/01 17:08:03 BASE 24.98 18 29.84 17 -2.4 94 -3.3 83 195 974.9 NA 0.0000 M 0 0 0 1540
2017/09/01 17:09:04 BASE 25.71 18 29.84 17 -2.5 94 -3.3 84 198 975.0 NA 0.0000 M 230 0 0 0
2017/09/01 17:10:03 BASE 24.71 18 29.84 17 -2.5 94 -3.3 84 196 975.1 NA 0.0000 M 0 0 0 1510
2017/09/01 17:11:04 BASE 23.06 19 29.84 17 -2.5 94 -3.3 84 197 975.1 NA 0.0000 M 0 0 0 1350
2017/09/01 17:12:04 BASE 22.84 18 29.84 17 -2.5 94 -3.4 85 195 975.0 NA 0.0000 M 0 0 0 1440
2017/09/01 17:13:05 BASE 23.67 16 29.84 17 -2.5 94 -3.3 85 197 975.0 NA 0.0000 M 0 0 0 1770
2017/09/01 17:14:04 BASE 23.27 16 29.84 17 -2.5 94 -3.3 86 198 975.2 NA 0.0000 M 0 0 0 1710
2017/09/01 17:15:03 BASE 22.64 16 29.84 17 -2.5 95 -3.3 84 196 975.3 NA 0.2540 M 0 0 0 1740
2017/09/01 17:16:03 BASE 23.25 17 29.84 17 -2.5 95 -3.3 81 192 975.1 NA 0.0000 M 0 0 0 1740
2017/09/01 17:17:04 BASE 23.09 18 29.84 17 -2.5 95 -3.2 80 187 975.3 NA 0.0000 M 0 0 0 2030
2017/09/01 17:18:03 BASE 23.25 20 28.96 21 -2.5 95 -3.2 81 188 975.0 NA 0.0000 M 0 0 0 2130
2017/09/01 17:19:04 BASE 24.13 22 28.96 21 -2.5 95 -3.1 80 186 975.1 NA 0.0000 M 0 0 0 2360
2017/09/01 17:20:03 BASE 23.06 22 28.96 21 -2.4 96 -3.1 79 185 975.2 NA 0.0000 M 0 0 0 2460
2017/09/01 17:21:04 BASE 22.11 19 28.96 21 -2.4 96 -3.0 78 182 975.3 NA 0.0000 M 0 0 0 2200
2017/09/01 17:22:04 BASE 21.85 16 28.96 21 -2.4 96 -2.9 79 179 975.4 NA 0.0000 M 0 0 0 2260
2017/09/01 17:23:04 BASE 21.85 15 28.96 21 -2.4 96 -2.9 82 186 975.4 NA 0.0000 M 0 0 0 2560
2017/09/01 17:24:04 BASE 22.70 19 28.96 21 -2.3 96 -2.9 82 187 975.1 NA 0.0000 M 0 0 0 2560
2017/09/01 17:25:04 BASE 22.43 19 28.96 21 -2.3 96 -2.8 83 187 975.3 NA 0.0000 M 0 0 0 3080
2017/09/01 17:26:04 BASE 21.35 18 28.96 21 -2.2 96 -2.7 83 189 975.2 NA 0.0000 M 0 0 0 2720
2017/09/01 17:27:04 BASE 20.62 19 28.96 21 -2.1 96 -2.7 85 190 975.2 NA 0.0000 M 21920 0 0 0
2017/09/01 17:28:03 BASE 22.33 19 27.78 14 -2.0 96 -2.6 84 193 974.6 NA 0.0000 M 0 0 0 4200
2017/09/01 17:29:04 BASE 25.21 19 27.93 17 -2.0 96 -2.5 80 183 974.7 NA 0.0000 M 0 0 0 4130
2017/09/01 17:30:03 BASE 24.36 19 27.93 17 -2.0 96 -2.5 79 180 975.1 NA 0.0000 M 0 0 0 3350
2017/09/01 17:31:04 BASE 24.24 19 29.01 17 -2.0 96 -2.5 77 178 974.7 NA 0.2540 M 0 0 0 3810
2017/09/01 17:32:04 BASE 24.10 18 29.01 17 -2.0 96 -2.5 75 172 974.9 NA 0.0000 M 0 0 0 3770
2017/09/01 17:33:04 BASE 22.28 16 29.01 17 -2.0 96 -2.5 76 170 974.9 NA 0.0000 M 0 0 0 3310
2017/09/01 17:34:04 BASE 21.75 14 29.01 17 -2.0 96 -2.6 79 173 974.9 NA 0.0000 M 0 0 0 2490
2017/09/01 17:35:03 BASE 23.00 16 29.01 17 -2.0 96 -2.6 79 180 974.6 NA 0.0000 M 0 0 0 2400
2017/09/01 17:36:03 BASE 24.19 20 29.01 17 -2.0 96 -2.6 78 176 974.6 NA 0.0000 M 0 0 0 2300
2017/09/01 17:37:03 BASE 23.74 18 29.01 17 -2.1 96 -2.6 78 176 974.7 NA 0.0000 M 0 0 0 1970
2017/09/01 17:38:04 BASE 23.74 17 29.01 17 -2.1 96 -2.7 79 176 974.4 NA 0.0000 M 0 0 0 2100
2017/09/01 17:39:04 BASE 24.45 17 29.01 17 -2.1 96 -2.7 79 177 974.5 NA 0.0000 M 0 0 0 3610
2017/09/01 17:40:03 BASE 25.17 18 29.01 17 -2.1 96 -2.7 77 177 974.2 NA 0.0000 M 0 0 0 3940
2017/09/01 17:41:04 BASE 25.70 20 28.76 17 -2.1 96 -2.7 76 172 974.4 NA 0.0000 M 0 0 0 3610
2017/09/01 17:42:03 BASE 23.88 20 28.76 17 -2.1 96 -2.7 78 173 974.7 NA 0.0000 M 0 0 0 3350
2017/09/01 17:43:04 BASE 24.34 18 29.73 28 -2.1 96 -2.7 76 171 974.1 NA 0.0000 M 0 0 0 3580
2017/09/01 17:44:04 BASE 25.86 16 29.73 28 -2.1 96 -2.7 74 167 974.6 NA 0.0000 M 0 0 0 3350
2017/09/01 17:45:04 BASE 24.20 16 29.73 28 -2.1 96 -2.7 73 164 974.7 NA 0.2540 M 0 0 0 3450
2017/09/01 17:46:03 BASE 22.69 15 29.73 28 -2.1 96 -2.6 70 159 974.9 NA 0.0000 M 0 0 0 3220
2017/09/01 17:47:04 BASE 22.45 13 29.73 28 -2.1 96 -2.6 69 154 974.7 NA 0.0000 M 0 0 0 2890
2017/09/01 17:48:04 BASE 23.31 14 29.73 28 -2.0 96 -2.6 68 153 974.5 NA 0.0000 M 0 0 0 2760
2017/09/01 17:49:04 BASE 24.79 19 29.73 28 -2.0 96 -2.5 68 152 974.3 NA 0.0000 M 0 0 0 3150
2017/09/01 17:50:03 BASE 25.85 23 29.73 28 -2.0 96 -2.5 69 154 974.4 NA 0.0000 M 0 0 0 3150
2017/09/01 17:51:04 BASE 24.80 22 29.73 28 -1.9 96 -2.5 69 154 974.8 NA 0.0000 M 0 0 0 3280
2017/09/01 17:52:04 BASE 24.08 19 29.73 28 -1.9 96 -2.5 69 155 974.7 NA 0.0000 M 0 0 0 3380
2017/09/01 17:53:04 BASE 23.77 14 29.27 13 -1.8 95 -2.5 69 154 974.8 NA 0.0000 M 0 0 0 3940
2017/09/01 17:54:04 BASE 23.54 17 28.04 22 -1.8 95 -2.5 68 153 974.6 NA 0.0000 M 0 0 0 3640
2017/09/01 17:55:03 BASE 24.27 22 28.04 22 -1.8 95 -2.5 67 150 974.5 NA 0.0000 M 0 0 0 3480
2017/09/01 17:56:03 BASE 24.19 22 28.04 22 -1.8 95 -2.5 67 151 974.6 NA 0.0000 M 0 0 0 3450
2017/09/01 17:57:04 BASE 23.67 19 28.04 22 -1.8 95 -2.5 64 147 974.7 NA 0.2540 M 0 0 0 3870
2017/09/01 17:58:04 BASE 23.07 16 28.04 22 -1.8 95 -2.5 61 137 974.9 NA 0.0000 M 0 0 0 3080
2017/09/01 17:59:04 BASE 22.12 18 28.04 22 -1.8 95 -2.5 59 134 974.8 NA 0.0000 M 820 0 0 0
2017/09/01 18:00:04 BASE 23.11 19 27.68 24 -1.8 95 -2.5 59 136 974.4 NA 0.0000 M 0 0 0 2790
2017/09/01 18:01:04 BASE 24.78 21 27.68 24 -1.8 95 -2.5 64 140 974.4 NA 0.0000 M 260 0 0 0
2017/09/01 18:02:04 BASE 23.76 23 27.68 24 -1.8 95 -2.5 66 146 974.7 NA 0.0000 M 0 0 0 2850
2017/09/01 18:03:04 BASE 22.74 20 27.68 24 -1.8 95 -2.5 67 151 974.6 NA 0.0000 M 0 0 0 3250
2017/09/01 18:04:04 BASE 22.34 16 27.63 20 -1.8 95 -2.5 68 149 974.7 NA 0.0000 M 0 0 0 3380
2017/09/01 18:05:04 BASE 22.48 16 27.63 20 -1.8 95 -2.5 69 151 974.6 NA 0.0000 M 0 0 0 1840
2017/09/01 18:06:04 BASE 23.14 17 27.63 20 -1.8 95 -2.5 69 156 974.4 NA 0.0000 M 0 0 0 1800
2017/09/01 18:07:04 BASE 23.07 19 27.63 20 -1.8 95 -2.5 69 151 974.3 NA 0.0000 M 0 0 0 1940
2017/09/01 18:08:04 BASE 23.08 21 27.63 20 -1.8 95 -2.5 69 152 974.4 NA 0.0000 M 0 0 0 1940
2017/09/01 18:09:04 BASE 23.36 21 27.63 20 -1.8 95 -2.5 69 150 974.3 NA 0.2540 M 0 0 0 2100
2017/09/01 18:10:03 BASE 24.02 21 27.06 24 -1.8 95 -2.5 66 145 974.3 NA 0.0000 M 0 0 0 1770
2017/09/01 18:11:04 BASE 25.46 19 29.12 12 -1.9 95 -2.5 64 136 974.1 NA 0.0000 M 0 0 0 1670
2017/09/01 18:12:04 BASE 26.83 18 29.12 12 -1.9 95 -2.5 61 130 974.3 NA 0.0000 M 0 0 0 1870
2017/09/01 18:13:05 BASE 23.81 11 29.12 12 -1.9 96 -2.5 57 124 975.1 NA 0.0000 M 0 0 0 1740
2017/09/01 18:14:00 BASE 20.28 7 29.12 12 -1.9 96 -2.5 55 116 975.2 NA 0.0000 M 0 0 0 1380
2017/09/01 18:15:04 BASE 20.18 11 29.12 12 -1.9 96 -2.5 54 110 974.8 NA 0.0000 M 0 0 0 1410
2017/09/01 18:16:04 BASE 22.61 18 29.12 12 -1.9 96 -2.5 51 106 974.2 NA 0.0000 M 0 0 0 1480
2017/09/01 18:17:04 BASE 24.88 20 29.12 12 -1.9 96 -2.4 52 103 974.1 NA 0.0000 M 0 0 0 1480
2017/09/01 18:18:04 BASE 25.46 22 29.12 12 -1.9 96 -2.4 53 100 974.3 NA 0.0000 M 0 0 0 1540
2017/09/01 18:19:04 BASE 25.60 23 29.37 19 -1.8 96 -2.4 53 106 974.0 NA 0.0000 M 0 0 0 1350
2017/09/01 18:20:04 BASE 25.43 23 29.37 19 -1.8 96 -2.3 59 112 974.2 NA 0.0000 M 0 0 0 1350
2017/09/01 18:21:04 BASE 24.64 23 29.37 19 -1.8 97 -2.3 62 117 974.4 NA 0.0000 M 0 0 0 1510
2017/09/01 18:22:04 BASE 23.36 21 29.37 19 -1.8 97 -2.3 61 119 974.7 NA 0.0000 M 0 0 0 1570
2017/09/01 18:23:04 BASE 22.17 21 29.37 19 -1.9 97 -2.3 63 122 974.7 NA 0.0000 M 0 0 0 1380
2017/09/01 18:24:04 BASE 21.73 17 29.37 19 -1.9 97 -2.3 61 119 974.7 NA 0.0000 M 0 0 0 1840
2017/09/01 18:25:03 BASE 23.58 16 29.37 19 -1.9 97 -2.3 62 121 973.8 NA 0.2540 M 0 0 0 1840
2017/09/01 18:26:04 BASE 26.33 19 29.63 17 -1.9 97 -2.3 62 120 973.8 NA 0.0000 M 0 0 0 1970
2017/09/01 18:27:04 BASE 23.89 16 29.63 17 -1.9 98 -2.3 57 108 974.8 NA 0.0000 M 0 0 0 3250
2017/09/01 18:28:03 BASE 19.58 9 29.63 17 -1.9 98 -2.2 57 106 974.9 NA 0.0000 M 0 0 0 2400
2017/09/01 18:29:04 BASE 19.37 9 29.63 17 -1.9 98 -2.2 59 109 974.4 NA 0.0000 M 0 0 0 1640
2017/09/01 18:30:03 BASE 21.58 16 29.63 17 -1.9 98 -2.2 60 110 973.8 NA 0.0000 M 22110 0 0 0
2017/09/01 18:31:04 BASE 24.75 21 29.63 17 -1.9 98 -2.2 62 114 973.5 NA 0.0000 M 0 0 0 1670
2017/09/01 18:32:03 BASE 26.02 22 29.63 17 -1.9 98 -2.2 62 108 973.9 NA 0.0000 M 0 0 0 1870
2017/09/01 18:33:04 BASE 23.82 18 29.63 17 -1.9 98 -2.2 61 114 974.1 NA 0.0000 M 0 0 0 4530
2017/09/01 18:34:04 BASE 23.89 16 29.63 17 -1.9 98 -2.2 60 106 973.7 NA 0.0000 M 0 0 0 2720
2017/09/01 18:35:04 BASE 25.60 18 29.63 17 -1.9 98 -2.2 59 105 973.6 NA 0.0000 M 0 0 0 2000
2017/09/01 18:36:03 BASE 25.32 17 29.48 22 -1.9 98 -2.2 59 103 973.8 NA 0.0000 M 0 0 0 2200
2017/09/01 18:37:04 BASE 24.36 18 29.48 22 -1.9 98 -2.2 58 103 973.9 NA 0.0000 M 0 0 0 2100
2017/09/01 18:38:04 BASE 24.45 19 29.48 22 -1.9 98 -2.2 56 98 973.7 NA 0.5080 M 0 0 0 1570
2017/09/01 18:39:04 BASE 25.85 20 29.73 26 -1.9 98 -2.2 53 91 973.6 NA 0.0000 M 0 0 0 1740
2017/09/01 18:40:03 BASE 26.05 18 29.73 26 -1.9 98 -2.2 50 84 973.9 NA 0.0000 M 0 0 0 1480
2017/09/01 18:41:04 BASE 25.18 19 29.73 26 -1.9 98 -2.2 48 78 973.9 NA 0.0000 M 0 0 0 1770
2017/09/01 18:42:04 BASE 24.62 20 29.73 26 -1.9 98 -2.2 49 83 973.9 NA 0.0000 M 0 0 0 2260
2017/09/01 18:43:03 BASE 24.46 17 29.73 26 -1.9 98 -2.2 49 84 973.9 NA 0.0000 M 0 0 0 2490
2017/09/01 18:44:04 BASE 25.16 15 29.73 26 -1.9 98 -2.2 49 78 973.8 NA 0.0000 M 0 0 0 2720
2017/09/01 18:45:03 BASE 25.79 18 29.73 26 -1.9 98 -2.2 49 78 973.7 NA 0.0000 M 0 0 0 2590
2017/09/01 18:46:03 BASE 24.26 16 29.73 26 -1.9 98 -2.2 50 81 974.1 NA 0.0000 M 0 0 0 2460
2017/09/01 18:47:04 BASE 23.42 16 29.73 26 -1.9 98 -2.2 47 73 974.1 NA 0.0000 M 0 0 0 1940
2017/09/01 18:48:04 BASE 24.55 17 29.73 26 -2.0 98 -2.2 44 66 973.9 NA 0.0000 M 0 0 0 1250
2017/09/01 18:49:04 BASE 24.15 17 28.40 17 -2.0 99 -2.2 43 62 973.9 NA 0.0000 M 0 0 0 1050
2017/09/01 18:50:03 BASE 22.69 16 28.40 17 -2.0 99 -2.2 42 62 974.0 NA 0.0000 M 0 0 0 980
2017/09/01 18:51:04 BASE 22.54 18 28.40 17 -2.0 99 -2.1 43 63 974.1 NA 0.0000 M 0 0 0 950
2017/09/01 18:52:04 BASE 22.99 21 28.40 17 -2.0 99 -2.2 45 67 974.0 NA 0.0000 M 0 0 0 1510
2017/09/01 18:53:04 BASE 22.63 22 28.40 17 -2.0 99 -2.2 45 65 973.9 NA 0.0000 M 0 0 0 2030
2017/09/01 18:54:05 BASE 22.57 21 28.40 17 -2.0 99 -2.2 44 62 974.0 NA 0.5080 M 0 0 0 2260
2017/09/01 18:55:04 BASE 23.16 20 28.19 11 -2.0 99 -2.2 42 60 974.0 NA 0.0000 M 0 0 0 2000
2017/09/01 18:56:04 BASE 21.63 17 27.16 17 -2.0 99 -2.2 39 51 974.4 NA 0.0000 M 0 0 0 1870
2017/09/01 18:57:04 BASE 19.84 15 26.96 14 -2.0 99 -2.1 37 47 974.3 NA 0.0000 M 0 0 0 1410
2017/09/01 18:58:04 BASE 21.01 16 25.98 22 -2.0 99 -2.1 37 50 973.9 NA 0.0000 M 0 0 0 1120
2017/09/01 18:59:04 BASE 23.33 18 27.11 16 -2.0 99 -2.1 38 49 973.6 NA 0.0000 M 0 0 0 1150
2017/09/01 19:00:04 BASE 25.23 22 28.55 27 -2.0 99 -2.1 35 41 973.6 NA 0.0000 M 0 0 0 1480
2017/09/01 19:01:04 BASE 25.54 22 28.55 27 -1.9 99 -2.0 34 28 973.9 NA 0.0000 M 0 0 0 1280
2017/09/01 19:02:04 BASE 22.05 16 28.55 27 -1.9 100 -1.9 33 34 974.6 NA 0.0000 M 0 0 0 1380
2017/09/01 19:03:05 BASE 19.01 12 28.55 27 -1.8 100 -1.9 33 34 974.6 NA 0.0000 M 0 0 0 1080
2017/09/01 19:04:04 BASE 19.32 12 28.55 27 -1.8 100 -1.8 33 32 974.5 NA 0.0000 M 0 0 0 1080
2017/09/01 19:05:03 BASE 19.61 17 28.55 27 -1.8 100 -1.8 31 27 974.5 NA 0.0000 M 0 0 0 1050
2017/09/01 19:06:04 BASE 19.15 16 28.55 27 -1.8 100 -1.8 28 22 974.6 NA 0.0000 M 0 0 0 1020
2017/09/01 19:07:04 BASE 20.10 15 28.55 27 -1.8 100 -1.8 25 14 974.5 NA 0.0000 M 0 0 0 1120
2017/09/01 19:08:04 BASE 21.44 16 28.55 27 -1.8 100 -1.8 25 17 974.4 NA 0.0000 M 0 0 0 950
2017/09/01 19:09:04 BASE 20.80 18 28.55 27 -1.8 100 -1.8 24 12 974.4 NA 0.0000 M 0 0 0 850
2017/09/01 19:10:03 BASE 20.34 23 27.47 19 -1.8 100 -1.8 24 13 974.3 NA 0.0000 M 0 0 0 750
2017/09/01 19:11:04 BASE 20.40 23 24.44 20 -1.8 100 -1.8 22 14 974.4 NA 0.0000 M 0 0 0 790
2017/09/01 19:12:04 BASE 20.90 20 24.54 13 -1.8 100 -1.8 21 8 974.2 NA 0.0000 M 0 0 0 790
2017/09/01 19:13:05 BASE 21.74 16 24.54 13 -1.8 100 -1.8 22 6 974.2 NA 0.0000 M 0 0 0 690
2017/09/01 19:14:01 BASE 22.16 15 25.41 11 -1.8 100 -1.8 21 6 974.3 NA 0.0000 M 0 0 0 750
2017/09/01 19:15:03 BASE 21.39 11 25.41 11 -1.8 100 -1.8 20 2 974.4 NA 0.0000 M 0 0 0 750
2017/09/01 19:16:03 BASE 19.50 11 25.41 11 -1.8 100 -1.8 20 1 974.5 NA 0.0000 M 0 0 0 790
2017/09/01 19:17:04 BASE 20.33 15 25.41 11 -1.7 100 -1.7 21 2 974.2 NA 0.5080 M 0 0 0 720
2017/09/01 19:18:03 BASE 22.51 17 25.41 11 -1.7 100 -1.7 22 5 974.2 NA 0.0000 M 0 0 0 560
2017/09/01 19:19:04 BASE 22.32 14 25.41 11 -1.7 100 -1.7 21 0 974.1 NA 0.0000 M 0 0 0 560
2017/09/01 19:20:03 BASE 21.55 13 25.41 11 -1.6 100 -1.6 21 1 974.1 NA 0.0000 4200 0 0 0 460
2017/09/01 19:21:04 BASE 21.49 15 25.41 11 -1.6 100 -1.6 20 0 974.1 NA 0.0000 -SN 3300 0 0 0 460
2017/09/01 19:22:03 BASE 22.55 18 25.57 22 -1.6 100 -1.6 20 1 973.9 NA 0.0000 -SN 3400 0 0 0 490
2017/09/01 19:23:04 BASE 24.38 20 26.85 23 -1.7 100 -1.7 20 1 973.7 NA 0.0000 -SN 3400 0 0 0 460
2017/09/01 19:24:04 BASE 24.07 21 26.85 23 -1.7 100 -1.7 19 1 973.9 NA 0.0000 -SN 3100 0 0 0 590
2017/09/01 19:25:04 BASE 22.96 21 26.85 23 -1.7 100 -1.7 19 3 974.0 NA 0.0000 -SN 3000 0 0 0 620
2017/09/01 19:26:04 BASE 22.90 20 26.85 23 -1.7 100 -1.7 19 3 974.1 NA 0.0000 -SN 2400 0 0 0 590
2017/09/01 19:27:04 BASE 21.62 18 26.85 23 -1.7 100 -1.7 19 1 974.3 NA 0.0000 -SN BR 2600 0 0 0 520
2017/09/01 19:28:04 BASE 20.25 15 26.85 23 -1.8 100 -1.8 19 3 974.3 NA 0.0000 -SN BR 3800 0 0 0 490
2017/09/01 19:29:04 BASE 21.28 15 26.85 23 -1.8 100 -1.8 19 2 974.0 NA 0.0000 -SN BR 4000 0 0 0 460
2017/09/01 19:30:03 BASE 22.58 16 26.85 23 -1.8 100 -1.8 18 0 974.0 NA 0.0000 -SN BR 3600 0 0 0 490
2017/09/01 19:31:04 BASE 21.67 17 26.85 23 -1.8 100 -1.8 17 1 974.2 NA 0.0000 -SN BR M 0 0 0 520
2017/09/01 19:32:04 BASE 20.35 18 26.85 23 -1.8 100 -1.8 18 0 974.2 NA 0.0000 -SN BR M 0 0 0 520
2017/09/01 19:33:04 BASE 21.15 18 26.60 22 -1.7 100 -1.7 17 0 974.0 NA 0.0000 -SN M 0 0 0 620
2017/09/01 19:34:04 BASE 21.81 17 26.13 13 -1.7 100 -1.7 17 0 974.0 NA 0.0000 -SN M 0 0 0 620
2017/09/01 19:35:03 BASE 21.57 20 26.13 13 -1.7 100 -1.7 17 0 973.9 NA 0.0000 -SN M 0 0 0 620
2017/09/01 19:36:04 BASE 22.39 20 26.91 16 -1.7 100 -1.7 19 0 973.8 NA 0.0000 -SN M 0 0 0 620
2017/09/01 19:37:04 BASE 22.60 19 26.91 16 -1.7 100 -1.7 20 3 973.8 NA 0.0000 M 0 0 0 720
2017/09/01 19:38:04 BASE 21.64 19 26.91 16 -1.7 100 -1.7 20 2 974.0 NA 0.0000 M 0 0 0 850
2017/09/01 19:39:04 BASE 21.28 16 26.91 16 -1.7 100 -1.7 20 3 973.7 NA 0.0000 M 0 0 0 690
2017/09/01 19:40:03 BASE 21.67 15 26.91 16 -1.7 100 -1.7 20 4 973.8 NA 0.0000 M 0 0 0 660
2017/09/01 19:41:04 BASE 21.90 17 26.91 16 -1.7 100 -1.7 22 8 973.7 NA 0.0000 M 0 0 0 620
2017/09/01 19:42:04 BASE 22.24 17 26.91 16 -1.7 100 -1.7 22 9 973.8 NA 0.0000 M 0 0 0 790
2017/09/01 19:43:05 BASE 21.78 17 26.91 16 -1.7 100 -1.7 22 5 973.9 NA 0.0000 M 0 0 0 820
2017/09/01 19:44:04 BASE 21.13 17 26.91 16 -1.7 100 -1.7 20 1 973.9 NA 0.0000 M 0 0 0 890
2017/09/01 19:45:04 BASE 20.19 17 26.91 16 -1.7 100 -1.7 20 1 974.0 NA 0.0000 M 0 0 0 890
2017/09/01 19:46:04 BASE 20.08 19 24.74 15 -1.7 100 -1.7 21 4 973.8 NA 0.0000 M 0 0 0 790
2017/09/01 19:47:04 BASE 20.44 20 24.74 15 -1.7 100 -1.7 22 6 973.8 NA 0.0000 M 0 0 0 790
2017/09/01 19:48:04 BASE 20.82 19 24.74 15 -1.7 100 -1.7 23 6 973.5 NA 0.0000 M 0 0 0 850
2017/09/01 19:49:05 BASE 21.44 19 24.74 15 -1.7 100 -1.7 24 5 973.5 NA 0.0000 M 0 0 0 1050
2017/09/01 19:50:03 BASE 23.49 21 27.68 22 -1.7 100 -1.7 24 6 973.0 NA 0.0000 M 0 0 0 1080
2017/09/01 19:51:04 BASE 24.68 21 27.68 22 -1.7 100 -1.7 23 4 973.2 NA 0.0000 M 0 0 0 1050
2017/09/01 19:52:04 BASE 23.69 18 27.68 22 -1.6 100 -1.6 23 0 973.2 NA 0.0000 M 0 0 0 1050
2017/09/01 19:53:04 BASE 24.02 17 27.68 22 -1.6 100 -1.6 23 0 973.2 NA 0.0000 M 0 0 0 1210
2017/09/01 19:54:04 BASE 24.10 20 27.68 22 -1.6 100 -1.6 21 0 973.3 NA 0.0000 M 0 0 0 1210
2017/09/01 19:55:04 BASE 22.88 20 27.68 22 -1.6 100 -1.6 20 0 973.3 NA 0.0000 M 0 0 0 1020
2017/09/01 19:56:03 BASE 22.72 17 27.68 22 -1.7 100 -1.7 19 0 973.3 NA 0.0000 M 0 0 0 850
2017/09/01 19:57:04 BASE 23.54 16 27.68 22 -1.7 100 -1.7 18 0 973.2 NA 0.0000 M 0 0 0 1020
2017/09/01 19:58:03 BASE 23.99 17 27.68 22 -1.6 100 -1.6 17 0 973.1 NA 0.0000 M 0 0 0 1180
2017/09/01 19:59:04 BASE 24.08 19 27.68 22 -1.6 100 -1.6 16 0 973.3 NA 0.0000 M 0 0 0 1210
2017/09/01 20:00:04 BASE 23.05 22 27.47 23 -1.6 100 -1.6 15 0 973.4 NA 0.0000 M 0 0 0 850
2017/09/01 20:01:04 BASE 22.47 20 27.47 23 -1.5 100 -1.5 15 0 973.3 NA 0.0000 M 0 0 0 1080
2017/09/01 20:02:04 BASE 22.14 19 27.47 23 -1.5 100 -1.5 16 0 973.4 NA 0.0000 M 0 0 0 980
2017/09/01 20:03:04 BASE 21.57 19 26.80 17 -1.5 100 -1.5 16 0 973.4 NA 0.0000 M 0 0 0 1050
2017/09/01 20:04:04 BASE 22.05 20 26.55 21 -1.5 100 -1.5 15 0 973.3 NA 0.0000 M 0 0 0 920
2017/09/01 20:05:04 BASE 21.98 20 26.55 21 -1.5 100 -1.5 15 0 973.4 NA 0.0000 M 0 0 0 1210
2017/09/01 20:06:04 BASE 21.43 17 26.55 21 -1.5 100 -1.5 14 0 973.4 NA 0.0000 M 0 0 0 1250
2017/09/01 20:07:04 BASE 21.62 15 26.55 21 -1.5 100 -1.5 14 0 973.4 NA 0.0000 M 0 0 0 1210
2017/09/01 20:08:04 BASE 21.94 17 27.57 9 -1.5 100 -1.5 13 0 973.3 NA 0.0000 M 0 0 0 1180
2017/09/01 20:09:04 BASE 23.71 18 27.57 9 -1.4 100 -1.4 13 0 973.1 NA 0.0000 M 0 0 0 1310
2017/09/01 20:10:03 BASE 23.41 19 27.57 9 -1.3 100 -1.3 12 0 973.4 NA 0.0000 M 0 0 0 1410
2017/09/01 20:11:04 BASE 22.56 18 27.57 9 -1.3 100 -1.3 12 0 973.2 NA 0.0000 M 0 0 0 1250
2017/09/01 20:12:04 BASE 23.49 19 27.57 9 -1.3 100 -1.3 11 0 973.3 NA 0.0000 M 0 0 0 950
2017/09/01 20:13:05 BASE 22.35 20 27.57 9 -1.3 100 -1.3 11 0 973.4 NA 0.0000 M 0 0 0 790
2017/09/01 20:14:04 BASE 21.69 21 27.57 9 -1.3 100 -1.3 11 0 973.4 NA 0.0000 M 0 0 0 790
2017/09/01 20:15:04 BASE 22.38 23 27.57 9 -1.4 100 -1.4 11 0 973.3 NA 0.0000 7000 0 0 0 850
2017/09/01 20:16:04 BASE 22.40 22 27.57 9 -1.4 100 -1.4 11 0 973.3 NA 0.0000 -SN 9000 0 0 0 950
2017/09/01 20:17:04 BASE 22.76 20 27.57 9 -1.5 100 -1.5 11 0 973.1 NA 0.0000 -SN 9999 0 0 0 980
2017/09/01 20:18:04 BASE 23.33 21 27.21 20 -1.5 100 -1.5 11 0 973.1 NA 0.0000 -SN 9999 0 0 0 1080
2017/09/01 20:19:04 BASE 23.29 21 26.85 22 -1.5 100 -1.5 11 0 973.1 NA 0.0000 -SN 9999 0 0 0 950
2017/09/01 20:20:03 BASE 22.18 21 26.85 22 -1.5 100 -1.5 11 0 973.3 NA 0.0000 -SN 9999 0 0 0 1020
2017/09/01 20:21:04 BASE 22.06 20 26.85 22 -1.5 100 -1.5 11 0 973.2 NA 0.0000 -SN 9999 0 0 0 1020
2017/09/01 20:22:04 BASE 22.40 20 25.93 34 -1.5 100 -1.5 10 0 973.3 NA 0.0000 -SN 9999 0 0 0 1180
2017/09/01 20:23:04 BASE 21.59 21 25.93 34 -1.4 100 -1.4 10 0 973.4 NA 0.0000 -SN 9999 0 0 0 1050
2017/09/01 20:24:04 BASE 20.82 21 25.93 34 -1.4 100 -1.4 10 0 973.5 NA 0.0000 -SN 9999 0 0 0 1150
2017/09/01 20:25:04 BASE 21.08 22 25.93 34 -1.4 100 -1.4 9 0 973.3 NA 0.0000 -SN 9999 0 0 0 1050
2017/09/01 20:26:04 BASE 21.77 22 25.93 34 -1.5 100 -1.5 9 0 973.3 NA 0.0000 -SN 9999 0 0 0 1020
2017/09/01 20:27:04 BASE 21.94 22 26.19 20 -1.5 100 -1.5 8 0 973.2 NA 0.0000 -SN 9999 0 0 0 850
2017/09/01 20:28:04 BASE 21.97 21 26.19 20 -1.5 100 -1.5 7 0 973.2 NA 0.0000 -SN 7000 0 0 0 850
2017/09/01 20:29:04 BASE 22.12 21 26.19 20 -1.4 100 -1.4 7 0 973.2 NA 0.0000 -SN 7000 0 0 0 820
2017/09/01 20:30:04 BASE 21.71 20 26.19 20 -1.4 100 -1.4 6 0 973.3 NA 0.0000 -SN 9999 0 0 0 790
2017/09/01 20:31:04 BASE 21.76 19 26.60 15 -1.4 100 -1.4 6 0 973.0 NA 0.0000 -SN 9999 0 0 0 820
2017/09/01 20:32:04 BASE 22.50 21 26.60 15 -1.3 100 -1.3 6 0 973.1 NA 0.0000 -SN 9000 0 0 0 790
2017/09/01 20:33:04 BASE 22.50 21 26.60 15 -1.3 100 -1.3 6 0 973.2 NA 0.0000 -SN 9999 0 0 0 820
2017/09/01 20:34:04 BASE 23.30 21 26.60 15 -1.3 100 -1.3 6 0 973.0 NA 0.0000 -SN 9999 0 0 0 950
2017/09/01 20:35:04 BASE 22.75 21 26.60 15 -1.2 100 -1.2 5 0 973.3 NA 0.0000 -SN 9999 0 0 0 980
2017/09/01 20:36:04 BASE 21.80 21 26.60 15 -1.2 100 -1.2 5 0 973.2 NA 0.0000 -SN 9999 0 0 0 950
2017/09/01 20:37:04 BASE 21.79 20 26.60 15 -1.2 100 -1.2 5 0 973.4 NA 0.0000 -SN 9999 0 0 0 980
2017/09/01 20:38:04 BASE 21.40 19 26.60 15 -1.2 100 -1.2 4 0 973.4 NA 0.0000 -SN 9999 0 0 0 950
2017/09/01 20:39:04 BASE 21.31 19 26.60 15 -1.2 100 -1.2 4 0 973.4 NA 0.0000 -SN 9999 0 0 0 980
2017/09/01 20:40:03 BASE 20.41 17 26.60 15 -1.2 100 -1.2 4 0 973.5 NA 0.0000 -SN 9000 0 0 0 850
2017/09/01 20:41:04 BASE 20.77 16 25.67 16 -1.2 100 -1.2 4 0 973.2 NA 0.0000 -SN 8000 0 0 0 850
2017/09/01 20:42:04 BASE 22.06 18 25.67 16 -1.1 100 -1.1 4 0 973.2 NA 0.0000 -SN 6000 0 0 0 850
2017/09/01 20:43:04 BASE 20.92 20 25.67 16 -1.1 100 -1.1 4 0 973.4 NA 0.0000 -SN BR 5000 0 0 0 720
2017/09/01 20:44:04 BASE 20.62 19 25.67 16 -1.1 100 -1.1 4 0 973.3 NA 0.0000 -SN BR 4200 0 0 0 850
2017/09/01 20:45:04 BASE 21.52 18 25.67 16 -1.2 100 -1.2 4 0 973.2 NA 0.0000 -SN BR 4200 0 0 0 950
2017/09/01 20:46:04 BASE 21.60 19 24.95 16 -1.2 100 -1.2 3 0 973.2 NA 0.0000 -SN BR 4500 0 0 0 1080
2017/09/01 20:47:04 BASE 21.78 20 24.95 16 -1.2 100 -1.2 3 0 973.1 NA 0.0000 -SN BR 5000 0 0 0 1150
2017/09/01 20:48:04 BASE 20.97 17 24.95 16 -1.2 100 -1.2 3 0 973.3 NA 0.0000 -SN BR 4700 0 0 0 980
2017/09/01 20:49:04 BASE 21.32 16 27.21 11 -1.2 100 -1.2 2 0 973.1 NA 0.0000 -SN BR 3900 0 0 0 950
2017/09/01 20:50:03 BASE 21.75 20 27.21 11 -1.2 100 -1.2 2 0 973.2 NA 0.0000 -SN BR 3500 0 0 0 1050
2017/09/01 20:51:04 BASE 21.31 19 27.21 11 -1.2 100 -1.2 2 0 973.1 NA 0.0000 -SN BR 3900 0 0 0 920
2017/09/01 20:52:04 BASE 21.82 18 27.21 11 -1.2 100 -1.2 2 0 973.2 NA 0.0000 -SN BR 3900 0 0 0 980
2017/09/01 20:53:04 BASE 21.33 18 27.21 11 -1.2 100 -1.2 2 0 973.3 NA 0.0000 -SN BR 3200 0 0 0 920
2017/09/01 20:54:04 BASE 21.83 18 27.21 11 -1.2 100 -1.2 2 0 973.1 NA 0.5080 -SN BR 3300 0 0 0 920
2017/09/01 20:55:04 BASE 22.18 19 27.21 11 -1.2 100 -1.2 2 0 973.1 NA 0.0000 -SN BR 3600 0 0 0 980
2017/09/01 20:56:04 BASE 21.92 19 27.21 11 -1.2 100 -1.2 1 0 973.1 NA 0.0000 -SN BR 3400 0 0 0 980
2017/09/01 20:57:04 BASE 21.96 19 27.21 11 -1.2 100 -1.2 1 0 973.2 NA 0.0000 -SN BR 3300 0 0 0 950
2017/09/01 20:58:03 BASE 21.74 18 27.21 11 -1.2 100 -1.2 1 0 973.2 NA 0.0000 -SN BR 3400 0 0 0 920
2017/09/01 20:59:04 BASE 21.21 17 26.13 17 -1.2 100 -1.2 1 0 973.2 NA 0.0000 -SN BR 3200 0 0 0 920
2017/09/01 21:00:04 BASE 20.52 18 26.13 17 -1.2 100 -1.2 1 0 973.2 NA 0.0000 -SN BR 2900 0 0 0 920
2017/09/01 21:01:04 BASE 20.54 17 26.13 17 -1.2 100 -1.2 1 0 973.3 NA 0.0000 -SN BR 2800 0 0 0 820
2017/09/01 21:02:04 BASE 20.29 15 26.13 17 -1.2 100 -1.2 1 0 973.3 NA 0.5080 -SN BR 2900 0 0 0 750
2017/09/01 21:03:04 BASE 20.90 17 26.13 17 -1.2 100 -1.2 1 0 973.2 NA 0.0000 -SN BR 3000 0 0 0 820
2017/09/01 21:04:04 BASE 21.54 18 26.13 17 -1.2 100 -1.2 1 0 973.2 NA 0.0000 -SN BR 3900 0 0 0 850
2017/09/01 21:05:04 BASE 20.82 17 26.13 17 -1.2 100 -1.2 1 0 973.3 NA 0.0000 -SN BR 5000 0 0 0 950
2017/09/01 21:06:04 BASE 21.26 17 25.77 19 -1.2 100 -1.2 1 0 973.1 NA 0.0000 -SN BR 8000 0 0 0 980
2017/09/01 21:07:04 BASE 21.46 18 25.77 19 -1.2 100 -1.2 1 0 973.2 NA 0.0000 -SN BR 8000 0 0 0 1080
2017/09/01 21:08:04 BASE 21.27 19 25.77 19 -1.2 100 -1.2 1 0 973.1 NA 0.0000 -SN BR 9999 0 0 0 1050
2017/09/01 21:09:04 BASE 21.44 21 25.77 19 -1.2 100 -1.2 1 0 973.1 NA 0.0000 -SN BR 9999 0 0 0 1050
2017/09/01 21:10:03 BASE 20.89 20 25.77 19 -1.2 100 -1.2 1 0 973.0 NA 0.5080 -SN BR 9999 0 0 0 980
2017/09/01 21:11:04 BASE 21.40 18 25.77 19 -1.2 100 -1.2 0 0 973.0 NA 0.0000 -SN BR 9999 0 0 0 1120
2017/09/01 21:12:04 BASE 22.29 18 25.77 19 -1.2 100 -1.2 1 0 972.9 NA 0.0000 -SN BR M 0 0 0 1080
2017/09/01 21:13:05 BASE 22.57 17 25.21 10 -1.2 100 -1.2 1 0 972.9 NA 0.0000 -SN BR M 0 0 0 890
2017/09/01 21:14:04 BASE 22.42 17 25.21 10 -1.2 100 -1.2 1 0 973.0 NA 0.0000 -SN M 0 0 0 1050
2017/09/01 21:15:04 BASE 21.96 18 25.21 10 -1.2 100 -1.2 0 0 973.0 NA 0.0000 -SN M 0 0 0 1080
2017/09/01 21:16:04 BASE 22.16 20 25.21 10 -1.2 100 -1.2 0 0 972.9 NA 0.0000 -SN M 0 0 0 980
2017/09/01 21:17:04 BASE 22.89 21 25.21 10 -1.2 100 -1.2 0 0 972.8 NA 0.5080 -SN M 0 0 0 1050
2017/09/01 21:18:04 BASE 22.49 19 25.57 16 -1.2 100 -1.2 0 0 973.0 NA 0.0000 M 0 0 0 1150
2017/09/01 21:19:04 BASE 22.34 17 25.57 16 -1.1 100 -1.1 0 0 972.9 NA 0.0000 M 0 0 0 1150
2017/09/01 21:20:03 BASE 22.20 17 25.57 16 -1.1 100 -1.1 0 0 973.0 NA 0.0000 M 0 0 0 1210
2017/09/01 21:21:04 BASE 21.31 17 25.57 16 -1.1 100 -1.1 0 0 973.0 NA 0.0000 M 0 0 0 1280
2017/09/01 21:22:04 BASE 21.84 18 25.88 19 -1.1 100 -1.1 0 0 972.9 NA 0.0000 M 0 0 0 950
2017/09/01 21:23:04 BASE 22.29 18 25.88 19 -1.2 100 -1.2 0 0 972.9 NA 0.2540 M 0 0 0 890
2017/09/01 21:24:04 BASE 22.18 17 25.88 19 -1.2 100 -1.2 0 0 972.9 NA 0.0000 M 0 0 0 790
2017/09/01 21:25:04 BASE 22.18 16 25.88 19 -1.2 100 -1.2 0 0 972.9 NA 0.0000 M 0 0 0 790
2017/09/01 21:26:04 BASE 22.01 16 25.88 19 -1.2 100 -1.2 0 0 972.9 NA 0.0000 M 0 0 0 790
2017/09/01 21:27:04 BASE 22.14 20 25.88 19 -1.2 100 -1.2 0 0 972.9 NA 0.0000 M 0 0 0 980
2017/09/01 21:28:04 BASE 22.45 21 25.88 19 -1.2 100 -1.2 0 0 972.9 NA 0.0000 M 0 0 0 1050
2017/09/01 21:29:04 BASE 21.22 18 25.88 19 -1.2 100 -1.2 0 0 972.9 NA 0.0000 M 0 0 0 920
2017/09/01 21:30:04 BASE 21.35 16 25.88 19 -1.2 100 -1.2 0 0 972.7 NA 0.0000 M 0 0 0 920
2017/09/01 21:31:04 BASE 23.04 18 25.88 19 -1.2 100 -1.2 0 0 972.7 NA 0.0000 M 0 0 0 820
2017/09/01 21:32:04 BASE 22.63 20 25.31 20 -1.2 100 -1.2 0 0 972.8 NA 0.5080 M 0 0 0 1050
2017/09/01 21:33:04 BASE 22.31 19 25.46 24 -1.2 100 -1.2 0 0 972.8 NA 0.0000 M 0 0 0 890
2017/09/01 21:34:04 BASE 22.52 19 25.46 24 -1.2 100 -1.2 0 0 972.8 NA 0.0000 M 0 0 0 820
2017/09/01 21:35:04 BASE 22.06 18 25.46 24 -1.2 100 -1.2 0 0 972.9 NA 0.0000 M 0 0 0 850
2017/09/01 21:36:04 BASE 20.54 16 25.46 24 -1.2 100 -1.2 0 0 973.0 NA 0.0000 M 0 0 0 790
2017/09/01 21:37:04 BASE 20.49 15 25.46 24 -1.2 100 -1.2 0 0 972.8 NA 0.0000 M 0 0 0 920
2017/09/01 21:38:03 BASE 20.79 16 25.46 24 -1.2 100 -1.2 0 0 972.8 NA 0.0000 M 0 0 0 1020
2017/09/01 21:39:04 BASE 20.42 18 25.46 24 -1.2 100 -1.2 0 0 972.9 NA 0.0000 M 0 0 0 1080
2017/09/01 21:40:03 BASE 21.09 18 26.55 10 -1.2 100 -1.2 0 0 972.8 NA 0.0000 M 0 0 0 1150
2017/09/01 21:41:04 BASE 20.37 17 26.55 10 -1.2 100 -1.2 0 0 972.9 NA 0.0000 M 0 0 0 1120
2017/09/01 21:42:04 BASE 21.12 16 26.55 10 -1.2 100 -1.2 0 0 972.6 NA 0.0000 M 0 0 0 980
2017/09/01 21:43:04 BASE 22.45 18 26.55 10 -1.2 100 -1.2 0 0 972.8 NA 0.2540 M 0 0 0 850
2017/09/01 21:44:04 BASE 22.12 19 26.55 10 -1.2 100 -1.2 0 0 972.8 NA 0.0000 M 0 0 0 950
2017/09/01 21:45:04 BASE 21.69 19 26.55 10 -1.2 100 -1.2 0 0 972.9 NA 0.0000 M 0 0 0 890
2017/09/01 21:46:04 BASE 20.64 20 26.55 10 -1.1 100 -1.1 0 0 972.8 NA 0.0000 M 0 0 0 1150
2017/09/01 21:47:04 BASE 21.10 21 26.55 10 -1.1 100 -1.1 0 0 972.6 NA 0.0000 M 0 0 0 1380
2017/09/01 21:48:04 BASE 22.96 23 27.11 22 -1.1 100 -1.1 0 0 972.5 NA 0.0000 M 0 0 0 1310
2017/09/01 21:49:04 BASE 23.22 20 27.11 22 -1.1 100 -1.1 0 0 972.7 NA 0.0000 M 0 0 0 1410
2017/09/01 21:50:03 BASE 21.89 16 27.11 22 -1.1 100 -1.1 0 0 972.7 NA 0.0000 M 0 0 0 1380
2017/09/01 21:51:04 BASE 22.32 16 27.11 22 -1.0 100 -1.0 0 0 972.5 NA 0.2540 M 0 0 0 1250
2017/09/01 21:52:04 BASE 22.98 15 27.11 22 -1.0 100 -1.0 0 0 972.6 NA 0.0000 M 0 0 0 1670
2017/09/01 21:53:04 BASE 21.49 13 27.11 22 -1.0 100 -1.0 0 0 972.8 NA 0.0000 M 0 0 0 1510
2017/09/01 21:54:04 BASE 19.83 15 27.11 22 -1.0 100 -1.0 0 0 972.8 NA 0.0000 M 0 0 0 1440
2017/09/01 21:55:04 BASE 20.43 18 27.11 22 -1.0 100 -1.0 0 0 972.6 NA 0.0000 M 0 0 0 1250
2017/09/01 21:56:04 BASE 22.18 19 27.11 22 -1.0 100 -1.0 0 0 972.4 NA 0.0000 M 0 0 0 1250
2017/09/01 21:57:04 BASE 22.61 19 27.11 22 -1.1 100 -1.1 0 0 972.4 NA 0.2540 M 0 0 0 1210
2017/09/01 21:58:04 BASE 22.56 18 25.57 11 -1.1 100 -1.1 0 0 972.4 NA 0.0000 M 0 0 0 1080
2017/09/01 21:59:04 BASE 22.63 18 26.03 20 -1.1 100 -1.1 0 0 972.5 NA 0.0000 M 0 0 0 1050
2017/09/01 22:00:04 BASE 21.96 19 26.29 20 -1.1 100 -1.1 0 0 972.5 NA 0.0000 M 0 0 0 1050
2017/09/01 22:01:04 BASE 22.28 18 26.29 20 -1.1 100 -1.1 0 0 972.4 NA 0.0000 M 0 0 0 950
2017/09/01 22:02:04 BASE 22.74 18 26.29 20 -1.1 100 -1.1 0 0 972.5 NA 0.0000 M 0 0 0 820
2017/09/01 22:03:04 BASE 22.46 20 26.29 20 -1.1 100 -1.1 0 0 972.4 NA 0.0000 M 0 0 0 890
2017/09/01 22:04:04 BASE 22.44 19 26.29 20 -1.1 100 -1.1 0 0 972.4 NA 0.2540 M 0 0 0 950
2017/09/01 22:05:04 BASE 22.34 17 26.29 20 -1.1 100 -1.1 0 0 972.4 NA 0.0000 M 0 0 0 1020
2017/09/01 22:06:04 BASE 22.57 17 26.29 20 -1.1 100 -1.1 0 0 972.5 NA 0.0000 M 0 0 0 920
2017/09/01 22:07:04 BASE 22.46 16 26.29 20 -1.1 100 -1.1 0 0 972.5 NA 0.0000 M 0 0 0 850
2017/09/01 22:08:03 BASE 22.10 17 26.29 20 -1.1 100 -1.1 0 0 972.5 NA 0.0000 M 0 0 0 790
2017/09/01 22:09:04 BASE 22.30 19 26.29 20 -1.0 100 -1.0 0 0 972.5 NA 0.0000 M 0 0 0 950
2017/09/01 22:10:03 BASE 22.74 15 25.98 13 -1.0 100 -1.0 0 0 972.5 NA 0.0000 M 0 0 0 850
2017/09/01 22:11:04 BASE 22.07 15 25.98 13 -1.0 100 -1.0 0 0 972.6 NA 0.2540 M 0 0 0 920
2017/09/01 22:12:04 BASE 21.97 17 25.98 13 -1.0 100 -1.0 0 0 972.4 NA 0.0000 M 0 0 0 820
2017/09/01 22:13:06 BASE 22.83 17 25.98 13 -1.0 100 -1.0 0 0 972.4 NA 0.0000 M 0 0 0 920
2017/09/01 22:14:00 BASE 22.98 18 25.98 13 -1.0 100 -1.0 0 0 972.4 NA 0.0000 M 0 0 0 950
2017/09/01 22:15:04 BASE 22.52 19 25.98 13 -1.0 100 -1.0 0 0 972.5 NA 0.0000 M 0 0 0 1050
2017/09/01 22:16:04 BASE 21.84 19 25.98 13 -1.0 100 -1.0 0 0 972.5 NA 0.0000 M 0 0 0 1150
2017/09/01 22:17:04 BASE 22.43 18 25.98 13 -1.0 100 -1.0 0 0 972.4 NA 0.0000 M 0 0 0 1150
2017/09/01 22:18:04 BASE 22.67 14 25.98 13 -1.0 100 -1.0 0 0 972.6 NA 0.0000 M 0 0 0 1050
2017/09/01 22:19:04 BASE 21.24 14 25.88 18 -1.0 100 -1.0 0 0 972.6 NA 0.0000 M 0 0 0 1150
2017/09/01 22:20:03 BASE 20.68 15 25.88 18 -1.0 100 -1.0 0 0 972.6 NA 0.2540 M 0 0 0 1180
2017/09/01 22:21:04 BASE 22.17 16 25.88 18 -1.0 100 -1.0 0 0 972.4 NA 0.0000 M 0 0 0 1210
2017/09/01 22:22:04 BASE 22.75 17 25.88 18 -1.0 100 -1.0 0 0 972.5 NA 0.0000 M 0 0 0 1410
2017/09/01 22:23:04 BASE 22.56 17 25.88 18 -1.0 100 -1.0 0 0 972.4 NA 0.0000 M 0 0 0 1410
2017/09/01 22:24:04 BASE 23.03 18 25.88 18 -1.0 100 -1.0 0 0 972.4 NA 0.0000 M 0 0 0 1310
2017/09/01 22:25:04 BASE 22.14 17 25.88 18 -0.9 100 -0.9 0 0 972.6 NA 0.0000 M 0 0 0 1210
2017/09/01 22:26:04 BASE 20.24 13 25.88 18 -0.9 100 -0.9 0 0 972.7 NA 0.5080 M 0 0 0 1150
2017/09/01 22:27:04 BASE 19.24 9 25.36 15 -0.9 100 -0.9 0 0 972.7 NA 0.0000 1400 0 0 0 1210
2017/09/01 22:28:04 BASE 19.51 8 25.21 14 -0.8 100 -0.8 0 0 972.6 NA 0.0000 -SN 2200 0 0 0 1080
2017/09/01 22:29:04 BASE 19.65 11 25.21 14 -0.8 100 -0.8 0 0 972.6 NA 0.0000 -SN 2300 0 0 0 1120
2017/09/01 22:30:04 BASE 20.14 12 25.21 14 -0.8 100 -0.8 0 0 972.6 NA 0.0000 -SN 1700 0 0 0 1080
2017/09/01 22:31:04 BASE 20.50 13 25.21 14 -0.7 100 -0.7 0 0 972.6 NA 0.0000 -SN 1100 0 0 0 1180
2017/09/01 22:32:04 BASE 19.53 14 25.21 14 -0.7 100 -0.7 0 0 972.7 NA 0.0000 -SN 1300 0 0 0 1050
2017/09/01 22:33:04 BASE 19.22 13 25.21 14 -0.7 100 -0.7 0 0 972.7 NA 0.2540 -SN 1300 0 0 0 1020
2017/09/01 22:34:04 BASE 20.13 13 23.61 16 -0.7 100 -0.7 0 0 972.5 NA 0.0000 -SN BR 1200 0 0 0 1150
2017/09/01 22:35:04 BASE 20.86 15 24.13 13 -0.7 100 -0.7 0 0 972.5 NA 0.0000 -SN BR 1000 0 0 0 1050
2017/09/01 22:36:04 BASE 21.18 16 25.05 14 -0.8 100 -0.8 0 0 972.5 NA 0.0000 -SN BR 1000 0 0 0 950
2017/09/01 22:37:04 BASE 21.68 15 25.05 14 -0.8 100 -0.8 0 0 972.5 NA 0.0000 -SN BR 2300 0 0 0 950
2017/09/01 22:38:04 BASE 21.32 16 25.05 14 -0.8 100 -0.8 0 0 972.6 NA 0.5080 -SN BR 2700 0 0 0 950
2017/09/01 22:39:04 BASE 20.33 17 25.05 14 -0.8 100 -0.8 0 0 972.6 NA 0.0000 UP BR 2000 0 0 0 1050
2017/09/01 22:40:04 BASE 20.74 18 25.05 14 -0.8 100 -0.8 0 0 972.4 NA 0.0000 UP BR 1500 0 0 0 1080
2017/09/01 22:41:04 BASE 21.03 16 25.05 14 -0.8 100 -0.8 0 0 972.6 NA 0.0000 UP BR 2800 0 0 0 1080
2017/09/01 22:42:04 BASE 20.60 15 25.05 14 -0.8 100 -0.8 0 0 972.6 NA 0.0000 UP BR 2700 0 0 0 1180
2017/09/01 22:43:04 BASE 21.04 16 25.05 14 -0.8 100 -0.8 0 0 972.5 NA 0.0000 UP BR 1700 0 0 0 1020
2017/09/01 22:44:04 BASE 21.80 16 25.05 14 -0.8 100 -0.8 0 0 972.5 NA 0.2540 UP BR 0900 0 0 0 920
2017/09/01 22:45:04 BASE 20.89 14 25.05 14 -0.8 100 -0.8 0 0 972.6 NA 0.0000 UP BR 1200 0 0 0 890
2017/09/01 22:46:04 BASE 19.26 12 24.90 17 -0.8 100 -0.8 0 0 972.7 NA 0.0000 UP BR 3200 0 0 0 920
2017/09/01 22:47:04 BASE 18.87 12 24.90 17 -0.7 100 -0.7 0 0 972.7 NA 0.0000 UP BR 3200 0 0 0 1120
2017/09/01 22:48:04 BASE 19.53 14 24.90 17 -0.7 100 -0.7 0 0 972.6 NA 0.0000 UP BR 3600 0 0 0 980
2017/09/01 22:49:04 BASE 19.76 15 24.90 17 -0.7 100 -0.7 0 0 972.6 NA 0.0000 UP BR 3900 0 0 0 1080
2017/09/01 22:50:03 BASE 20.73 16 26.03 14 -0.7 100 -0.7 0 0 972.4 NA 0.0000 UP BR 5000 0 0 0 1180
2017/09/01 22:51:04 BASE 21.64 18 26.03 14 -0.7 100 -0.7 0 0 972.5 NA 0.2540 -SN BR 4200 0 0 0 1080
2017/09/01 22:52:04 BASE 21.27 19 26.03 14 -0.6 100 -0.6 0 0 972.4 NA 0.0000 -SN BR 2600 0 0 0 920
2017/09/01 22:53:04 BASE 21.16 17 26.03 14 -0.6 100 -0.6 0 0 972.4 NA 0.0000 -SN BR 2800 0 0 0 980
2017/09/01 22:54:04 BASE 21.15 17 26.03 14 -0.6 100 -0.6 0 0 972.4 NA 0.0000 -SN BR 4700 0 0 0 820
2017/09/01 22:55:03 BASE 20.47 19 26.03 14 -0.6 100 -0.6 0 0 972.6 NA 0.0000 -SN BR 4700 0 0 0 820
2017/09/01 22:56:04 BASE 20.36 22 26.03 14 -0.6 100 -0.6 0 0 972.5 NA 0.0000 -SN BR 1900 0 0 0 750
2017/09/01 22:57:04 BASE 20.48 18 26.03 14 -0.6 100 -0.6 0 0 972.6 NA 0.0000 -SN BR 1300 0 0 0 690
2017/09/01 22:58:04 BASE 19.73 13 26.03 14 -0.6 100 -0.6 0 0 972.6 NA 0.0000 -SN BR 3400 0 0 0 660
2017/09/01 22:59:04 BASE 20.21 15 26.03 14 -0.6 100 -0.6 0 0 972.4 NA 0.0000 -SN BR 3500 0 0 0 920
2017/09/01 23:00:04 BASE 21.12 17 24.33 26 -0.6 100 -0.6 0 0 972.4 NA 0.2540 -SN BR 3200 0 0 0 1180
2017/09/01 23:01:04 BASE 20.55 15 24.33 26 -0.6 100 -0.6 0 0 972.5 NA 0.0000 -SN BR 2900 0 0 0 1080
2017/09/01 23:02:04 BASE 19.21 12 24.33 26 -0.6 100 -0.6 0 0 972.6 NA 0.0000 -SN BR 4300 0 0 0 1050
2017/09/01 23:03:04 BASE 19.87 12 25.36 9 -0.7 100 -0.7 0 0 972.3 NA 0.0000 -SN BR 4400 0 0 0 1120
2017/09/01 23:04:04 BASE 20.95 15 25.36 9 -0.7 100 -0.7 0 0 972.4 NA 0.0000 -SN BR 4200 0 0 0 1050
2017/09/01 23:05:04 BASE 20.96 17 25.36 9 -0.7 100 -0.7 0 0 972.4 NA 0.0000 -SN BR 4800 0 0 0 950
2017/09/01 23:06:04 BASE 21.38 16 25.36 9 -0.7 100 -0.7 0 0 972.3 NA 0.0000 -SN BR 5000 0 0 0 820
2017/09/01 23:07:04 BASE 21.14 16 25.36 9 -0.7 100 -0.7 0 0 972.4 NA 0.0000 -SN BR 7000 0 0 0 820
2017/09/01 23:08:04 BASE 20.63 15 25.36 9 -0.7 100 -0.7 0 0 972.4 NA 0.0000 -SN BR 9999 0 0 0 750
2017/09/01 23:09:04 BASE 20.22 14 25.36 9 -0.7 100 -0.7 0 0 972.4 NA 0.0000 -SN BR 9999 0 0 0 720
2017/09/01 23:10:03 BASE 19.93 15 25.36 9 -0.7 100 -0.7 0 0 972.4 NA 0.0000 -SN BR 9999 0 0 0 820
2017/09/01 23:11:04 BASE 20.15 15 25.36 9 -0.7 100 -0.7 0 0 972.4 NA 0.0000 -SN BR 9999 0 0 0 720
2017/09/01 23:12:04 BASE 20.58 14 25.36 9 -0.7 100 -0.7 0 0 972.5 NA 0.0000 -SN BR 9999 0 0 0 590
2017/09/01 23:13:05 BASE 21.15 14 24.44 22 -0.6 100 -0.6 0 0 972.4 NA 0.0000 -SN BR 9999 0 0 0 560
2017/09/01 23:14:01 BASE 21.48 16 25.10 28 -0.6 100 -0.6 0 0 972.4 NA 0.0000 -SN BR M 0 0 0 620
2017/09/01 23:15:04 BASE 21.95 18 25.10 28 -0.6 100 -0.6 0 0 972.4 NA 0.0000 -SN M 0 0 0 690
2017/09/01 23:16:04 BASE 22.21 17 26.55 11 -0.6 100 -0.6 0 0 972.3 NA 0.0000 -SN M 0 0 0 920
2017/09/01 23:17:04 BASE 22.13 18 26.55 11 -0.5 100 -0.5 0 0 972.3 NA 0.2540 -SN M 0 0 0 820
2017/09/01 23:18:04 BASE 21.33 20 26.55 11 -0.5 100 -0.5 0 0 972.2 NA 0.0000 -SN M 0 0 0 850
2017/09/01 23:19:04 BASE 21.70 22 26.55 11 -0.5 100 -0.5 0 0 972.1 NA 0.0000 -SN M 0 0 0 750
2017/09/01 23:20:03 BASE 22.89 23 26.55 11 -0.5 100 -0.5 0 0 972.0 NA 0.0000 M 0 0 0 890
2017/09/01 23:21:04 BASE 22.91 23 26.55 11 -0.6 100 -0.6 0 0 972.2 NA 0.0000 M 0 0 0 850
2017/09/01 23:22:04 BASE 22.28 22 26.55 11 -0.6 100 -0.6 0 0 972.2 NA 0.0000 M 0 0 0 720
2017/09/01 23:23:04 BASE 21.63 20 26.55 11 -0.7 100 -0.7 0 0 972.4 NA 0.5080 M 0 0 0 720
2017/09/01 23:24:05 BASE 20.40 15 26.55 11 -0.7 100 -0.7 0 0 972.6 NA 0.0000 M 0 0 0 690
2017/09/01 23:25:04 BASE 19.20 14 26.55 11 -0.7 100 -0.7 0 0 972.6 NA 0.0000 M 0 0 0 620
2017/09/01 23:26:04 BASE 19.64 17 25.88 21 -0.8 100 -0.8 0 0 972.5 NA 0.0000 -SN 0650 0 0 0 620
2017/09/01 23:27:04 BASE 19.43 18 25.88 21 -0.8 100 -0.8 0 0 972.6 NA 0.0000 -SN 0600 0 0 0 890
2017/09/01 23:28:04 BASE 18.22 19 25.88 21 -0.8 100 -0.8 0 0 972.5 NA 0.0000 -SN 2100 0 0 0 1120
2017/09/01 23:29:04 BASE 19.05 21 25.88 21 -0.8 100 -0.8 0 0 972.3 NA 0.0000 -SN 1500 0 0 0 1250
2017/09/01 23:30:04 BASE 21.04 21 25.16 18 -0.8 100 -0.8 0 0 972.2 NA 0.0000 -SN 5000 0 0 0 1050
2017/09/01 23:31:04 BASE 21.71 20 25.16 18 -0.8 100 -0.8 0 0 972.2 NA 0.0000 -SN 8000 0 0 0 950
2017/09/01 23:32:04 BASE 20.71 18 25.16 18 -0.7 100 -0.7 0 0 972.3 NA 0.0000 -SN 8000 0 0 0 850
2017/09/01 23:33:04 BASE 19.61 16 25.16 18 -0.7 100 -0.7 0 0 972.4 NA 0.0000 -SN BR 7000 0 0 0 980
2017/09/01 23:34:04 BASE 19.48 16 25.16 18 -0.7 100 -0.7 0 0 972.4 NA 0.2540 -SN BR 9000 0 0 0 690
2017/09/01 23:35:04 BASE 20.09 17 25.16 18 -0.7 100 -0.7 0 0 972.3 NA 0.0000 -SN BR 9999 0 0 0 750
2017/09/01 23:36:04 BASE 19.20 13 25.16 18 -0.7 100 -0.7 0 0 972.4 NA 0.0000 -SN BR 8000 0 0 0 850
2017/09/01 23:37:04 BASE 19.02 11 25.16 18 -0.6 100 -0.6 0 0 972.3 NA 0.0000 -SN BR 3200 0 0 0 850
2017/09/01 23:38:04 BASE 20.27 15 25.16 18 -0.6 100 -0.6 0 0 972.2 NA 0.0000 -SN BR 1500 0 0 0 890
2017/09/01 23:39:04 BASE 20.72 17 25.16 18 -0.6 100 -0.6 0 0 972.2 NA 0.0000 -SN BR 1300 0 0 0 820
2017/09/01 23:40:03 BASE 20.40 15 24.18 12 -0.5 100 -0.5 0 0 972.3 NA 0.0000 -SN BR 1400 0 0 0 790
2017/09/01 23:41:04 BASE 19.09 12 24.18 12 -0.5 100 -0.5 0 0 972.3 NA 0.0000 -SN BR 2100 0 0 0 980
2017/09/01 23:42:04 BASE 19.01 13 24.23 17 -0.5 100 -0.5 0 0 972.2 NA 0.5080 -SN BR 1300 0 0 0 1050
2017/09/01 23:43:04 BASE 19.94 15 24.23 17 -0.5 100 -0.5 0 0 972.2 NA 0.0000 -SN BR 1200 0 0 0 980
2017/09/01 23:44:04 BASE 20.45 14 24.23 17 -0.5 100 -0.5 0 0 972.2 NA 0.0000 -SN BR 1100 0 0 0 950
2017/09/01 23:45:04 BASE 20.16 16 24.23 17 -0.6 100 -0.6 0 0 972.2 NA 0.0000 -SN BR 1300 0 0 0 920
2017/09/01 23:46:04 BASE 20.00 16 24.23 17 -0.6 100 -0.6 0 0 972.1 NA 0.0000 -SN BR 3900 0 0 0 850
2017/09/01 23:47:04 BASE 19.52 14 24.23 17 -0.6 100 -0.6 0 0 972.1 NA 0.0000 UP BR 3400 0 0 0 790
2017/09/01 23:48:04 BASE 18.42 11 24.23 17 -0.6 100 -0.6 0 0 972.2 NA 0.0000 UP BR 4700 0 0 0 750
2017/09/01 23:49:05 BASE 17.76 8 24.23 17 -0.6 100 -0.6 0 0 972.3 NA 0.0000 UP BR 5000 0 0 0 920
2017/09/01 23:50:03 BASE 18.08 8 24.23 17 -0.6 100 -0.6 0 0 972.2 NA 0.0000 UP BR 6000 0 0 0 820
2017/09/01 23:51:04 BASE 18.61 11 24.23 17 -0.6 100 -0.6 0 0 972.2 NA 0.0000 UP BR 3200 0 0 0 1050
2017/09/01 23:52:04 BASE 18.42 8 23.56 17 -0.6 100 -0.6 0 0 972.2 NA 0.0000 UP BR 1600 0 0 0 1250
2017/09/01 23:53:05 BASE 18.43 10 23.20 9 -0.5 100 -0.5 0 0 972.2 NA 0.0000 UP BR 1600 0 0 0 1280
2017/09/01 23:54:04 BASE 18.05 13 23.05 19 -0.5 100 -0.5 0 0 972.3 NA 0.0000 UP BR 1300 0 0 0 1250
2017/09/01 23:55:04 BASE 17.14 11 21.86 7 -0.5 100 -0.5 0 0 972.4 NA 0.0000 UP BR 1300 0 0 0 1280
2017/09/01 23:56:04 BASE 17.30 12 21.14 3 -0.4 100 -0.4 0 0 972.3 NA 0.2540 UP BR 1400 0 0 0 1440
2017/09/01 23:57:04 BASE 17.32 13 20.89 7 -0.4 100 -0.4 0 0 972.2 NA 0.0000 UP BR 1500 0 0 0 1410
2017/09/01 23:58:04 BASE 17.23 15 23.05 19 -0.4 100 -0.4 0 0 972.2 NA 0.0000 UP BR 1300 0 0 0 1280
2017/09/01 23:59:04 BASE 18.22 11 23.05 19 -0.4 100 -0.4 0 0 972.0 NA 0.0000 UP BR 1600 0 0 0 1120